[[{"header":{"parameterUnit":"m.s-1","parameterCategory":1,"la1":30.6,"la2":29.2853,"lo1":-89.7004,"lo2":-87.6739,"dy":0.0162,"dx":0.0183,"nx":112,"ny":82,"refTime":"2024-04-01T00:00:00:Z","depth":0,"parameterNumber":2,"parameterNumberName":"U-component_of_WINDS"},"data":[0.0,0.0,0.0,0.0,0.0,0.0,0.0,0.0,0.0,0.0,0.0,0.0,0.0,0.0,0.0,0.0,0.0,0.0,0.0,0.0,0.0,0.0,0.0,0.0,0.0,0.0,0.0,0.0,0.0,0.0,0.0,0.0,0.0,0.0,0.0,0.0,0.0,0.0,0.0,0.0,0.0,0.0,0.0,0.0,0.0,0.0,0.0,0.0,0.0,0.0,0.0,0.0,0.0,0.0,0.0,0.0,0.0,0.0,0.0,0.0,0.0,0.0,0.0,0.0,0.0,0.0,0.0,0.0,0.0,0.0,0.0,0.0,0.0,0.0,0.0,0.0,0.0,0.0,0.0,0.0,0.0,0.0,0.0,0.0,0.0,0.0,0.0,0.0,0.0,0.0,-3.5184,-3.4718,-3.4528,-3.3977,-3.2785,-3.2819,-3.1872,-2.9317,0.0,0.0,0.0,0.0,0.0,0.0,0.0,0.0,0.0,0.0,0.0,0.0,0.0,0.0,0.0,0.0,0.0,0.0,0.0,0.0,0.0,0.0,0.0,0.0,0.0,0.0,0.0,0.0,0.0,0.0,0.0,0.0,0.0,0.0,0.0,0.0,0.0,0.0,0.0,0.0,0.0,0.0,0.0,0.0,0.0,0.0,0.0,0.0,0.0,0.0,0.0,0.0,0.0,0.0,0.0,0.0,0.0,0.0,0.0,0.0,0.0,0.0,0.0,0.0,0.0,0.0,0.0,0.0,0.0,0.0,0.0,0.0,0.0,0.0,0.0,0.0,0.0,0.0,0.0,0.0,0.0,0.0,0.0,0.0,0.0,0.0,0.0,0.0,0.0,0.0,0.0,0.0,0.0,0.0,0.0,0.0,0.0,0.0,0.0,0.0,0.0,0.0,0.0,0.0,-3.5815,-3.5459,-3.5221,-3.4599,-3.3534,-3.2371,-3.0688,-2.8272,0.0,0.0,0.0,0.0,0.0,0.0,0.0,0.0,0.0,0.0,0.0,0.0,0.0,0.0,0.0,0.0,0.0,0.0,0.0,0.0,0.0,0.0,0.0,0.0,0.0,0.0,0.0,0.0,0.0,0.0,0.0,0.0,0.0,0.0,0.0,0.0,0.0,0.0,0.0,0.0,0.0,0.0,0.0,0.0,0.0,0.0,0.0,0.0,0.0,0.0,0.0,0.0,0.0,0.0,0.0,0.0,0.0,0.0,0.0,0.0,0.0,0.0,0.0,0.0,0.0,0.0,0.0,0.0,0.0,0.0,0.0,0.0,0.0,0.0,0.0,0.0,0.0,0.0,0.0,0.0,0.0,0.0,0.0,0.0,0.0,0.0,0.0,0.0,0.0,0.0,0.0,0.0,0.0,0.0,0.0,0.0,0.0,0.0,0.0,0.0,0.0,0.0,0.0,-3.6795,-3.6229,-3.5296,-3.4582,-3.3651,-3.2616,-3.1133,-2.9297,-2.6957,-2.6388,0.0,0.0,0.0,0.0,0.0,0.0,0.0,0.0,0.0,0.0,0.0,0.0,0.0,0.0,0.0,0.0,0.0,0.0,0.0,0.0,0.0,0.0,0.0,0.0,0.0,0.0,0.0,0.0,0.0,0.0,0.0,0.0,0.0,0.0,0.0,0.0,0.0,0.0,0.0,0.0,0.0,0.0,0.0,0.0,0.0,0.0,0.0,0.0,0.0,0.0,0.0,0.0,0.0,0.0,0.0,0.0,0.0,0.0,0.0,0.0,0.0,0.0,0.0,0.0,0.0,0.0,0.0,0.0,0.0,0.0,0.0,0.0,0.0,0.0,0.0,0.0,0.0,0.0,0.0,0.0,0.0,0.0,0.0,0.0,0.0,0.0,0.0,0.0,0.0,0.0,0.0,0.0,0.0,0.0,0.0,0.0,0.0,0.0,0.0,0.0,0.0,0.0,-3.75,-3.6537,-3.4839,-3.395,-3.284,-3.145,-2.99,-2.7968,-2.5452,-2.3763,0.0,0.0,0.0,0.0,0.0,0.0,0.0,0.0,0.0,0.0,0.0,0.0,0.0,0.0,0.0,0.0,0.0,0.0,0.0,0.0,0.0,0.0,0.0,0.0,0.0,0.0,0.0,0.0,0.0,0.0,0.0,0.0,0.0,0.0,0.0,0.0,0.0,0.0,0.0,0.0,0.0,0.0,0.0,0.0,0.0,0.0,0.0,0.0,0.0,0.0,0.0,0.0,0.0,0.0,0.0,0.0,0.0,0.0,0.0,0.0,0.0,0.0,0.0,0.0,0.0,0.0,0.0,0.0,0.0,0.0,0.0,0.0,0.0,0.0,0.0,0.0,0.0,0.0,0.0,0.0,0.0,0.0,0.0,0.0,0.0,0.0,0.0,0.0,0.0,0.0,0.0,0.0,0.0,0.0,0.0,0.0,0.0,0.0,0.0,0.0,0.0,0.0,-3.7327,-3.6814,-3.4333,-3.4137,-3.3192,-3.0596,-2.8807,-2.6578,-2.3761,-2.1091,0.0,0.0,0.0,0.0,0.0,0.0,0.0,0.0,0.0,0.0,0.0,0.0,0.0,0.0,0.0,0.0,0.0,0.0,0.0,0.0,0.0,0.0,0.0,0.0,0.0,0.0,0.0,0.0,0.0,0.0,0.0,0.0,0.0,0.0,0.0,0.0,0.0,0.0,0.0,0.0,0.0,0.0,0.0,0.0,0.0,0.0,0.0,0.0,0.0,0.0,0.0,0.0,0.0,0.0,0.0,0.0,0.0,0.0,0.0,0.0,0.0,0.0,0.0,0.0,0.0,0.0,0.0,0.0,0.0,0.0,0.0,0.0,0.0,0.0,0.0,0.0,0.0,0.0,0.0,0.0,0.0,0.0,0.0,0.0,0.0,0.0,0.0,0.0,0.0,0.0,0.0,0.0,0.0,0.0,0.0,0.0,0.0,0.0,0.0,0.0,0.0,0.0,-3.6254,-3.5284,-3.3747,-3.2296,-3.0754,-2.9064,-2.7081,-2.4669,-2.1761,0.0,0.0,0.0,0.0,0.0,0.0,0.0,0.0,0.0,0.0,0.0,0.0,0.0,0.0,0.0,0.0,0.0,0.0,0.0,0.0,0.0,0.0,0.0,0.0,0.0,0.0,0.0,0.0,0.0,0.0,0.0,0.0,0.0,0.0,0.0,0.0,0.0,0.0,0.0,0.0,0.0,0.0,0.0,0.0,0.0,0.0,0.0,0.0,0.0,0.0,0.0,0.0,0.0,0.0,0.0,0.0,0.0,0.0,0.0,0.0,0.0,0.0,0.0,0.0,0.0,0.0,0.0,0.0,0.0,0.0,0.0,0.0,0.0,0.0,0.0,0.0,0.0,0.0,0.0,0.0,0.0,0.0,0.0,0.0,0.0,0.0,0.0,0.0,0.0,0.0,0.0,0.0,0.0,0.0,0.0,0.0,0.0,0.0,0.0,0.0,0.0,0.0,-3.5894,-3.5091,-3.4014,-3.2604,-3.0925,-2.9197,-2.7502,-2.5159,-2.2622,-1.9888,0.0,0.0,0.0,0.0,0.0,0.0,0.0,0.0,0.0,0.0,0.0,0.0,0.0,0.0,0.0,0.0,0.0,0.0,0.0,0.0,0.0,0.0,0.0,0.0,0.0,0.0,0.0,0.0,0.0,0.0,0.0,0.0,0.0,0.0,0.0,0.0,0.0,0.0,0.0,0.0,0.0,0.0,0.0,0.0,0.0,0.0,0.0,0.0,0.0,0.0,0.0,0.0,0.0,0.0,0.0,0.0,0.0,0.0,0.0,0.0,0.0,0.0,0.0,0.0,0.0,0.0,0.0,0.0,0.0,0.0,0.0,0.0,0.0,0.0,0.0,0.0,0.0,0.0,0.0,0.0,0.0,0.0,0.0,0.0,0.0,0.0,0.0,0.0,0.0,0.0,0.0,0.0,0.0,0.0,0.0,0.0,0.0,0.0,0.0,0.0,0.0,0.0,-3.3779,-3.3983,-3.3244,-3.0925,-3.0415,-2.9013,-2.6064,-2.3282,-2.0634,0.0,0.0,0.0,0.0,0.0,0.0,0.0,0.0,0.0,0.0,0.0,0.0,0.0,0.0,0.0,0.0,0.0,0.0,0.0,0.0,0.0,0.0,0.0,0.0,0.0,0.0,0.0,0.0,0.0,0.0,0.0,0.0,0.0,0.0,0.0,0.0,0.0,0.0,0.0,0.0,0.0,0.0,0.0,0.0,0.0,0.0,0.0,0.0,0.0,0.0,0.0,0.0,0.0,0.0,0.0,0.0,0.0,0.0,0.0,0.0,0.0,0.0,0.0,0.0,0.0,0.0,0.0,0.0,0.0,0.0,0.0,0.0,0.0,0.0,0.0,0.0,0.0,0.0,0.0,0.0,0.0,0.0,0.0,0.0,0.0,0.0,0.0,0.0,0.0,0.0,0.0,0.0,0.0,0.0,0.0,0.0,0.0,0.0,0.0,0.0,0.0,0.0,0.0,-3.4667,-3.3246,-3.1801,-3.0466,-2.9002,-2.7274,-2.5095,-2.284,-2.0355,-1.7456,0.0,0.0,0.0,0.0,0.0,0.0,0.0,0.0,0.0,0.0,0.0,0.0,0.0,0.0,0.0,0.0,0.0,0.0,0.0,0.0,0.0,0.0,0.0,0.0,0.0,0.0,0.0,0.0,0.0,0.0,0.0,0.0,0.0,0.0,0.0,0.0,0.0,0.0,0.0,0.0,0.0,0.0,0.0,0.0,0.0,0.0,0.0,0.0,0.0,0.0,0.0,0.0,0.0,0.0,0.0,0.0,0.0,0.0,0.0,0.0,0.0,0.0,0.0,0.0,0.0,0.0,0.0,0.0,0.0,0.0,0.0,0.0,0.0,0.0,0.0,0.0,0.0,0.0,0.0,0.0,0.0,0.0,0.0,0.0,0.0,0.0,0.0,0.0,0.0,0.0,0.0,0.0,0.0,0.0,0.0,0.0,0.0,0.0,0.0,0.0,0.0,0.0,-3.3969,-3.249,-3.1013,-2.9748,-2.812,-2.6367,-2.4599,-2.2365,-1.994,-1.7174,0.0,0.0,0.0,0.0,0.0,0.0,0.0,0.0,0.0,0.0,0.0,0.0,0.0,0.0,0.0,0.0,0.0,0.0,0.0,0.0,0.0,0.0,0.0,0.0,0.0,0.0,0.0,0.0,0.0,0.0,0.0,0.0,0.0,0.0,0.0,0.0,0.0,0.0,0.0,0.0,0.0,0.0,0.0,0.0,0.0,0.0,0.0,0.0,0.0,0.0,0.0,0.0,0.0,0.0,0.0,0.0,0.0,0.0,0.0,0.0,0.0,0.0,0.0,0.0,0.0,0.0,0.0,0.0,0.0,0.0,0.0,0.0,0.0,0.0,0.0,0.0,0.0,0.0,0.0,0.0,0.0,0.0,0.0,0.0,0.0,0.0,0.0,0.0,0.0,0.0,0.0,0.0,0.0,0.0,0.0,0.0,0.0,0.0,0.0,0.0,0.0,0.0,-3.2525,-3.186,-3.0825,-2.9086,-2.7761,-2.6314,-2.4536,-2.2093,-1.9666,-1.7271,0.0,0.0,0.0,0.0,0.0,0.0,0.0,0.0,0.0,0.0,0.0,0.0,0.0,0.0,0.0,0.0,0.0,0.0,0.0,0.0,0.0,0.0,0.0,0.0,0.0,0.0,0.0,0.0,0.0,0.0,0.0,0.0,0.0,0.0,0.0,0.0,0.0,0.0,0.0,0.0,0.0,0.0,0.0,0.0,0.0,0.0,0.0,0.0,0.0,0.0,0.0,0.0,0.0,0.0,0.0,0.0,0.0,0.0,0.0,0.0,-4.6787,-4.5594,0.0,0.0,0.0,0.0,0.0,0.0,0.0,0.0,0.0,0.0,0.0,0.0,0.0,0.0,0.0,0.0,0.0,0.0,0.0,0.0,0.0,0.0,0.0,0.0,0.0,0.0,0.0,0.0,0.0,0.0,0.0,0.0,0.0,0.0,0.0,0.0,0.0,0.0,0.0,0.0,-3.3229,-3.2155,-3.0936,-2.9658,-2.8524,-2.7038,-2.5055,-2.2983,-2.0646,-1.7958,-1.5439,0.0,0.0,0.0,0.0,0.0,0.0,0.0,0.0,0.0,0.0,0.0,0.0,0.0,0.0,0.0,0.0,0.0,0.0,0.0,0.0,0.0,0.0,0.0,0.0,0.0,0.0,0.0,0.0,0.0,0.0,0.0,0.0,0.0,0.0,0.0,0.0,0.0,0.0,0.0,0.0,0.0,0.0,0.0,0.0,0.0,0.0,0.0,0.0,0.0,0.0,0.0,0.0,0.0,0.0,0.0,0.0,0.0,0.0,0.0,-4.947,-4.8437,0.0,0.0,0.0,0.0,0.0,0.0,0.0,0.0,0.0,0.0,0.0,0.0,0.0,0.0,0.0,0.0,0.0,0.0,0.0,0.0,0.0,0.0,0.0,0.0,0.0,0.0,0.0,0.0,0.0,0.0,0.0,0.0,0.0,0.0,0.0,0.0,0.0,0.0,0.0,0.0,-3.3264,-3.2652,-3.1625,-2.995,-2.8841,-2.7482,-2.5627,-2.3835,-2.1761,-1.9322,-1.6891,0.0,0.0,0.0,0.0,0.0,0.0,0.0,0.0,0.0,0.0,0.0,0.0,0.0,0.0,0.0,0.0,0.0,0.0,0.0,0.0,0.0,0.0,0.0,0.0,0.0,0.0,0.0,0.0,0.0,0.0,0.0,0.0,0.0,0.0,0.0,0.0,0.0,0.0,0.0,0.0,0.0,0.0,0.0,0.0,0.0,0.0,0.0,0.0,0.0,0.0,0.0,0.0,0.0,-3.7831,-3.9623,-4.2306,-4.6231,-4.9099,-5.0994,-5.1525,-5.1032,-4.9873,-4.8032,0.0,0.0,0.0,0.0,0.0,0.0,0.0,0.0,0.0,0.0,0.0,0.0,0.0,0.0,0.0,0.0,0.0,0.0,0.0,0.0,0.0,0.0,-4.7102,-4.7119,-4.6135,-4.4813,-4.3462,0.0,0.0,0.0,0.0,0.0,0.0,0.0,0.0,0.0,0.0,0.0,-3.3557,-3.3325,-3.2596,-3.0388,-2.9274,-2.8074,-2.6282,-2.4636,-2.2861,-2.0852,-1.8406,-1.6234,0.0,0.0,0.0,0.0,0.0,0.0,0.0,0.0,0.0,0.0,0.0,0.0,0.0,0.0,0.0,0.0,0.0,0.0,0.0,0.0,0.0,0.0,0.0,0.0,0.0,0.0,0.0,0.0,0.0,0.0,0.0,0.0,-3.696,-3.8832,0.0,0.0,0.0,0.0,0.0,0.0,0.0,0.0,0.0,0.0,0.0,0.0,0.0,-5.1039,-4.9097,-4.693,-4.444,-4.1614,-4.2901,-4.3707,-4.4193,-4.8008,-5.0206,-5.1094,-5.2977,0.0,-5.0244,-4.8724,0.0,0.0,0.0,0.0,0.0,0.0,0.0,0.0,0.0,0.0,0.0,0.0,0.0,0.0,0.0,0.0,0.0,0.0,0.0,0.0,0.0,0.0,-4.8288,-4.7892,-4.6951,-4.6055,-4.5802,-4.3529,-4.1374,-4.0745,-3.9733,-3.8781,0.0,0.0,0.0,0.0,0.0,0.0,-3.4944,-3.422,-3.3321,-3.1898,-3.0773,-2.9252,-2.7334,-2.5751,-2.3886,-2.1699,-1.9987,-1.8441,-1.6852,-1.5418,0.0,0.0,0.0,0.0,0.0,0.0,0.0,0.0,0.0,0.0,0.0,0.0,0.0,0.0,0.0,0.0,0.0,0.0,0.0,0.0,0.0,0.0,0.0,0.0,0.0,0.0,0.0,0.0,0.0,-4.2014,-4.2817,-4.3793,-4.4582,-4.5434,0.0,0.0,0.0,0.0,0.0,0.0,0.0,0.0,0.0,-5.4655,-5.3811,-5.2804,-5.1685,-4.9067,-4.6886,-4.5164,-4.5603,-4.6097,-4.661,-4.9402,-5.1287,-5.2418,-5.3717,-5.3343,-5.1799,-5.01,-4.8073,-4.5635,0.0,0.0,0.0,0.0,-3.2937,-3.0417,-2.8436,-2.7355,-2.6611,-2.5219,0.0,0.0,0.0,0.0,0.0,0.0,0.0,-4.7388,-4.829,-4.9189,-4.9714,-4.9039,-4.8093,-4.7247,-4.7247,-4.5633,-4.3864,-4.2452,-4.1123,-4.009,-3.9648,-3.9033,0.0,0.0,0.0,-3.6409,-3.4946,-3.4685,-3.4011,-3.2399,-3.1498,-3.0138,-2.8139,-2.6757,-2.5191,-2.3319,-2.2004,-2.0647,-1.9213,-1.8109,-1.7232,0.0,0.0,0.0,0.0,0.0,0.0,0.0,0.0,0.0,0.0,0.0,0.0,0.0,0.0,0.0,0.0,0.0,0.0,0.0,0.0,0.0,0.0,0.0,0.0,0.0,0.0,0.0,0.0,-4.7411,-4.791,-4.8389,-4.8806,-4.928,0.0,0.0,0.0,0.0,0.0,0.0,-5.3946,-5.4328,-5.4975,-5.5995,-5.5074,-5.4219,-5.3562,-5.0776,-4.8907,-4.7928,-4.798,-4.8233,-4.8815,-5.0716,-5.2269,-5.3413,-5.4045,-5.3874,-5.3037,-5.1494,-4.9641,-4.7445,-4.4857,-4.2228,-3.9721,-3.7806,-3.556,-3.3172,-3.1115,-3.0185,-2.9564,-2.7575,-2.8585,-3.0932,-3.2545,0.0,0.0,0.0,0.0,-4.8638,-4.9604,-5.0395,-5.0822,-5.025,-4.9175,-4.8297,-4.8057,-4.6934,-4.5549,-4.4003,-4.2508,-4.1321,-4.082,-4.0031,0.0,-3.7507,-3.7425,-3.6985,-3.5361,-3.5073,-3.4516,-3.2904,-3.1915,-3.07,-2.8966,-2.7642,-2.6344,-2.4982,-2.3886,-2.2678,-2.1346,-2.0499,-1.9618,-1.8586,0.0,0.0,0.0,0.0,0.0,0.0,0.0,0.0,0.0,0.0,0.0,0.0,0.0,0.0,0.0,0.0,0.0,0.0,0.0,0.0,0.0,0.0,0.0,0.0,0.0,0.0,0.0,0.0,0.0,-5.1802,-5.2237,0.0,0.0,0.0,0.0,-5.5219,-5.5163,-5.5518,-5.6566,-5.6596,-5.7111,-5.8001,-5.6641,-5.5519,-5.4703,-5.3173,-5.1515,-4.9835,-5.0642,-5.082,-5.0493,-5.1998,-5.289,-5.3367,-5.4129,-5.3956,-5.3082,-5.2649,-5.0724,-4.7868,-4.6845,-4.4453,-4.1401,-3.9284,-3.7481,-3.5687,-3.287,-3.196,-3.189,-3.1108,-3.3129,-3.6292,-3.8868,-4.096,0.0,0.0,-4.759,-4.889,-5.0211,-5.1029,-5.1479,-5.1199,-5.0223,-4.9104,-4.805,-4.6944,-4.5722,-4.4668,-4.3748,-4.2669,-4.1156,0.0,-4.0172,-3.9167,-3.8504,-3.7814,-3.688,-3.568,-3.4498,-3.3618,-3.2173,-3.0874,-2.9973,-2.8494,-2.7316,-2.6637,-2.5394,-2.419,-2.3223,-2.2353,-2.1944,-2.1848,-2.0418,0.0,0.0,0.0,0.0,0.0,0.0,0.0,0.0,0.0,0.0,0.0,0.0,0.0,0.0,0.0,0.0,0.0,0.0,0.0,0.0,0.0,0.0,0.0,0.0,0.0,0.0,0.0,0.0,-5.601,-5.5866,0.0,-5.6329,-5.6265,-5.646,-5.7012,-5.678,-5.6848,-5.7442,-5.7364,-5.7392,-5.7588,-5.6645,-5.5972,-5.5703,-5.4116,-5.3039,-5.2366,-5.2424,-5.2345,-5.2236,-5.3082,-5.3757,-5.4251,-5.4513,-5.4293,-5.3844,-5.328,-5.1655,-4.937,-4.7632,-4.5962,-4.414,-4.1967,-4.028,-3.878,-3.627,-3.5584,-3.5673,-3.5393,-3.6072,-3.7533,-4.0627,-4.2205,-4.3536,-4.6624,-4.8169,-4.9275,-5.0297,-5.1297,-5.1941,-5.1572,-5.102,-5.0288,-4.9356,-4.8377,-4.7347,-4.6031,-4.4678,-4.3294,-4.1736,-4.1333,-4.0631,-3.8929,-3.8164,-3.7395,-3.6354,-3.5492,-3.4633,-3.3695,-3.2536,-3.136,-3.0313,-2.8856,-2.7839,-2.721,-2.6184,-2.5278,-2.4587,-2.3982,-2.3352,-2.2805,-2.2249,-2.1825,0.0,0.0,0.0,0.0,0.0,0.0,0.0,0.0,0.0,0.0,0.0,0.0,0.0,0.0,0.0,0.0,0.0,0.0,0.0,0.0,0.0,0.0,0.0,0.0,0.0,-5.8871,-5.9001,-5.9276,-5.8908,-5.852,-5.8325,-5.838,-5.8449,-5.8565,-5.839,-5.8409,-5.8552,-5.8362,-5.8178,-5.806,-5.7356,-5.678,-5.6363,-5.5015,-5.4269,-5.4121,-5.356,-5.3596,-5.424,-5.3974,-5.4338,-5.5086,-5.4826,-5.4519,-5.4067,-5.3584,-5.2372,-5.0499,-4.881,-4.7249,-4.5882,-4.4203,-4.265,-4.1173,-3.8991,-3.8188,-3.8187,-3.8395,-3.8547,-3.9243,-4.2129,-4.3331,-4.4292,-4.734,-4.8667,-4.9309,-5.0434,-5.1487,-5.2239,-5.1698,-5.1516,-5.106,-4.9849,-4.8968,-4.7846,-4.6431,-4.4931,-4.3537,-4.2104,-4.1379,-4.045,-3.858,-3.7736,-3.6972,-3.5934,-3.5266,-3.4515,-3.3654,-3.2675,-3.1706,-3.0586,-2.9401,-2.8397,-2.7758,-2.69,-2.6015,-2.5157,-2.4708,-2.4113,-2.3389,-2.3299,-2.284,-2.1911,0.0,0.0,0.0,0.0,0.0,0.0,0.0,0.0,0.0,0.0,0.0,0.0,0.0,0.0,0.0,0.0,0.0,0.0,0.0,0.0,0.0,0.0,0.0,-6.2631,-6.1777,-6.11,-6.1472,-6.1081,-6.0316,-5.9018,-5.9993,-6.0427,-5.9974,-6.0194,-6.0156,-5.9843,-5.9611,-5.9455,-5.9455,-5.8786,-5.7897,-5.6779,-5.5974,-5.5523,-5.5058,-5.4183,-5.4663,-5.6362,-5.4759,-5.4723,-5.5805,-5.5133,-5.4429,-5.3757,-5.3725,-5.2731,-5.12,-5.0229,-4.8546,-4.6545,-4.5805,-4.443,-4.2668,-4.0836,-3.9732,-3.9292,-3.9962,-4.0687,-4.1617,-4.3633,-4.4463,-4.5338,-4.822,-4.8925,-4.9126,-5.0515,-5.1654,-5.2262,-5.1709,-5.1652,-5.1203,-4.9644,-4.8327,-4.7107,-4.5772,-4.4684,-4.3547,-4.2131,-4.0959,-3.969,-3.8351,-3.7564,0.0,-3.5738,-3.4905,-3.4147,-3.3471,-3.2626,-3.1847,-3.0851,-3.0122,-2.9238,-2.8226,-2.7546,-2.648,-2.5004,-2.4622,-2.4209,-2.3723,-2.3511,-2.2979,-2.209,0.0,0.0,0.0,0.0,0.0,0.0,0.0,0.0,0.0,0.0,0.0,0.0,0.0,0.0,0.0,0.0,0.0,0.0,0.0,0.0,0.0,-6.1495,-6.1931,-6.2149,-6.195,-6.1587,-6.1234,-6.0998,-6.0468,-5.9628,-5.9621,-5.9633,-5.9655,-5.9497,-5.9389,-5.9343,-5.9218,-5.8899,-5.8576,-5.8378,-5.81,-5.7821,-5.7266,-5.7004,-5.7086,-5.6344,-5.6316,-5.6916,-5.6392,-5.6135,-5.628,-5.5407,-5.4822,-5.4396,-5.3386,-5.2439,-5.1524,-5.0625,-4.9277,-4.7563,-4.6635,-4.4883,-4.2834,-4.2397,-4.1617,-4.0978,-4.1763,-4.2242,-4.2865,-4.4792,-4.5335,-4.58,-4.8291,-4.9074,-4.956,-5.0835,-5.1474,-5.1768,-5.1599,-5.1258,-5.0555,-4.9535,-4.8173,-4.6727,-4.5374,-4.3592,-4.2195,-4.191,-4.0959,-3.969,-3.806,-3.7217,-3.626,-3.5253,-3.4399,-3.3725,-3.324,-3.2481,-3.166,-3.0943,-3.0242,-2.9522,-2.8527,-2.7928,-2.7079,-2.5936,-2.5355,-2.465,-2.3854,-2.3962,-2.3841,0.0,0.0,0.0,0.0,0.0,0.0,0.0,0.0,0.0,0.0,0.0,0.0,0.0,0.0,0.0,0.0,0.0,0.0,0.0,0.0,0.0,0.0,-6.1836,-6.1836,-6.2104,-6.1852,-6.1609,-6.1462,-6.1193,-6.072,-6.007,-6.0392,-6.0492,-6.0285,-6.0173,-6.008,-6.0037,-5.9712,-5.9383,-5.9133,-5.9133,-5.8918,-5.8339,-5.8085,-5.8076,-5.8367,-5.7236,-5.7197,-5.7994,-5.6956,-5.6436,-5.6478,-5.5606,-5.5045,-5.4523,-5.3709,-5.2645,-5.1508,0.0,0.0,0.0,0.0,-4.5662,-4.4266,-4.4128,-4.3812,-4.3448,-4.3606,-4.4015,-4.4599,-4.5663,-4.6013,-4.6551,-4.8777,-4.9361,-4.9598,-5.089,-5.1359,-5.1493,-5.1297,-5.0882,-5.0283,-4.9542,-4.8162,-4.6723,-4.5434,-4.3514,0.0,-4.1702,-4.0666,-3.9222,-3.7597,-3.6883,-3.5922,-3.4487,-3.376,-3.324,-3.2723,-3.2167,-3.1466,-3.0644,-3.0162,0.0,0.0,0.0,-2.694,-2.573,-2.5081,0.0,0.0,0.0,-2.3996,-2.3794,0.0,0.0,0.0,-2.4503,-2.4847,0.0,0.0,0.0,0.0,0.0,0.0,0.0,0.0,0.0,0.0,0.0,0.0,0.0,0.0,0.0,0.0,-6.2188,-6.1569,-6.2057,-6.1533,-6.1305,-6.1823,-6.1488,-6.1002,-6.0566,-6.1567,-6.1958,-6.1231,-6.1367,-6.1399,-6.1086,-6.0666,0.0,0.0,0.0,-5.9707,-5.8626,-5.8626,-5.8687,-5.8972,-5.7427,-5.7539,-5.9128,-5.699,-5.6213,-5.6591,-5.5842,-5.5096,-5.4625,-5.4469,-5.319,-5.134,-5.0907,-5.001,-4.8923,-4.7452,-4.6572,-4.606,-4.5731,0.0,0.0,-4.5296,-4.5617,-4.6368,-4.6468,-4.6691,-4.7403,-4.9425,-4.9534,-4.9394,-5.0691,-5.1141,-5.1137,-5.0738,-5.0335,-4.9988,-4.9489,-4.8207,-4.6804,-4.5664,-4.3979,-4.2499,-4.1351,-4.009,-3.8708,-3.7117,-3.6584,-3.5704,-3.3709,-3.324,-3.281,-3.2113,0.0,0.0,-3.0326,-2.9945,-2.8958,-2.7059,-2.6733,-2.604,-2.4884,-2.4271,-2.3956,-2.3811,-2.3875,-2.3794,-2.357,-2.4052,-2.4449,-2.4636,-2.4756,-2.4836,0.0,0.0,0.0,0.0,0.0,0.0,0.0,0.0,0.0,0.0,0.0,0.0,0.0,0.0,0.0,-6.2053,-6.1955,-6.1636,-6.1016,-6.1086,-6.1248,-6.1325,-6.1165,-6.1078,-6.1084,-6.1071,-6.1115,-6.1197,-6.0625,-6.0423,-6.0769,-6.0378,-5.9946,-5.9508,-5.9508,-5.9355,-5.8959,-5.8659,-5.8754,-5.8972,-5.8264,0.0,-5.8401,-5.7744,-5.7464,-5.7246,-5.6373,-5.5907,-5.569,-5.4603,-5.3134,-5.1445,-4.9707,-4.8716,-4.8243,-4.7549,-4.6786,-4.6125,-4.6225,-4.6215,-4.6213,-4.6079,-4.6354,-4.6768,-4.7255,-4.734,0.0,-4.8862,-4.9486,-4.9768,-4.9675,-5.0348,-5.0679,-4.9266,-4.8811,-4.8587,-4.807,-4.6893,-4.5633,-4.4726,-4.3401,-4.1994,-4.0681,-3.9672,-3.8532,-3.7117,-3.6236,-3.5182,-3.3794,-3.3129,-3.2636,-3.24,-3.1937,-3.1359,-3.0617,-2.9954,-2.9007,-2.7633,-2.5894,-2.4892,-2.4914,-2.4067,-2.3673,-2.3805,-2.4179,-2.4347,-2.4278,-2.4766,-2.5168,-2.5615,-2.5231,-2.5249,0.0,0.0,0.0,0.0,0.0,0.0,0.0,0.0,0.0,0.0,0.0,-6.0052,-6.1043,0.0,-6.2781,-6.2848,-6.2415,-6.2023,-6.1958,-6.1562,-6.1185,-6.0936,-6.1361,-6.1639,-6.1371,-6.1484,-6.14,-6.114,-6.0572,-6.0238,-6.0206,-5.9859,-5.9596,-5.9331,-5.9241,-5.9062,-5.9004,-5.861,-5.8585,-5.8934,-5.8247,-5.7966,-5.8185,-5.7746,-5.7401,-5.7115,-5.6648,-5.6028,-5.5099,-5.3375,-5.225,-5.1362,-4.964,-4.8561,-4.7965,-4.784,-4.7148,-4.641,-4.6713,-4.7012,-4.722,-4.6977,-4.7383,-4.7962,-4.7781,-4.8225,-4.8908,-4.9757,-5.0025,-5.0047,-5.0129,-5.0058,-4.9715,-4.8711,-4.8206,-4.784,-4.7494,-4.6498,-4.535,-4.4496,-4.3364,-4.1996,-4.0378,-3.9239,-3.827,-3.709,-3.5974,-3.4786,-3.3487,-3.2871,-3.2376,-3.1937,-3.1584,-3.105,-3.0329,-2.8903,-2.7745,-2.6889,-2.5335,-2.4594,-2.4871,-2.4444,-2.4341,-2.4514,-2.466,-2.4851,-2.5016,-2.5168,-2.5506,-2.6087,-2.5805,-2.5913,0.0,0.0,0.0,0.0,0.0,0.0,0.0,-5.573,-5.6231,-5.8025,-5.9309,-6.0459,-6.1605,-6.238,-6.3026,-6.3583,-6.2858,-6.23,-6.2823,-6.202,-6.1218,-6.0808,-6.1668,-6.2096,-6.1664,-6.2009,-6.1904,-6.1202,-6.075,-6.0292,-5.9716,-5.9419,-5.9241,-5.9152,-5.8972,-5.8882,-5.8914,-5.8303,-5.831,-5.8688,-5.784,-5.7681,-5.7952,-5.7363,-5.7019,-5.6761,-5.6638,-5.5678,-5.4202,-5.2153,-5.1251,-5.1109,-4.977,-4.8638,-4.7877,-4.7838,-4.7349,-4.6652,-4.703,-4.7638,-4.8063,-4.7751,-4.8326,-4.9006,-4.8308,-4.8951,-4.9999,-5.045,-5.0326,-5.0123,-5.0278,-4.9758,-4.8893,-4.8272,-4.768,-4.7321,-4.7013,-4.6229,-4.5212,-4.4197,-4.3324,-4.2051,-4.0012,-3.8891,-3.793,-3.685,-3.566,-3.4452,-3.329,-3.2636,-3.2113,-3.1496,-3.105,-3.0441,-2.9534,-2.7608,-2.6296,-2.572,-2.4992,-2.476,-2.4997,-2.5081,-2.5167,-2.5338,-2.5168,-2.5211,-2.5549,-2.5441,-2.5606,-2.6215,-2.633,-2.6589,-5.48,-5.4621,-5.4736,-5.5661,-5.577,-5.6146,0.0,-5.8093,-5.8011,-5.9479,-5.9847,-6.0454,-6.1749,-6.2178,-6.2395,-6.2341,-6.232,-6.2082,-6.1387,-6.1581,-6.1593,-6.1223,-6.1401,-6.1775,-6.2256,-6.1837,-6.1417,-6.1119,-6.0496,-6.0066,-5.9716,-5.9419,-5.9152,-5.8701,-5.8395,-5.8335,-5.8367,-5.7871,-5.7715,-5.7997,-5.7621,-5.7432,-5.7208,-5.7146,-5.7019,-5.673,-5.5923,-5.5027,-5.414,-5.2123,-5.1164,-5.0886,-4.9522,-4.8369,-4.7523,-4.7299,-4.6933,-4.6652,-4.703,-4.7571,-4.8033,-4.8319,-4.8576,-4.8832,-4.8855,-4.8984,-4.9092,-4.9068,-4.9349,-4.9392,-4.8365,-4.8613,-4.8777,-4.6949,-4.6675,-4.6705,-4.6205,-4.5633,-4.4868,-4.3459,-4.3084,-4.2048,-3.9391,-3.8367,-3.7504,-3.6293,-3.5227,-3.4305,-3.3462,-3.2612,-3.1913,-3.1673,-3.0847,-2.9579,-2.7833,-2.6648,-2.5699,-2.5061,-2.4943,-2.5063,-2.548,-2.5701,-2.5811,-2.5828,-2.5828,-2.5615,-2.5295,-2.5592,-2.595,-2.6262,-2.6837,-2.7019,-5.5225,-5.5851,-5.6225,-5.6477,-5.6471,-5.6747,-5.7905,-5.7783,-5.7873,-5.917,-5.9739,-6.0345,-6.1235,-6.1676,-6.1975,-6.2217,-6.2302,-6.2199,-6.1817,-6.1902,-6.1761,-6.1559,-6.0998,-6.0952,-6.1723,-6.1499,-6.1086,-6.075,-6.0152,-5.9522,-5.8719,-5.8838,-5.86,-5.8037,-5.8022,-5.815,-5.8243,-5.7559,-5.7275,-5.7401,-5.7211,-5.7019,-5.6923,-5.6923,-5.6611,-5.5954,-5.48,-5.4005,-5.3434,-5.182,-5.1019,-5.0599,-4.9409,-4.8369,-4.7509,-4.7347,-4.6929,-4.6474,-4.6754,-4.7235,-4.7704,-4.8098,-4.8389,-4.8644,-4.8832,-4.926,-4.9627,-4.9472,-4.9516,-4.9391,-4.853,-4.8191,-4.7777,-4.6532,-4.6199,-4.5908,-4.5384,-4.4619,-4.3667,-4.2663,-4.196,-4.077,-3.8629,-3.7893,-3.7126,-3.5704,-3.4763,-3.4007,-3.324,-3.25,-3.1592,-3.0514,-2.978,-2.8768,-2.7064,-2.6455,-2.5914,-2.5529,-2.5459,-2.569,-2.614,-2.5967,-2.5929,-2.5913,-2.5826,-2.5633,-2.5335,-2.5826,-2.6103,-2.6197,-2.6671,-2.6681,-5.5548,-5.6608,-5.7358,-5.6931,-5.692,-5.721,-5.7516,-5.7425,-5.7551,-5.8605,-5.912,-5.9642,-6.0304,-6.0887,-6.1283,-6.1648,-6.1862,-6.1917,-6.1917,-6.1756,-6.1595,-6.1383,-6.0589,-6.0291,-6.0986,-6.0637,-6.0351,-6.0206,-5.961,-5.8815,-5.7828,-5.7936,-5.7815,-5.7248,-5.7428,-5.7589,-5.7835,-5.7276,-5.7019,-5.7084,-5.6954,-5.6761,-5.6761,-5.6577,-5.6015,-5.5237,-5.3875,-5.3144,-5.2789,-5.1243,-5.0512,-5.034,-4.9158,-4.8097,-4.7309,-4.7355,-4.6961,-4.6262,-4.6442,-4.686,-4.7337,-4.7704,-4.8033,-4.8356,-4.858,-4.9076,-4.9607,-4.9513,-4.9385,-4.9092,-4.8596,-4.783,-4.703,-4.6474,-4.5905,-4.5468,-4.5024,-4.4127,-4.3122,-4.2402,-4.141,-4.0118,-3.8365,-3.7746,-3.6959,-3.5493,-3.4647,-3.3979,-3.3129,-3.2152,-3.1039,-2.9598,-2.8902,-2.8077,-2.6955,-2.6498,-2.6238,-2.6104,-2.6144,-2.6356,-2.6785,-2.6504,-2.6246,-2.6119,-2.5727,-2.5493,-2.5192,-2.5603,-2.5655,-2.5563,-2.5933,-2.6099,-5.5592,-5.662,-5.7683,-5.6746,-5.7152,-5.784,-5.7559,-5.7464,-5.7653,-5.8119,-5.8211,-5.8446,-5.8885,-5.9512,-6.003,-6.0092,-6.0638,-6.1069,-6.1069,-6.0853,-6.0633,-6.0463,-6.0173,-5.9968,-6.0087,-5.921,-5.9026,-5.9652,-5.8599,-5.7828,-5.7592,-5.6924,-5.6486,-5.622,-5.6461,-5.6621,-5.6866,-5.6805,-5.6923,-5.7084,-5.6954,-5.6761,-5.673,-5.5892,-5.5298,-5.4916,-5.336,-5.2597,-5.2476,-5.0457,-4.9821,-4.9847,-4.8736,-4.764,-4.6683,-4.7076,-4.6736,-4.6112,-4.623,-4.6582,-4.6961,-4.727,-4.7571,-4.777,-4.8098,-4.8261,-4.8325,-4.8517,-4.8389,-4.8131,-4.7803,-4.747,-4.703,-4.6474,-4.608,-4.5677,-4.5278,-4.4723,-4.3976,-4.2848,-4.2,-4.08,-3.8925,-3.8224,-3.7362,-3.5872,-3.5141,-3.4288,-3.3129,-3.1625,-3.0397,-2.9555,-2.8455,-2.7722,-2.7688,-2.6799,-2.6388,-2.6683,-2.6858,-2.7091,-2.7274,-2.7233,-2.7087,-2.663,-2.59,-2.5178,-2.4504,-2.4545,-2.4456,-2.4187,-2.4735,-2.5172,-5.6957,-5.7648,-5.8215,-5.7901,-5.7899,-5.7834,-5.7399,-5.7456,-5.7576,-5.7273,-5.709,-5.7304,-5.8255,-5.8542,-5.9079,-6.0521,-6.0729,-6.0892,-6.1066,-6.0805,-6.0467,-5.9716,-5.9176,-5.8991,-5.9298,-5.9194,-5.925,-5.9684,-5.8421,-5.7682,-5.7592,-5.6657,-5.5978,-5.5889,-5.6123,-5.628,-5.6373,-5.6584,-5.6858,-5.6923,-5.6858,-5.63,-5.5438,-5.5272,-5.4587,-5.3641,-5.2683,-5.2042,-5.1533,-5.0155,-4.9702,-4.9816,-4.8736,-4.7722,-4.6841,-4.6967,-4.6434,-4.575,-4.608,-4.6333,-4.6545,-4.6791,-4.6997,-4.7235,-4.7538,-4.777,-4.7803,-4.7371,-4.7505,-4.7638,-4.6714,-4.6604,-4.6684,-4.6294,-4.5792,-4.5227,-4.4464,-4.3482,-4.247,-4.14,-4.0367,-3.932,-3.8275,-3.7756,-3.6995,-3.5494,-3.4481,-3.3471,-3.2264,-3.1407,-3.0395,-2.915,-2.8634,-2.8099,-2.7298,-2.7084,-2.7017,-2.7131,-2.7323,-2.7445,-2.7296,-2.6579,-2.59,-2.539,-2.4766,-2.4196,-2.3789,-2.4082,-2.4263,-2.4275,-2.4429,-2.4717,-5.7832,-5.8215,-5.8319,-5.7973,-5.7912,-5.7629,-5.6884,-5.6972,-5.7027,-5.6419,-5.6213,-5.6342,-5.6963,-5.7014,-5.7618,-5.9427,-5.9813,-6.0007,-6.0275,-6.0322,-6.0045,-5.9126,-5.8556,-5.8403,-5.885,-5.8659,-5.8678,-5.8888,-5.7803,-5.7026,-5.6683,-5.5721,-5.5165,-5.5077,-5.5374,-5.5658,-5.5907,-5.6213,-5.6392,-5.6361,-5.6146,-5.5592,-5.4573,-5.4379,-5.3793,-5.2786,-5.2137,-5.1468,-5.078,-4.9975,-4.9312,-4.8887,-4.8384,-4.7405,-4.6265,-4.6669,-4.6129,-4.5352,-4.5646,-4.5936,-4.612,-4.6191,-4.6404,-4.662,-4.6637,-4.6776,-4.6846,-4.616,-4.6291,-4.6552,-4.5856,-4.5874,-4.6013,-4.6017,-4.5342,-4.4588,-4.3944,-4.2812,-4.1789,-4.0965,-3.9966,-3.9076,-3.8522,-3.7739,-3.6744,-3.5548,-3.4481,-3.3386,-3.2089,-3.1407,-3.0574,-2.9421,-2.897,-2.8544,-2.7918,-2.7765,-2.7697,-2.7731,-2.757,-2.736,-2.6952,-2.5931,-2.5077,-2.4526,-2.3913,-2.3429,-2.3138,-2.3515,-2.3782,-2.3881,-2.3937,-2.4239,-5.8105,-5.8288,-5.8034,-5.7102,-5.7051,-5.7098,-5.613,-5.6009,-5.5827,-5.542,-5.5363,-5.5245,-5.5008,-5.5285,-5.59,-5.6924,-5.7892,-5.8673,-5.8946,-5.937,-5.9344,-5.8582,-5.8272,-5.824,-5.8455,-5.767,-5.7259,-5.7407,-5.6683,-5.5841,-5.5209,-5.4482,-5.3962,-5.3852,-5.4184,-5.475,-5.5468,-5.5658,-5.5684,-5.5622,-5.5007,-5.4606,-5.4232,-5.3371,-5.2849,-5.2476,-5.1593,-5.084,-5.0182,-4.9794,-4.8653,-4.7396,-4.7794,-4.675,-4.513,-4.6199,-4.5897,-4.4949,-4.5129,-4.5426,-4.5719,-4.5541,-4.576,-4.5992,-4.5432,-4.5447,-4.5423,-4.4851,-4.4723,-4.4851,-4.5359,-4.5277,-4.5119,-4.5634,-4.4851,-4.3809,-4.3599,-4.2707,-4.1849,-4.164,-4.0756,-3.9965,-3.9484,-3.815,-3.6744,-3.5816,-3.5196,-3.4204,-3.2612,-3.156,-3.0758,-3.0306,-2.9443,-2.9105,-2.9441,-2.8856,-2.8387,-2.8387,-2.7731,-2.6971,-2.6277,-2.5331,-2.4487,-2.4025,-2.3347,-2.2957,-2.2702,-2.2866,-2.2975,-2.3032,-2.3261,-2.3673,-5.7557,-5.7798,-5.7918,-5.6642,-5.6805,-5.6762,-5.5418,-5.5436,-5.5466,-5.4231,-5.4162,-5.4345,-5.4066,-5.4721,-5.5842,-5.7215,-5.7902,-5.8466,-5.8908,-5.8908,-5.8593,-5.784,-5.7307,-5.6994,-5.727,-5.6549,-5.6041,-5.5803,-5.5493,-5.5557,-5.5904,-5.4386,-5.3803,-5.4215,-5.3985,-5.4236,-5.4916,-5.547,-5.5438,-5.4976,-5.4822,-5.4114,-5.3161,-5.3038,-5.273,-5.2152,-5.1476,-5.084,-5.0182,-4.9614,-4.8653,-4.7568,-4.7624,-4.6667,-4.5288,-4.6119,-4.5741,-4.4874,-4.4799,-4.5055,-4.5352,-4.5278,-4.5426,-4.5561,-4.5009,-4.4999,-4.4883,-4.3706,-4.3805,-4.4186,-4.4034,-4.4267,-4.4724,-4.5269,-4.4631,-4.3685,-4.3013,-4.2004,-4.1031,-4.0372,-3.9768,-3.921,-3.8614,-3.8092,-3.7337,-3.6294,-3.5602,-3.4564,-3.2871,-3.2089,-3.1448,-3.0758,-3.0191,-2.9806,-2.9783,-2.8947,-2.8296,-2.8116,-2.7248,-2.6472,-2.5715,-2.4666,-2.3855,-2.3309,-2.255,-2.2133,-2.241,-2.241,-2.2815,-2.333,-2.3441,-2.3551,-5.7719,-5.7732,-5.7446,-5.6196,-5.5989,-5.5693,-5.398,-5.398,-5.3965,-5.2469,-5.2712,-5.304,-5.2778,-5.3345,-5.4466,-5.6019,-5.6704,-5.717,-5.7803,-5.8145,-5.8018,-5.7273,-5.6684,-5.6373,-5.6466,-5.5652,-5.5113,-5.4794,-5.4939,-5.5177,-5.5272,-5.4253,-5.3828,-5.3939,-5.4103,-5.4543,-5.5348,-5.541,-5.5193,-5.473,-5.4114,-5.3346,-5.2367,-5.2489,-5.2243,-5.1602,-5.1323,-5.069,-4.9945,-4.9674,-4.8648,-4.7202,-4.7673,-4.6985,-4.5685,-4.6162,-4.5848,-4.5125,-4.474,-4.4754,-4.4905,-4.4905,-4.5024,-4.5059,-4.4131,-4.4032,-4.3889,-4.2532,-4.2406,-4.2716,-4.2793,-4.3028,-4.3457,-4.3925,-4.3437,-4.2674,-4.1912,-4.1157,-4.0364,-3.9828,-3.9409,-3.9017,-3.8723,-3.8352,-3.772,-3.6872,-3.6163,-3.5277,-3.3784,-3.2871,-3.2001,-3.1294,-3.0937,-3.0578,-3.0239,-2.9308,-2.8478,-2.8099,-2.6928,-2.5946,-2.5118,-2.4078,-2.3229,-2.2711,-2.2039,-2.1933,-2.2337,-2.2594,-2.3111,-2.3643,-2.3643,-2.3639,-5.8001,-5.7753,-5.6866,-5.5503,-5.4973,-5.4216,-5.252,-5.2174,-5.1873,-5.073,-5.122,-5.1683,-5.1346,-5.1736,-5.2695,-5.4127,-5.4916,-5.5577,-5.6414,-5.7156,-5.7279,-5.6572,-5.6087,-5.5813,-5.5814,-5.4849,-5.4193,-5.4251,-5.4637,-5.4648,-5.4049,-5.4017,-5.3789,-5.3445,-5.4272,-5.5121,-5.5937,-5.5194,-5.4792,-5.4576,-5.3314,-5.2397,-5.1942,-5.2033,-5.1727,-5.1173,-5.1173,-5.0575,-4.9702,-4.9789,-4.852,-4.6743,-4.7859,-4.7333,-4.592,-4.6173,-4.6015,-4.5495,-4.4818,-4.4633,-4.4695,-4.4603,-4.4723,-4.4626,-4.3355,-4.2962,-4.2794,-4.1517,-4.1112,-4.1205,-4.1859,-4.1806,-4.1851,-4.2386,-4.2007,-4.1342,-4.0716,-4.0202,-3.9819,-3.9666,-3.9409,-3.9192,-3.9265,-3.8723,-3.7976,-3.7366,-3.6716,-3.5896,-3.495,-3.3641,-3.2612,-3.1937,-3.1584,-3.1205,-3.0758,-2.9688,-2.8743,-2.8051,-2.6628,-2.5356,-2.4509,-2.356,-2.2794,-2.2195,-2.1928,-2.197,-2.2428,-2.3038,-2.3522,-2.3836,-2.3836,-2.3809,-5.6822,-5.6868,-5.6416,-5.4414,-5.368,-5.3143,-5.1754,-5.0889,-5.0323,-4.9762,-5.0309,-5.0832,-5.0173,-5.1081,-5.2269,-5.303,-5.3803,-5.4699,-5.5659,-5.607,-5.6085,-5.5414,-5.4744,-5.4293,-5.4114,-5.3435,-5.3152,-5.3565,-5.3653,-5.3678,-5.3552,-5.3321,-5.3423,-5.362,-5.4016,-5.445,-5.4977,-5.4329,-5.3899,-5.3899,-5.3098,-5.2211,-5.1422,-5.1971,-5.185,-5.1061,-5.1061,-5.0637,-4.988,-4.9391,-4.8298,-4.7023,-4.7775,-4.6976,-4.552,-4.607,-4.6015,-4.5495,-4.4818,-4.4941,-4.5311,-4.4756,-4.4648,-4.4493,-4.384,-4.3262,-4.2674,-4.1868,-4.1179,-4.0763,-4.13,-4.127,-4.1309,-4.198,-4.1541,-4.0933,-4.0284,-3.9506,-3.9033,-3.9361,-3.9409,-3.9265,-3.8943,-3.8501,-3.7976,-3.7366,-3.6587,-3.5871,-3.5304,-3.423,-3.3386,-3.2896,-3.2113,-3.1472,-3.1205,-2.9542,-2.8271,-2.7832,-2.6217,-2.504,-2.4292,-2.3493,-2.2882,-2.2353,-2.2176,-2.2279,-2.285,-2.3111,-2.3352,-2.3547,-2.3547,-2.34,-5.5926,-5.5906,-5.5509,-5.3585,-5.2575,-5.157,-5.0098,-4.9269,-4.8659,-4.8124,-4.8902,-4.9473,-4.8722,-4.9795,-5.0946,-5.1317,-5.2014,-5.2991,-5.4141,-5.4428,-5.4405,-5.4104,-5.3663,-5.3338,-5.3097,-5.2673,-5.2427,-5.2846,-5.2846,-5.3024,-5.3377,-5.3575,-5.4078,-5.5132,-5.4699,-5.4761,-5.541,-5.4329,-5.3714,-5.3714,-5.3037,-5.2365,-5.1667,-5.2063,-5.1759,-5.0789,-5.091,-5.0423,-4.9452,-4.9235,-4.8505,-4.7593,-4.8065,-4.7476,-4.6314,-4.6444,-4.6094,-4.5495,-4.4818,-4.4787,-4.5003,-4.4664,-4.4572,-4.4524,-4.392,-4.3241,-4.2592,-4.1882,-4.1063,-4.0493,-4.0729,-4.0609,-4.0557,-4.0716,-4.0565,-4.0232,-3.9899,-3.9597,-3.9405,-3.9565,-3.9553,-3.9481,-3.9162,-3.8649,-3.8202,-3.7672,-3.69,-3.6191,-3.579,-3.4868,-3.3894,-3.3129,-3.2463,-3.1728,-3.0826,-2.9398,-2.8264,-2.7389,-2.6022,-2.4871,-2.4206,-2.358,-2.3057,-2.2618,-2.2353,-2.2565,-2.3185,-2.3185,-2.3299,-2.3597,-2.3298,-2.2923,-5.5023,-5.4913,-5.4317,-5.2903,-5.1594,-5.0243,-4.8627,-4.7893,-4.7401,-4.6851,-4.7543,-4.8089,-4.7744,-4.8638,-4.9581,-4.9999,-5.0719,-5.163,-5.2821,-5.3098,-5.3196,-5.2897,-5.2833,-5.2661,-5.2322,-5.212,-5.2063,-5.2306,-5.2306,-5.2639,-5.3419,-5.3734,-5.4603,-5.6062,-5.5008,-5.47,-5.5565,-5.4206,-5.3437,-5.3283,-5.2639,-5.2152,-5.1577,-5.1698,-5.1333,-5.0366,-5.0516,-4.9968,-4.8966,-4.895,-4.8584,-4.8133,-4.8285,-4.7907,-4.7099,-4.6708,-4.6172,-4.5495,-4.4894,-4.474,-4.4756,-4.4709,-4.4648,-4.4449,-4.3771,-4.3051,-4.2375,-4.1628,-4.0882,-4.0191,-4.0191,-3.998,-3.9869,-3.9696,-3.9647,-3.9586,-3.9666,-3.9788,-3.9829,-3.9666,-3.9696,-3.9625,-3.9337,-3.8826,-3.8277,-3.7901,-3.7134,-3.648,-3.5946,-3.5035,-3.4079,-3.2946,-3.2475,-3.1723,-3.0304,-2.9183,-2.8145,-2.7078,-2.5892,-2.4956,-2.4292,-2.3754,-2.3319,-2.2969,-2.2706,-2.2828,-2.3409,-2.3248,-2.3309,-2.354,-2.2943,-2.2594,-5.4059,-5.4064,-5.3472,-5.2152,-5.0953,-4.9824,-4.8627,-4.7568,-4.6867,-4.6564,-4.6796,-4.7136,-4.7643,-4.8004,-4.8635,-4.9652,-5.076,-5.1829,-5.2417,-5.3018,-5.3059,-5.207,-5.1958,-5.1786,-5.1379,-5.1539,-5.1849,-5.2306,-5.2306,-5.2672,-5.3591,-5.3369,-5.3709,-5.4885,-5.3833,-5.3492,-5.3899,-5.316,-5.2513,-5.1898,-5.1598,-5.0995,-5.018,-5.0239,-5.0031,-4.9673,-4.9334,-4.9088,-4.8961,-4.7912,-4.7812,-4.824,-4.7845,-4.7281,-4.6696,-4.6634,-4.6172,-4.5573,-4.5046,-4.5125,-4.548,-4.4984,-4.4723,-4.4449,-4.3547,-4.2873,-4.2126,-4.134,-4.0425,-3.9768,-3.9768,-3.9625,-3.9481,-3.9696,-3.9385,-3.9182,-3.9647,-3.9495,-3.9291,-3.9433,-3.9553,-3.9523,-3.8943,-3.8501,-3.8052,-3.7701,-3.6929,-3.6184,-3.537,-3.434,-3.3268,-3.2184,-3.2014,-3.1417,-3.0206,-2.8902,-2.7736,-2.7056,-2.5892,-2.4956,-2.4444,-2.3841,-2.3493,-2.3426,-2.3144,-2.3163,-2.3409,-2.359,-2.3429,-2.3104,-2.2793,-2.2721,-5.2603,-5.2653,-5.2218,-5.1041,-4.9603,-4.8239,-4.7442,-4.6402,-4.5552,-4.5421,-4.5795,-4.6137,-4.638,-4.6806,-4.741,-4.8311,-4.9223,-5.0025,-5.0847,-5.1278,-5.1346,-5.1039,-5.098,-5.1054,-5.0947,-5.1105,-5.1293,-5.1849,-5.2063,-5.2521,-5.3377,-5.3346,-5.3653,-5.4699,-5.3898,-5.3343,-5.3129,-5.2452,-5.1775,-5.1097,-5.0804,-5.0476,-4.9998,-5.0144,-4.9725,-4.898,-4.9261,-4.9011,-4.8414,-4.8201,-4.814,-4.8271,-4.8245,-4.7639,-4.6762,-4.6683,-4.6082,-4.5277,-4.4892,-4.4909,-4.517,-4.4816,-4.437,-4.3925,-4.3574,-4.2947,-4.2126,-4.1382,-4.0294,-3.9264,-3.9094,-3.8652,-3.8422,-3.9301,-3.9184,-3.8952,-3.9546,-3.9698,-3.9646,-3.9565,-3.9553,-3.9409,-3.887,-3.8352,-3.7901,-3.7443,-3.6515,-3.5664,-3.5104,-3.4097,-3.283,-3.1345,-3.121,-3.0793,-2.957,-2.8561,-2.7554,-2.659,-2.5719,-2.4956,-2.455,-2.412,-2.3947,-2.3947,-2.3667,-2.366,-2.3839,-2.3663,-2.3398,-2.3044,-2.2866,-2.2688,-5.1017,-5.089,-5.0586,-4.9791,-4.839,-4.7064,-4.6491,-4.5578,-4.4931,-4.4774,-4.5154,-4.5582,-4.5678,-4.6052,-4.6709,-4.7516,-4.8167,-4.8981,-4.9824,-5.0038,-5.0194,-5.0309,-5.0405,-5.0471,-5.0728,-5.0917,-5.1199,-5.1479,-5.1695,-5.2184,-5.2794,-5.2825,-5.3254,-5.4114,-5.3468,-5.279,-5.2113,-5.1652,-5.1067,-5.0389,-5.01,-4.9927,-4.9782,-4.9626,-4.9296,-4.8706,-4.9042,-4.876,-4.8019,-4.8171,-4.8285,-4.8271,-4.8306,-4.77,-4.6841,-4.6683,-4.5897,-4.4949,-4.4507,-4.4445,-4.4458,-4.4123,-4.3648,-4.3174,-4.2886,-4.2414,-4.1851,-4.1107,-4.003,-3.8879,-3.853,-3.8039,-3.7841,-3.9053,-3.9033,-3.8952,-3.9617,-3.991,-3.994,-3.9625,-3.9481,-3.9265,-3.8723,-3.8202,-3.7615,-3.7062,-3.6025,-3.5096,-3.4353,-3.3218,-3.1937,-3.0517,-3.008,-2.956,-2.8674,-2.8,-2.725,-2.6467,-2.5779,-2.5295,-2.4956,-2.4615,-2.4444,-2.4444,-2.4272,-2.4186,-2.4292,-2.3947,-2.3667,-2.3319,-2.3057,-2.2871,-4.9308,-4.8892,-4.8266,-4.8505,-4.7728,-4.6694,-4.6124,-4.5779,-4.5401,-4.4853,-4.5154,-4.5715,-4.5901,-4.6218,-4.6637,-4.7596,-4.8406,-4.9161,-4.9658,-5.0051,-5.0196,-5.0174,-5.0086,-5.0183,-5.0501,-5.1135,-5.1479,-5.1229,-5.1479,-5.1602,-5.1602,-5.191,-5.2185,-5.2729,-5.2082,-5.1405,-5.0728,-5.0697,-5.0359,-4.9682,-4.9396,-4.931,-4.9255,-4.8384,-4.8359,-4.8966,-4.8268,-4.7964,-4.7988,-4.7485,-4.769,-4.821,-4.7784,-4.7188,-4.6603,-4.6603,-4.5741,-4.4555,-4.4056,-4.3766,-4.3464,-4.2859,-4.2498,-4.2157,-4.1298,-4.1157,-4.1148,-4.0264,-3.9525,-3.8857,-3.8091,-3.7879,-3.8129,-3.9001,-3.9116,-3.9191,-3.9859,-4.0011,-3.9839,-3.9235,-3.9265,-3.9119,-3.8352,-3.7825,-3.7244,-3.624,-3.5438,-3.4407,-3.3014,-3.1566,-3.039,-2.9599,-2.8473,-2.7779,-2.7705,-2.7105,-2.676,-2.6857,-2.6218,-2.5906,-2.5906,-2.5211,-2.502,-2.5189,-2.502,-2.4786,-2.455,-2.4444,-2.4272,-2.3754,-2.358,-2.3467,-4.7081,-4.7092,-4.7013,-4.6627,-4.5782,-4.5093,-4.4914,-4.4403,-4.4156,-4.4386,-4.4882,-4.5538,-4.6152,-4.6352,-4.6786,-4.7837,-4.8415,-4.8817,-4.9161,-4.9608,-4.9796,-4.9363,-4.9571,-4.999,-5.0501,-5.0852,-5.1105,-5.1229,-5.1323,-5.1206,-5.0939,-5.1213,-5.1484,-5.1723,-5.1717,-5.1159,-5.002,-5.002,-4.9651,-4.8943,-4.8691,-4.8607,-4.8607,-4.8309,-4.8255,-4.8268,-4.8393,-4.8301,-4.8187,-4.8223,-4.8337,-4.846,-4.7865,-4.7269,-4.6779,-4.6158,-4.5263,-4.4351,-4.3871,-4.3499,-4.3211,-4.2705,-4.2294,-4.172,-4.1362,-4.1127,-4.0792,-3.9177,-3.8196,-3.7582,-3.7471,-3.7344,-3.7582,-3.8774,-3.891,-3.9022,-3.9859,-3.9696,-3.9337,-3.9337,-3.887,-3.8501,-3.8277,-3.7404,-3.6609,-3.6003,-3.4748,-3.3397,-3.2165,-3.1008,-2.9788,-2.8569,-2.7931,-2.7626,-2.758,-2.7257,-2.705,-2.6999,-2.6219,-2.5969,-2.6279,-2.5169,-2.4962,-2.5841,-2.4984,-2.4669,-2.4992,-2.4506,-2.4177,-2.399,-2.4108,-2.414,-4.5365,-4.5422,-4.5365,-4.5463,-4.4675,-4.3929,-4.3929,-4.3588,-4.3447,-4.4029,-4.4694,-4.5434,-4.623,-4.6494,-4.6941,-4.8083,-4.8239,-4.8486,-4.893,-4.9218,-4.9237,-4.9037,-4.9404,-4.9892,-5.0309,-5.0632,-5.0917,-5.1011,-5.1105,-5.1023,-5.0455,-5.0789,-5.0847,-5.0388,-5.0769,-5.042,-4.9281,-4.9281,-4.9066,-4.8604,-4.8438,-4.8355,-4.8355,-4.8355,-4.8355,-4.8218,-4.8438,-4.8521,0.0,-4.8521,-4.845,-4.8173,-4.7773,-4.7114,-4.6298,-4.5619,-4.4812,-4.4008,-4.319,-4.2757,-4.2426,-4.1894,-4.1413,-4.1005,-4.0974,-4.0649,-3.9999,-3.8402,-3.7571,-3.7201,-3.7299,-3.7235,-3.7506,-3.8879,-3.9009,-3.9022,-3.9859,-3.9553,-3.9192,-3.9192,-3.8797,-3.8352,-3.8052,-3.7006,-3.6071,-3.544,-3.4128,-3.2678,-3.1402,-3.0428,-2.936,-2.8099,-2.7582,-2.7475,-2.7601,-2.7456,-2.7311,-2.7316,-2.6688,-2.6428,-2.6725,-2.5756,-2.5472,-2.6237,-2.5753,-2.5525,-2.5672,-2.506,-2.4755,-2.4785,-2.5062,-2.5084,0.0,-4.3804,-4.3584,-4.4649,-4.4116,-4.3308,-4.3308,-4.3137,0.0,-4.3689,-4.452,-4.5374,-4.6169,-4.6612,-4.7198,-4.8026,-4.7947,-4.8071,-4.8778,-4.8629,-4.871,-4.9207,-4.9502,-4.9766,-5.0086,-5.0537,-5.0793,-5.0733,-5.1046,-5.084,-5.0122,-5.0578,-5.0272,-4.8966,-4.9365,-4.9281,-4.8635,-4.8604,-4.8604,-4.8604,-4.8604,-4.8604,-4.8604,-4.8604,-4.8604,-4.8604,-4.8604,-4.8604,-4.8604,-4.8604,-4.8204,-4.7588,-4.7558,-4.6726,-4.5495,-4.5046,-4.426,-4.3383,-4.22,-4.1666,-4.1432,-4.0546,-4.0222,-4.0051,-4.0231,-3.9711,-3.8886,-3.792,-3.7584,-3.7523,-3.7554,-3.7615,-3.7954,-3.9216,-3.9314,-3.9252,-3.9859,-3.9625,-3.9265,-3.887,-3.8797,-3.8472,-3.7691,-3.6722,-3.5695,-3.4602,-3.3472,-3.2213,-3.0788,-2.9821,-2.8917,-2.8179,-2.7456,-2.7284,-2.7824,-2.7698,-2.758,-2.771,-2.7323,-2.7089,-2.7089,-2.6628,-2.6391,-2.6461,-2.6921,-2.6907,-2.6498,-2.6152,-2.5924,-2.5924,-2.6196,-2.603,-4.0616,0.0,-4.2384,-4.2438,-4.24,-4.2421,0.0,-4.2298,-4.2598,-4.3373,-4.4166,-4.5081,-4.5846,-4.6668,-4.7372,-4.8047,-4.8305,-4.8435,-4.8408,-4.8083,-4.8207,-4.8909,-4.9108,-4.9375,-4.999,-5.0375,-5.0455,-5.0139,-5.0451,-5.0155,-4.8805,-4.9364,-4.9261,-4.8238,-4.863,-4.8789,-4.8604,-4.8604,-4.8604,-4.8604,-4.8604,-4.8604,-4.8604,-4.8604,-4.8718,-4.8914,-4.8718,-4.8769,-4.9128,-4.8769,-4.8317,-4.7831,-4.7145,-4.6326,-4.5434,-4.4339,-4.3519,-4.2881,-4.1934,-4.1357,-4.0962,-4.0601,-4.0331,-4.017,-3.9787,-3.9143,-3.8488,-3.8903,-3.8292,-3.7615,-3.8138,-3.8662,-3.9057,-3.9198,-3.9512,-3.9728,-3.9737,-3.9481,-3.909,-3.887,-3.8397,-3.7878,-3.7071,-3.607,-3.4938,-3.3484,-3.2434,-3.1232,-2.9793,-2.9114,-2.8591,-2.7919,-2.7602,-2.7442,-2.7598,-2.7972,-2.8172,-2.8002,-2.7606,-2.7357,-2.7306,-2.6212,-2.5967,-2.6928,-2.6665,-2.6426,-2.6216,-2.6291,-2.6393,-2.6416,-2.692,-2.7021,-3.8863,-4.017,-4.1546,-4.1681,-4.1638,-4.1704,-4.1947,-4.172,-4.1825,-4.2979,-4.3921,-4.4936,-4.5725,-4.6733,-4.7574,-4.8146,-4.8505,-4.8595,-4.8379,-4.8221,-4.821,-4.8638,-4.881,-4.8993,-4.9262,-4.9647,-4.9669,-4.9301,-4.997,-4.9854,-4.8533,-4.927,-4.9225,-4.8164,-4.8469,-4.8604,-4.8604,-4.8604,-4.8604,-4.8604,-4.8604,-4.8635,-4.88,-4.88,-4.8883,-4.9128,-4.8655,-4.8767,-4.9097,-4.8202,-4.7657,-4.7256,-4.6498,-4.5526,-4.4617,-4.3716,-4.2881,-4.216,-4.155,-4.1055,-4.0646,-4.0539,-4.047,-4.0278,-3.9671,-3.9031,-3.8508,-3.8569,-3.7895,-3.7247,-3.7861,-3.8473,-3.899,-3.9296,-3.9459,-3.9525,-3.9495,-3.8903,-3.834,-3.8098,-3.7623,-3.7069,-3.6356,-3.5192,-3.3984,-3.3028,-3.1958,-3.0774,-2.9604,-2.9268,-2.8919,-2.8237,-2.8052,-2.8093,-2.8225,-2.8585,-2.8575,-2.8221,-2.7767,-2.7551,-2.7623,-2.6692,-2.6576,-2.7434,-2.7061,-2.6956,-2.7143,-2.7174,-2.7356,-2.7727,-2.8171,-2.8291,-3.7959,-3.9223,-4.07,-4.1153,-4.1142,-4.1177,-4.1705,-4.1287,-4.1217,-4.2585,-4.3689,-4.4794,-4.5481,-4.6678,-4.7703,-4.7964,-4.8171,-4.8379,-4.8475,-4.8486,-4.849,-4.8566,-4.8696,-4.8636,-4.848,-4.8814,-4.8899,-4.8555,-4.958,-4.9794,-4.8829,-4.9809,-4.9824,-4.8485,-4.8706,-4.8727,-4.8604,-4.8635,-4.8635,-4.8604,-4.8635,-4.88,-4.8996,-4.8996,-4.9015,-4.9103,-4.8542,0.0,-4.8674,-4.7463,-4.6779,-4.6467,-4.5881,-4.4833,-4.3538,-4.3055,-4.2271,-4.141,-4.0976,-4.0721,-4.0539,-4.0539,-4.0447,-4.0262,-3.9708,-3.9133,-3.8521,-3.7805,-3.7218,-3.7002,-3.7679,-3.8073,-3.8463,-3.9204,-3.9123,-3.8827,-3.8933,-3.8304,-3.7571,-3.7129,-3.681,-3.6428,-3.5712,-3.4314,-3.3213,-3.2877,-3.1694,-3.0549,-2.9811,-2.9663,-2.947,-2.8848,-2.8729,-2.879,-2.9146,-2.9134,-2.8933,-2.8433,-2.7988,-2.771,-2.7816,-2.7468,-2.7465,-2.7826,-2.7606,-2.7804,-2.8472,-2.8295,-2.8565,-2.9316,-2.9496,-2.9419,-3.6922,-3.82,-3.9376,-3.9674,-4.0021,-4.0597,-4.1377,-4.116,-4.099,-4.2287,-4.3174,-4.3943,-4.4419,-4.586,-4.69,-4.7044,-4.7054,-4.742,-4.8138,-4.7878,-4.781,-4.871,-4.8395,-4.8344,-4.8931,-4.8717,-4.8643,-4.883,-4.9554,-4.9882,-4.9462,-5.0171,-5.0156,-4.9157,-4.9412,-4.922,-4.8635,-4.88,-4.88,-4.8604,-4.88,-4.8996,-4.8996,-4.8718,-4.8573,-4.8448,0.0,-4.7933,-4.7808,-4.7325,-4.6811,-4.6251,-4.5928,-4.4984,-4.3623,-4.2345,-4.1449,-4.0808,-4.0059,-4.0047,-4.0539,-4.0539,-4.0139,-3.9677,-3.972,-3.8989,-3.8091,-3.7934,-3.7747,-3.7807,-3.9106,-3.8943,-3.853,-3.9001,-3.8622,-3.8091,-3.7759,-3.7563,-3.7336,-3.702,-3.674,-3.6283,-3.5379,-3.4269,-3.3168,-3.2093,-3.1106,-3.0303,-2.9687,-2.9631,-2.9575,-2.9491,-2.9176,-2.9049,-2.9259,-2.9004,-2.894,-2.9132,-2.8879,-2.8422,-2.7788,-2.7721,-2.778,-2.8004,-2.7934,-2.8375,-2.92,-2.9025,-2.9303,-3.0088,-3.019,-3.0114,-3.5613,-3.6732,-3.8003,-3.8382,-3.9591,-4.0924,-4.1518,-4.1401,-4.154,-4.2866,-4.3394,-4.39,-4.4693,-4.5641,-4.6544,-4.7442,-4.7466,-4.7601,-4.8273,-4.802,-4.7958,-4.8638,-4.8524,-4.8505,-4.8864,-4.8828,-4.8879,-4.9103,-4.9855,-5.0273,-4.9968,-5.0774,-5.0913,-5.029,-4.9866,-4.9612,-4.9491,-4.9151,-4.8914,-4.8604,-4.8718,-4.8883,-4.9128,-4.8674,-4.8493,-4.8545,0.0,-4.7401,-4.7509,-4.6528,-4.6171,-4.6109,-4.5135,-4.4192,-4.3035,-4.1194,-4.0399,-4.0329,-3.9818,-4.0023,-4.0539,-4.0677,-4.0393,-3.9924,-3.9415,-3.8929,-3.8529,-3.7778,-3.7497,-3.7499,-3.7963,-3.8052,-3.7981,-3.8157,-3.7842,-3.7562,-3.7496,-3.6995,-3.6556,-3.629,-3.5955,-3.5341,-3.4332,-3.3456,-3.2511,-3.1496,-3.0785,-3.0301,-2.9893,-3.005,-3.0083,-2.996,-2.9837,-2.9775,-2.9747,-2.9498,-2.931,-2.9212,-2.9141,-2.8882,-2.8352,-2.8352,-2.829,-2.8158,-2.8158,-2.867,-2.9757,-2.9542,-3.0059,-3.1294,-3.1123,-3.1048,-3.4652,-3.5671,-3.6904,-3.7339,-3.9059,-4.0894,-4.1485,-4.1518,-4.1686,-4.3165,-4.3546,-4.388,-4.5017,-4.5691,-4.634,-4.7587,-4.7712,-4.7755,-4.8219,-4.8263,-4.8395,-4.8566,-4.8766,-4.8873,-4.8864,-4.8828,-4.9031,-4.9523,-5.0065,-5.0456,-5.0689,-5.1322,-5.1374,-5.0925,-5.0105,-4.9758,-4.9905,-4.9244,-4.88,-4.8718,-4.8687,-4.8872,-4.9041,-4.8511,-4.8341,-4.8275,-4.7202,-4.6843,-4.6975,-4.579,-4.5497,-4.5684,-4.4402,-4.3211,-4.2,-3.9941,-3.9361,-3.9523,-3.9613,-3.991,-4.043,-4.0566,-4.0375,-3.9967,-3.8989,-3.8684,-3.8529,-3.7553,-3.727,-3.7241,-3.7033,-3.7125,-3.7307,-3.7397,-3.7146,-3.696,-3.7118,-3.6529,-3.591,-3.5752,-3.518,-3.4456,-3.3696,-3.2745,-3.1887,-3.13,-3.0675,-3.0216,-3.0125,-3.0364,-3.0454,-3.0276,-3.036,-3.0387,-3.0266,-3.0115,-2.9898,-2.9588,-2.9435,-2.931,-2.9058,-2.8994,-2.8867,-2.8546,-2.861,-2.9209,-3.0364,-3.0158,-3.0821,-3.2273,-3.1936,-3.189,-3.4528,-3.5385,-3.5903,-3.7113,-3.8135,-3.9219,-4.0987,-4.0894,-4.1041,-4.2756,-4.3192,-4.3476,-4.4372,-4.5515,-4.6339,-4.6539,-4.7017,-4.737,-4.7433,-4.8094,-4.8705,-4.8867,-4.8758,-4.8864,-4.9404,-4.8561,-4.8596,-5.0,-4.9824,-5.0306,-5.1789,-5.1544,-5.1168,-5.0697,-5.0051,-4.9374,-4.8696,-4.8635,-4.8718,-4.8996,-4.9128,-4.8948,-4.8355,-4.8324,-4.7731,-4.663,-4.6536,-4.619,-4.5656,-4.5709,-4.5299,-4.4485,-4.4391,-4.2692,-4.0088,-3.8811,-3.831,-3.8247,-3.8871,-3.9461,-4.0022,-4.0022,-3.9617,-3.9027,-3.8404,-3.7838,-3.7364,-3.7421,-3.748,-3.7547,-3.7841,-3.725,-3.666,-3.7146,-3.6746,-3.6224,-3.6098,-3.591,-3.5688,-3.5688,-3.4951,-3.4248,-3.4125,-3.2838,-3.1831,-3.1924,-3.0837,-3.0015,-3.0131,-3.0216,-3.0273,-3.0131,-3.0485,-3.0776,-3.0776,-3.0776,-3.0776,-3.0955,-3.0205,-2.9747,-2.9747,-2.9588,-2.9463,-2.9247,-2.9401,-3.0015,-3.111,-3.0908,-3.1516,-3.2917,-3.2561,-3.2345,-3.3028,-3.4246,-3.5409,-3.6233,-3.7333,-3.8755,-4.0449,-4.1173,-4.1929,-4.3474,-4.3601,-4.3675,-4.459,-4.5504,-4.6298,-4.6754,-4.7002,-4.7192,-4.773,-4.8011,-4.8257,-4.8838,-4.9173,-4.9339,-4.9528,-4.9567,-4.9938,-5.0395,-5.0276,-5.0608,-5.1484,-5.0964,-5.0739,-5.0839,-5.0105,-4.9727,-4.9667,-4.9099,-4.8779,-4.8537,-4.8475,-4.8102,-4.7606,-4.7324,-4.6931,-4.6473,-4.6213,-4.5898,-4.5614,-4.5173,-4.4827,-4.4449,-4.2987,-4.1323,-3.9533,-3.8498,-3.8215,-3.837,-3.8622,-3.9094,-3.9499,-3.9755,-3.9534,-3.9062,-3.862,-3.8391,-3.8225,-3.7812,-3.7743,-3.7748,-3.7524,-3.7216,-3.6969,-3.7064,-3.6848,-3.6662,-3.6631,-3.6476,-3.6136,-3.5676,-3.5185,-3.4483,-3.3426,-3.2766,-3.2109,-3.1217,-3.0738,-3.0261,-2.9792,-3.0313,-3.0664,-3.0496,-3.1006,-3.1336,-3.1278,-3.1278,-3.1278,-3.1336,-3.0866,-3.0568,-3.0447,-3.0387,-3.0266,-3.0115,-3.0205,-3.0773,-3.1809,-3.1613,-3.2196,-3.3507,-3.3129,-3.2988,-3.2274,-3.3455,-3.4773,-3.5607,-3.6805,-3.7997,-3.9495,-4.0606,-4.183,-4.3208,-4.3553,-4.3795,-4.463,-4.5196,-4.5908,-4.6499,-4.683,-4.7123,-4.7623,-4.7873,-4.8331,-4.8938,-4.9397,-4.9685,-4.9715,-4.9965,-5.0152,-5.0397,-5.0185,-5.0334,-5.0961,-5.035,-5.0156,-5.0584,-4.9797,-4.9511,-4.9926,-4.9078,-4.8475,-4.8028,-4.7621,-4.7279,-4.6966,-4.6693,-4.6528,-4.6381,-4.576,-4.5547,-4.5484,-4.4615,-4.4078,-4.3548,-4.1519,-4.0102,-3.9061,-3.8183,-3.7993,-3.8207,-3.8428,-3.8746,-3.9031,-3.9249,-3.9249,-3.906,-3.8578,-3.8444,-3.8526,-3.8046,-3.7918,-3.7828,-3.7476,-3.7298,-3.715,-3.706,-3.6812,-3.6716,-3.6656,-3.6349,-3.5918,-3.5424,-3.4968,-3.427,-3.3178,-3.2546,-3.1974,-3.1192,-3.0643,-3.0159,-2.9863,-3.0441,-3.0975,-3.1293,-3.1718,-3.1992,-3.1936,-3.1905,-3.1879,-3.1879,-3.1682,-3.1394,-3.1043,-3.1043,-3.0984,-3.0807,-3.1071,-3.1626,-3.2454,-3.2529,-3.3128,-3.4157,-3.3785,-3.3716,-3.2512,-3.3244,-3.404,-3.5422,-3.6145,-3.6861,-3.7859,-3.9094,-4.0445,-4.1583,-4.276,-4.3826,-4.4202,-4.4644,-4.5196,-4.5425,-4.6334,-4.6831,-4.6513,-4.7917,-4.9116,-4.9293,-4.9406,-4.9685,-5.015,-4.9224,-4.8977,-4.9789,-4.9361,-4.9357,-5.0258,-4.9677,-4.9426,-4.9682,-4.8974,-4.8718,-4.8996,-4.8283,-4.7729,-4.7509,-4.6818,-4.6504,-4.6473,-4.6697,-4.6497,-4.6048,-4.5317,-4.4999,-4.4935,-4.4267,-4.3087,-4.143,-4.004,-3.9092,-3.8428,-3.7733,-3.748,-3.7575,-3.827,-3.8613,-3.8702,-3.8552,-3.8766,-3.8878,-3.7998,-3.7833,-3.7918,-3.7918,-3.7918,-3.7918,-3.7918,-3.7567,-3.7178,-3.706,-3.6557,-3.6084,-3.5907,-3.5319,-3.482,-3.4878,-3.4089,-3.3455,-3.3655,-3.2321,-3.1481,-3.229,-3.0689,-2.9673,-3.0341,-3.0567,-3.1114,-3.2447,-3.2734,-3.2788,-3.2788,-3.2788,-3.2734,-3.2602,-3.2602,-3.2272,-3.1537,-3.148,-3.1452,-3.1336,-3.2079,-3.2706,-3.3018,-3.3667,-3.425,-3.4698,-3.4467,-3.4399,-3.1871,-3.2859,-3.393,-3.4565,-3.5534,-3.6432,-3.6974,-3.8475,-4.0083,-4.1462,-4.2471,-4.3505,-4.46,-4.48,-4.5335,-4.712,-4.6994,-4.689,-4.7811,-4.8187,-4.8607,-4.9235,-4.9406,-4.9415,-4.934,-4.9284,-4.9191,-4.9008,-4.9001,-4.9174,-4.9616,-4.8974,-4.8691,-4.8943,-4.8924,-4.8914,-4.8996,-4.8636,-4.8075,-4.7509,-4.6969,-4.6402,-4.5782,-4.5642,-4.5294,-4.4858,-4.4554,-4.4267,-4.3997,-4.296,-4.2043,-4.1151,-3.9715,-3.8925,-3.8578,-3.7998,-3.7775,-3.7833,-3.8174,-3.8558,-3.8914,-3.9124,-3.9124,-3.9001,-3.9101,-3.8796,-3.8375,-3.8544,-3.8544,-3.8544,-3.8432,-3.7875,-3.7351,-3.7011,-3.6794,-3.6508,-3.5943,-3.5657,-3.5316,-3.4754,-3.4305,-3.3858,-3.3365,-3.285,-3.2476,-3.2248,-3.133,-3.0723,-3.0942,-3.1432,-3.2195,-3.313,-3.3277,-3.333,-3.3435,-3.3403,-3.3382,-3.3224,-3.3224,-3.2873,-3.216,-3.2104,-3.2348,-3.2867,-3.2904,-3.3455,-3.4452,-3.4478,-3.4737,-3.5169,-3.5169,-3.5103,-3.2179,-3.2947,-3.3895,-3.4531,-3.5092,-3.5803,-3.6635,-3.816,-3.9544,-4.0763,-4.1673,-4.2766,-4.4543,-4.4852,-4.5443,-4.7169,-4.7092,-4.7083,-4.7834,-4.8144,-4.8496,-4.896,-4.9121,-4.9127,-4.8955,-4.9068,-4.891,-4.8572,-4.8743,-4.8913,-4.8998,-4.86,-4.8552,-4.8718,-4.8635,-4.8674,-4.8836,-4.8106,-4.754,-4.7177,-4.6665,-4.6044,-4.5277,-4.4978,-4.4858,-4.4725,-4.4186,-4.3611,-4.3126,-4.2011,-4.1183,-4.0542,-3.9422,-3.8754,-3.8376,-3.8019,-3.786,-3.7918,-3.8065,-3.8515,-3.906,-3.8888,-3.9076,-3.9237,-3.9178,-3.8958,-3.8711,-3.8766,-3.8788,-3.8723,-3.8319,-3.7872,-3.747,-3.7141,-3.6667,-3.612,-3.5648,-3.5379,-3.5005,-3.4398,-3.4197,-3.3868,-3.3097,-3.295,-3.2748,-3.2101,-3.1723,-3.1613,-3.1917,-3.2431,-3.3026,-3.3732,-3.3899,-3.4,-3.4,-3.405,-3.4129,-3.4266,-3.4266,-3.4238,-3.3959,-3.3185,-3.3177,-3.4172,-3.4058,-3.4411,-3.5278,-3.54,-3.5548,-3.5721,-3.5816,-3.5816,-3.2996,-3.3363,-3.3788,-3.4866,-3.4803,-3.493,-3.6612,-3.7742,-3.876,-3.976,-4.0716,-4.2015,-4.4292,-4.4914,-4.5519,-4.6395,-4.6943,-4.7186,-4.7092,-4.7903,-4.8496,-4.8702,-4.8757,-4.8835,-4.897,-4.8614,-4.8355,-4.8604,-4.8604,-4.8604,-4.8687,-4.8635,-4.8687,-4.8903,-4.8252,-4.8151,-4.8514,-4.7164,-4.6654,-4.6803,-4.6139,-4.5588,-4.4999,-4.4795,-4.484,-4.4994,-4.3812,-4.2912,-4.2236,-4.1339,-4.0571,-3.9898,-3.9225,-3.8494,-3.7918,-3.7918,-3.7918,-3.7918,-3.7918,-3.8483,-3.9082,-3.8296,-3.8753,-3.952,-3.8756,-3.8665,-3.8788,-3.8876,-3.8843,-3.8679,-3.7958,-3.7728,-3.7609,-3.7308,-3.6267,-3.5291,-3.5072,-3.4655,-3.425,-3.4,-3.3885,-3.3659,-3.3079,-3.2819,-3.2611,-3.2125,-3.2172,-3.2479,-3.3064,-3.3434,-3.3824,-3.4333,-3.4594,-3.4691,-3.4594,-3.4691,-3.4939,-3.5346,-3.5545,-3.5822,-3.6247,-3.4558,-3.4153,-3.537,-3.5313,-3.5488,-3.5913,-3.6474,-3.6569,-3.6321,-3.6476,-3.6383,-3.1483,-3.2007,-3.2883,-3.303,-3.3537,-3.4168,-3.4504,-3.5833,-3.7486,-3.9794,-4.1052,-4.2202,-4.3992,-4.466,-4.5511,-4.7569,-4.719,-4.7128,-4.8692,-4.8173,-4.8011,-4.896,-4.8466,-4.8239,-4.8648,-4.8584,-4.8521,-4.8604,-4.88,-4.8965,-4.9097,-4.8965,-4.8748,-4.8462,-4.8434,-4.8247,-4.776,-4.7063,-4.6877,-4.7024,-4.6358,-4.573,-4.5208,-4.4564,-4.3904,-4.3138,-4.214,-4.1752,-4.1649,-4.0296,-3.9683,-3.958,-3.8779,-3.8366,-3.818,-3.8237,-3.8237,-3.818,-3.8294,-3.8689,-3.921,-3.9166,-3.9314,-3.9469,-3.9536,-3.928,-3.904,-3.9255,-3.9342,-3.9196,-3.8569,-3.7986,-3.737,-3.6754,-3.6059,-3.5364,-3.4758,-3.4546,-3.4448,-3.4399,-3.3844,-3.3535,-3.4023,-3.3632,-3.3255,-3.3373,-3.3914,-3.4145,-3.3716,-3.4192,-3.4669,-3.4883,-3.5011,-3.5024,-3.5105,-3.5152,-3.5171,-3.5162,-3.5741,-3.6042,-3.5976,-3.5779,-3.6045,-3.6796,-3.6638,-3.6788,-3.743,-3.7175,-3.7058,-3.6997,-3.6907,-3.6566,-3.1785,-3.2021,-3.235,-3.2711,-3.3232,-3.384,-3.4403,-3.5491,-3.7086,-3.9393,-4.0621,-4.1963,-4.4128,-4.5019,-4.5967,-4.798,-4.7731,-4.7608,-4.8692,-4.8336,-4.8018,-4.8494,-4.8415,-4.8173,-4.814,-4.8162,-4.8152,-4.7923,-4.8053,-4.8289,-4.8792,-4.8742,-4.8587,-4.8482,-4.8185,-4.776,-4.7189,-4.6329,-4.6008,-4.608,-4.5483,-4.4989,-4.4554,-4.4168,-4.3267,-4.2037,-4.1772,-4.1476,-4.1238,-4.0098,-3.9675,-3.9609,-3.878,-3.8488,-3.8488,-3.8408,-3.8408,-3.8408,-3.8464,-3.8918,-3.9412,-3.9145,-3.9414,-3.9691,-3.9476,-3.9051,-3.8705,-3.8916,-3.8735,-3.8269,-3.7686,-3.7315,-3.686,-3.6122,-3.5671,-3.5379,-3.4982,-3.493,-3.493,-3.4883,-3.4551,-3.4272,-3.4352,-3.3802,-3.3627,-3.4509,-3.4722,-3.4856,-3.5191,-3.5304,-3.5484,-3.5853,-3.5631,-3.5475,-3.5441,-3.5824,-3.6194,-3.639,-3.6807,-3.7263,-3.7803,-3.7514,-3.74,-3.7492,-3.7307,-3.7464,-3.8001,-3.777,-3.7535,-3.7449,-3.7389,-3.701,-3.2515,-3.2434,-3.2142,-3.2742,-3.3147,-3.3549,-3.4541,-3.5385,-3.6573,-3.8526,-4.0003,-4.1781,-4.4156,-4.5401,-4.6455,-4.7851,-4.8001,-4.8089,-4.8381,-4.8254,-4.8143,-4.8185,-4.8268,-4.8092,-4.763,-4.7738,-4.7667,-4.7263,-4.72,-4.7559,-4.8184,-4.8215,-4.8232,-4.8263,-4.7743,-4.7189,-4.6719,-4.5691,-4.5196,-4.5069,-4.4445,-4.4007,-4.375,-4.3587,-4.2745,-4.161,-4.1782,-4.1442,-4.0787,-4.0033,-3.964,-3.9476,-3.8721,-3.846,-3.857,-3.8325,-3.839,-3.8576,-3.8576,-3.8967,-3.9357,-3.8772,-3.9191,-3.9775,-3.904,-3.8546,-3.8247,-3.8402,-3.792,-3.7235,-3.6645,-3.6505,-3.6397,-3.5701,-3.5441,-3.5429,-3.5383,-3.5396,-3.5441,-3.5383,-3.5396,-3.5206,-3.4421,-3.4004,-3.4201,-3.5497,-3.5125,-3.5237,-3.6525,-3.6208,-3.6117,-3.6639,-3.6253,-3.5844,-3.5756,-3.6389,-3.707,-3.7678,-3.784,-3.8404,-3.9581,-3.8959,-3.8387,-3.7953,-3.7785,-3.7926,-3.8286,-3.823,-3.8059,-3.786,-3.779,-3.7374,-3.2263,-3.238,-3.2399,-3.1825,-3.2018,-3.236,-3.2771,-3.3871,-3.5226,-3.6917,-3.9352,-4.1853,-4.3643,-4.4942,-4.6036,-4.7217,-4.7421,-4.7799,-4.9024,-4.8154,-4.7746,-4.8588,-4.7725,-4.7228,-4.7538,-4.7542,-4.7558,-4.7464,-4.7432,-4.7572,-4.7959,-4.7774,-4.7383,-4.7012,-4.7141,-4.6834,-4.6167,-4.6159,-4.5885,-4.5484,-4.4496,-4.4072,-4.4098,-4.2977,-4.2288,-4.1907,-4.1493,-4.0836,-4.0001,-3.9247,-3.8559,-3.8002,-3.7775,-3.7688,-3.7688,-3.7633,-3.7968,-3.8464,-3.8464,-3.8529,-3.8594,-3.8609,-3.8776,-3.8975,-3.8985,-3.8672,-3.8402,-3.8555,-3.8136,-3.7557,-3.6988,-3.6922,-3.6842,-3.6103,-3.5932,-3.5844,-3.5622,-3.5577,-3.5577,-3.5577,-3.5667,-3.5518,-3.4771,-3.5197,-3.5693,-3.5898,-3.583,-3.5907,-3.6242,-3.6208,-3.6217,-3.6371,-3.6268,-3.6233,-3.6199,-3.6302,-3.6638,-3.734,-3.7408,-3.7729,-3.8491,-3.8715,-3.8839,-3.8823,-3.8811,-3.8941,-3.9148,-3.8733,-3.8511,-3.8455,-3.7728,-3.6938,-3.1995,-3.1956,-3.2072,-3.1441,-3.1785,-3.2352,-3.2533,-3.3911,-3.5454,-3.6599,-3.8918,-4.1234,-4.3067,-4.452,-4.582,-4.7298,-4.7411,-4.7494,-4.8489,-4.7942,-4.7545,-4.7793,-4.7522,-4.7231,-4.7169,-4.7132,-4.7012,-4.6856,-4.6824,-4.7014,-4.7426,-4.7426,-4.7268,-4.6951,-4.7171,-4.6925,-4.6223,-4.6019,-4.5488,-4.4723,-4.3844,-4.3604,-4.3756,-4.2822,-4.2071,-4.1526,-4.0974,-4.0106,-3.8908,-3.8578,-3.8018,-3.7392,-3.7662,-3.7826,-3.7912,-3.8068,-3.8339,-3.86,-3.8576,-3.852,-3.852,-3.8655,-3.8821,-3.8832,-3.8578,-3.8162,-3.7753,-3.7517,-3.6989,-3.6581,-3.6512,-3.6532,-3.6517,-3.6217,-3.6191,-3.6148,-3.6019,-3.5985,-3.6062,-3.6191,-3.6191,-3.6088,-3.5862,-3.6069,-3.6276,-3.6395,-3.6395,-3.6713,-3.7706,-3.7386,-3.7324,-3.7945,-3.7554,-3.7102,-3.6725,-3.7415,-3.7992,-3.8261,-3.8668,-3.9168,-3.9824,-3.944,-3.9433,-3.9958,-3.9613,-3.9415,-3.9395,-3.8772,-3.8611,-3.892,-3.8122,-3.74,-3.202,-3.196,-3.2041,-3.1239,-3.1792,-3.255,-3.255,-3.395,-3.5537,-3.6616,-3.8385,-4.0337,-4.232,-4.378,-4.5331,-4.7189,-4.726,-4.7319,-4.7969,-4.7854,-4.7644,-4.7339,-4.7455,-4.7356,-4.6898,-4.6634,-4.6398,-4.6365,-4.6244,-4.6365,-4.6884,-4.7133,-4.7205,-4.6957,-4.7205,-4.6924,-4.6287,-4.5591,-4.4821,-4.4038,-4.3277,-4.2972,-4.3119,-4.2402,-4.1674,-4.1031,-4.0613,-3.9607,-3.8299,-3.8247,-3.7816,-3.7219,-3.7595,-3.7873,-3.8104,-3.8308,-3.8492,-3.8711,-3.86,-3.8632,-3.86,-3.8625,-3.8635,-3.8644,-3.8025,-3.7451,-3.7002,-3.6673,-3.6197,-3.5844,-3.6148,-3.6268,-3.6353,-3.636,-3.636,-3.636,-3.636,-3.636,-3.6402,-3.6643,-3.6602,-3.6602,-3.6684,-3.6643,-3.6643,-3.6725,-3.6766,-3.7225,-3.8467,-3.8216,-3.8187,-3.8737,-3.8415,-3.7963,-3.7478,-3.842,-3.9147,-3.9491,-3.9791,-4.0323,-4.1198,-4.0032,-3.9824,-4.0823,-4.0133,-3.9632,-3.941,-3.8756,-3.8705,-3.9101,-3.8351,-3.7902,-3.2594,-3.2726,-3.2497,-3.1162,-3.1684,-3.2452,-3.2251,-3.3312,-3.4777,-3.6441,-3.7934,-3.9425,-4.1245,-4.2601,-4.4184,-4.6146,-4.6634,-4.715,-4.8161,-4.8319,-4.8237,-4.7946,-4.7434,-4.7136,-4.7024,-4.6173,-4.5869,-4.655,-4.6108,-4.5975,-4.6365,-4.6717,-4.6856,-4.6647,-4.6786,-4.6669,-4.609,-4.4885,-4.4197,-4.4194,-4.2906,-4.2426,-4.2535,-4.1255,-4.07,-4.0612,-4.0634,-3.9821,-3.8555,-3.8387,-3.7936,-3.7253,-3.7102,-3.7327,-3.7707,-3.774,-3.8068,-3.8464,-3.8576,-3.8632,-3.8502,-3.8175,-3.8051,-3.7972,-3.7502,-3.6984,-3.6538,-3.6645,-3.6512,-3.6276,-3.6284,-3.6485,-3.6643,-3.652,-3.6485,-3.6485,-3.6485,-3.6485,-3.6561,-3.6643,-3.6684,-3.6684,-3.6684,-3.6766,-3.6771,-3.6771,-3.6891,-3.7044,-3.7193,-3.7831,-3.8086,-3.7532,-3.8138,-3.8602,-3.8719,-3.8676,-3.9235,-4.0642,-3.9953,-4.0144,-4.149,-4.0001,-3.9765,-4.1128,-4.0331,-3.9628,-3.9151,-3.8937,-3.8888,-3.8922,-3.8179,-3.8212,-3.3048,-3.3105,-3.3006,-3.1807,-3.2436,-3.3397,-3.3466,-3.4585,-3.5848,-3.6273,-3.7724,-3.9114,-3.9955,-4.1708,-4.3492,-4.4924,-4.544,-4.6092,-4.7153,-4.7287,-4.7207,-4.716,-4.7107,-4.7014,-4.6962,-4.6374,-4.6123,-4.645,-4.5996,-4.5898,-4.618,-4.655,-4.6812,-4.6997,-4.6711,-4.629,-4.5571,-4.4622,-4.4256,-4.4319,-4.2933,-4.236,-4.2469,-4.1211,-4.0654,-4.0695,-3.9811,-3.884,-3.7903,-3.782,-3.7336,-3.6654,-3.7451,-3.7826,-3.7912,-3.8155,-3.8372,-3.852,-3.852,-3.8464,-3.839,-3.7969,-3.7793,-3.7669,-3.6871,-3.6549,-3.6451,-3.6299,-3.6268,-3.636,-3.6568,-3.6684,-3.6643,-3.6561,-3.6561,-3.6643,-3.665,-3.669,-3.6731,-3.693,-3.697,-3.697,-3.7083,-3.7122,-3.7087,-3.7087,-3.7126,-3.7379,-3.799,-3.877,-3.9242,-3.9149,-3.9363,-3.9401,-3.9012,-3.8865,-3.9218,-4.0289,-4.0455,-4.073,-4.1257,-4.1138,-4.1018,-4.1004,-4.1042,-4.0791,-4.0268,-3.9705,-3.9658,-4.0138,-3.935,-3.9144,-3.3238,-3.3393,-3.3275,-3.2499,-3.3395,-3.4358,-3.4149,-3.5264,-3.6419,-3.6623,-3.7693,-3.8915,-3.9883,-4.1151,-4.2562,-4.3873,-4.4833,-4.5619,-4.6599,-4.7078,-4.7175,-4.6933,-4.7253,-4.7261,-4.677,-4.6422,-4.6255,-4.6319,-4.5877,-4.5715,-4.6028,-4.655,-4.6913,-4.7077,-4.652,-4.5797,-4.4947,-4.4289,-4.4019,-4.408,-4.269,-4.2055,-4.2195,-4.09,-4.0261,-4.0065,-3.9244,-3.8538,-3.7984,-3.77,-3.7367,-3.7086,-3.7951,-3.8275,-3.8274,-3.8547,-3.8632,-3.852,-3.8544,-3.8381,-3.8056,-3.7662,-3.7373,-3.7048,-3.6155,-3.5874,-3.5915,-3.6044,-3.6061,-3.6139,-3.6661,-3.6766,-3.6725,-3.6602,-3.6684,-3.6806,-3.6851,-3.6891,-3.697,-3.7129,-3.7167,-3.7241,-3.7317,-3.7317,-3.7317,-3.7392,-3.7392,-3.768,-3.829,-3.9289,-3.9902,-3.9876,-4.0092,-4.0057,-3.9662,-3.9554,-3.9733,-4.02,-4.0915,-4.1307,-4.1307,-4.1443,-4.1506,-4.1466,-4.1552,-4.1505,-4.138,-4.0398,-4.0249,-4.077,-4.0249,-4.011,0.0,0.0,0.0,-3.3214,-3.425,-3.5119,-3.4186,-3.5126,-3.6426,-3.7427,-3.7997,-3.8951,-4.0924,-4.1036,-4.146,-4.311,-4.4673,-4.59,-4.6373,-4.7815,-4.8454,-4.7341,-4.7858,-4.787,-4.6453,-4.6182,-4.6091,-4.6213,-4.5689,-4.5589,-4.5963,-4.6853,-4.7254,-4.6841,-4.6146,-4.5293,-4.4224,-4.3779,-4.3535,-4.3383,-4.2047,-4.1498,-4.1633,-4.0294,-3.9378,-3.8807,-3.8922,-3.8971,-3.8937,-3.8082,-3.8069,-3.8555,-3.8453,-3.8573,-3.8788,-3.8788,-3.86,-3.8464,-3.8711,-3.833,-3.7662,-3.7232,-3.6705,-3.6071,-3.5479,-3.5015,-3.4959,-3.5934,-3.5883,-3.571,-3.6596,-3.6811,-3.6806,-3.6725,-3.6846,-3.697,-3.7009,-3.7087,-3.7167,-3.7392,-3.7392,-3.7392,-3.7429,-3.7429,-3.7466,-3.7577,-3.7685,-3.7757,-3.7899,-3.9265,-4.0022,-3.9514,-4.0093,-4.0564,-4.0706,-4.0669,-4.0634,-4.0564,-4.1289,-4.1723,-4.1723,-4.0999,-4.1215,-4.2577,-4.1818,-4.174,-4.2328,-4.1124,-4.0559,-4.0559,-4.0594,-4.0981,-3.2956,0.0,0.0,0.0,0.0,0.0,-3.6197,-3.6624,-3.6942,-3.7536,-3.8631,-3.9566,-3.9893,-4.1225,-4.2364,-4.2648,-4.3533,-4.4542,-4.5913,-4.6366,-4.6795,-4.7044,-4.738,-4.7697,-4.7669,-4.7038,-4.6659,-4.6752,-4.5852,-4.5443,-4.5814,-4.6413,-4.6435,-4.5718,-4.5424,-4.4957,-4.4164,-4.3905,-4.3598,-4.3089,-4.2076,-4.14,-4.0996,-3.9698,-3.8991,-3.8773,-3.8444,-3.856,-3.8971,-3.8654,-3.8405,-3.8247,-3.8672,-3.8767,-3.8655,-3.8544,-3.852,-3.8576,-3.86,-3.8221,-3.7662,-3.7199,-3.6572,-3.5974,-3.5572,-3.5476,-3.5606,-3.6071,-3.6222,-3.6325,-3.6696,-3.6851,-3.6891,-3.6806,-3.6926,-3.7009,-3.7087,-3.7279,-3.7466,-3.7429,-3.7392,-3.7466,-3.7577,-3.7649,-3.7685,-3.7793,-3.7828,-3.7899,-3.7967,-3.9409,-4.0384,-4.0344,-4.056,-4.0957,-4.1575,-4.0555,-4.0443,-4.1645,-4.1937,-4.2081,-4.2114,-4.2479,-4.2556,-4.234,-4.2596,-4.2776,-4.2878,-4.2154,-4.1801,-4.1801,-4.2406,-4.2718,-3.3137,-3.3297,-3.348,-3.4909,0.0,0.0,-3.7075,-3.7431,-3.7571,-3.8181,-3.8893,-3.9589,-4.0331,-4.1476,-4.2503,-4.3116,-4.3649,-4.4401,-4.5449,-4.5973,-4.6347,-4.6621,-4.7378,-4.7605,-4.6991,-4.6963,-4.6885,-4.6439,-4.5853,-4.5646,-4.6075,-4.6248,-4.6051,-4.5412,-4.532,-4.4892,-4.4097,-4.3981,-4.3671,-4.2992,-4.22,-4.1519,-4.0855,-3.9851,-3.9192,-3.8906,-3.8885,-3.8836,-3.8841,-3.9042,-3.8938,-3.8712,-3.8929,-3.8821,-3.8632,-3.8544,-3.8544,-3.8632,-3.8711,-3.8133,-3.7321,-3.71,-3.6423,-3.5671,-3.5471,-3.5453,-3.5557,-3.6037,-3.6437,-3.6684,-3.6766,-3.6886,-3.697,-3.6811,-3.693,-3.7087,-3.7164,-3.7354,-3.754,-3.7577,-3.7649,-3.7721,-3.7792,-3.7792,-3.7828,-3.7967,-3.7967,-3.8036,-3.8171,-3.9618,-4.0704,-4.081,-4.0912,-4.1238,-4.2077,-4.1009,-4.0712,-4.1735,-4.2136,-4.2353,-4.2419,-4.2897,-4.3048,-4.28,-4.3171,-4.3504,-4.3762,-4.2948,-4.2713,-4.3073,-4.3863,-4.4222,-3.3328,-3.3651,-3.3948,-3.5884,-3.6463,0.0,-3.7291,-3.7718,-3.8168,-3.8932,-3.8974,-3.9482,-4.1492,-4.1792,-4.2285,-4.4131,-4.46,-4.4846,-4.5196,-4.6135,-4.6646,-4.618,-4.7391,-4.7473,-4.5503,-4.6452,-4.6811,-4.5858,-4.5889,-4.603,-4.6408,-4.6206,-4.593,-4.5625,-4.5419,-4.4942,-4.4155,-4.4155,-4.3753,-4.2914,-4.2354,-4.1668,-4.086,-4.0273,-3.9664,-3.9039,-3.9731,-3.9547,-3.8773,-3.9339,-3.9501,-3.9395,-3.9094,-3.8821,-3.8632,-3.8711,-3.8645,-3.8557,-3.8799,-3.7985,-3.6818,-3.697,-3.6237,-3.5337,-3.5337,-3.5182,-3.5198,-3.5976,-3.6485,-3.6806,-3.6725,-3.6846,-3.697,-3.6851,-3.697,-3.7126,-3.7279,-3.7354,-3.7503,-3.7828,-3.7933,-3.7966,-3.8002,-3.7933,-3.7969,-3.8068,-3.8101,-3.8168,-3.8401,-3.975,-4.0802,-4.1013,-4.1079,-4.1475,-4.239,-4.1857,-4.1477,-4.152,-4.229,-4.276,-4.2797,-4.276,-4.3061,-4.3627,-4.3738,-4.411,-4.4743,-4.3652,-4.3502,-4.43,-4.5098,-4.55,-3.2672,-3.3121,-3.3735,-3.5678,-3.5865,0.0,-3.7809,-3.7849,-3.7875,-3.8833,-3.952,-4.0318,-4.136,-4.2382,-4.3353,-4.4415,-4.4776,-4.4926,-4.4923,-4.556,-4.5927,-4.5731,-4.6437,-4.6891,-4.6816,-4.69,-4.7021,-4.7116,-4.6667,-4.6337,-4.6114,-4.5858,-4.5543,-4.5309,-4.5035,-4.48,-4.4665,-4.4384,-4.362,-4.2436,-4.2227,-4.1452,-4.029,-3.9645,-3.9238,-3.9005,-3.9238,-3.9478,-3.9631,-3.9696,-3.9362,-3.8931,-3.8766,-3.8576,-3.8464,-3.8632,-3.8351,-3.7883,-3.813,-3.7382,-3.6388,-3.6486,-3.6028,-3.5475,-3.5566,-3.5654,-3.5891,-3.6326,-3.6602,-3.6725,-3.6766,-3.6891,-3.7009,-3.7013,-3.7048,-3.7087,-3.7317,-3.7466,-3.7613,-3.7864,-3.7828,-3.7792,-3.8002,-3.8002,-3.8036,-3.8174,-3.8241,-3.8271,-3.8401,-3.9369,-4.0377,-4.1066,-4.1235,-4.1889,-4.3463,-4.2802,-4.268,-4.3497,-4.3689,-4.3801,-4.3899,-4.3923,-4.3967,-4.3923,-4.4554,-4.493,-4.5115,-4.463,-4.4784,-4.559,-4.6396,-4.6687,-3.2505,-3.3017,-3.3663,-3.5721,-3.6113,0.0,0.0,-3.8352,-3.8571,-3.9509,-3.9869,-4.0565,-4.2152,-4.2704,-4.3332,-4.4551,-4.5118,-4.5318,-4.5096,-4.5152,-4.5282,-4.5331,-4.5953,-4.6442,-4.6507,-4.6865,-4.7237,-4.7487,-4.7222,-4.6962,-4.6649,-4.6315,-4.5955,-4.5598,-4.4939,-4.4673,-4.4886,-4.3939,-4.3085,-4.2286,-4.2072,-4.1325,-4.0104,-3.9914,-3.9695,-3.948,-3.9902,-4.0171,-4.0247,-4.0054,-3.9731,-3.9313,-3.8841,-3.86,-3.8455,-3.8264,-3.7981,-3.7814,-3.7609,-3.6936,-3.6204,-3.6252,-3.5974,-3.552,-3.5577,-3.5844,-3.6182,-3.6402,-3.6602,-3.6725,-3.6851,-3.697,-3.7087,-3.7164,-3.7164,-3.7203,-3.7354,-3.7503,-3.7542,-3.7359,-3.7286,-3.7499,-3.8032,-3.8104,-3.8174,-3.8271,-3.8303,-3.8401,-3.8528,-3.9386,-4.0289,-4.1156,-4.1391,-4.2149,-4.3812,-4.3243,-4.3193,-4.4132,-4.4177,-4.4177,-4.4244,-4.4304,-4.4423,-4.4743,-4.5655,-4.6284,-4.6632,-4.6536,-4.6557,-4.6831,-4.7608,-4.7941,-3.2633,-3.3356,-3.4219,-3.6004,-3.6826,-3.7419,0.0,0.0,0.0,-4.0058,-4.0128,-4.0715,-4.291,-4.3042,-4.3344,-4.4836,-4.5475,-4.5726,-4.5404,-4.5026,-4.4864,-4.5102,-4.5835,-4.6168,-4.586,-4.668,-4.7287,-4.7572,-4.7331,-4.7181,-4.7155,-4.6712,-4.6224,-4.5698,-4.4798,-4.444,-4.4658,-4.3373,-4.2534,-4.2136,-4.1835,-4.1153,-4.0138,-4.0288,-4.0188,-3.9918,-4.0471,-4.0682,-4.06,-4.0292,-4.0051,-3.9804,-3.9028,-3.8711,-3.8535,-3.8079,-3.7978,-3.7939,-3.7533,-3.6987,-3.6452,-3.6452,-3.6243,-3.5971,-3.5938,-3.6239,-3.6612,-3.6547,-3.6707,-3.6934,-3.6965,-3.7048,-3.7129,-3.7276,-3.7314,-3.7352,-3.7429,-3.754,-3.7506,-3.707,-3.7097,-3.7268,-3.7798,-3.7947,-3.8056,-3.8182,-3.8291,-3.8465,-3.8658,-3.9369,-4.0197,-4.1249,-4.1512,-4.227,-4.3937,-4.3573,-4.3548,-4.4288,-4.4362,-4.4362,-4.4362,-4.4475,-4.4915,-4.5619,-4.6711,-4.7567,-4.8176,-4.8394,-4.8347,-4.8058,-4.8695,-4.8959,-3.3001,-3.4575,-3.6145,-3.6917,-3.7861,-3.8617,-3.8737,0.0,-3.912,-3.9514,0.0,-4.1418,-4.2637,0.0,0.0,-4.551,-4.575,-4.575,-4.5587,-4.5285,-4.5104,-4.5259,-4.5867,-4.6158,-4.5975,-4.6499,-4.7183,-4.7915,-4.676,-4.621,-4.6463,-4.6155,-4.5481,-4.4445,-4.4502,-4.4193,-4.3489,-4.3065,-4.2398,-4.1512,-4.1495,-4.0951,-4.0087,-3.9986,-3.9935,-3.9918,-3.9882,-4.0127,-4.0567,-3.9901,-3.9698,-3.9837,-3.8949,-3.8632,-3.86,-3.8668,-3.8426,-3.8162,-3.8218,-3.7953,-3.7513,-3.7513,-3.7638,-3.775,-3.7216,-3.7624,-3.7954,-3.6943,-3.7172,-3.7561,-3.7106,-3.7048,-3.7129,-3.7276,-3.7314,-3.7352,-3.754,-3.7649,-3.7685,-3.7755,-3.7928,-3.7697,-3.6479,-3.6812,-3.7249,-3.7312,-3.7927,-3.8465,-3.8658,-3.8884,-3.969,-4.1393,-4.163,-4.2416,-4.4204,-4.4221,-4.425,-4.4468,-4.4468,-4.4468,-4.4468,-4.52,-4.5762,-4.6048,-4.7504,-4.8296,-4.8455,-4.9164,-4.9424,-4.9202,-4.9315,-4.9352,-3.2562,-3.4082,-3.5663,-3.6385,-3.7398,-3.8292,-3.8564,-3.8913,-3.9368,-3.9949,0.0,0.0,0.0,0.0,0.0,0.0,-4.5906,-4.5929,-4.5958,-4.5813,-4.5676,-4.5601,-4.5655,-4.5819,-4.6065,-4.6393,-4.6757,-4.7163,-4.6638,-4.6345,-4.6397,-4.5906,-4.5395,-4.4736,-4.4067,-4.3687,-4.3541,-4.2895,-4.227,-4.1629,-4.1679,-4.1203,-4.0188,-4.0138,-3.9986,-3.9815,-4.0093,-4.03,-4.0458,-4.0159,-4.0029,-3.9949,-3.9171,-3.8766,-3.8701,-3.8492,-3.8375,-3.8251,-3.8003,-3.7785,-3.7745,-3.7889,-3.7725,-3.757,-3.7854,-3.792,-3.7801,-3.7351,-3.7513,-3.7666,-3.7141,-3.7048,-3.7129,-3.7317,-3.7354,-3.7392,-3.754,-3.7327,-3.7145,-3.7214,-3.7087,-3.6734,-3.6133,-3.6989,-3.7649,-3.7301,-3.8016,-3.8627,-3.875,-3.8892,-3.9694,-4.1481,-4.1745,-4.253,-4.4233,-4.444,-4.4496,-4.4551,-4.5095,-4.5386,-4.5386,-4.6739,-4.75,-4.75,-4.8715,-4.9375,-4.9375,-4.9754,-4.9879,-4.9797,-4.9625,-4.9537,-3.237,-3.3956,-3.5565,-3.6242,-3.7292,-3.8217,-3.8559,-3.9155,-3.972,-4.0136,-4.1175,0.0,0.0,0.0,-4.4947,-4.5764,0.0,-4.6017,-4.6176,-4.6169,-4.6053,-4.586,-4.5673,-4.5821,-4.6448,-4.6427,-4.6473,-4.6735,-4.639,-4.6151,-4.6132,-4.5659,-4.5111,-4.4581,-4.3906,-4.343,-4.3197,-4.2707,-4.225,-4.1827,-4.1705,-4.1283,-4.0594,-4.034,-4.0037,-3.9711,-4.0121,-4.0247,-4.0083,-4.0083,-3.9941,-3.9764,-3.9292,-3.904,-3.892,-3.8606,-3.8617,-3.8705,-3.8271,-3.8302,-3.8449,-3.869,-3.8457,-3.814,-3.8631,-3.8618,-3.8328,-3.7802,-3.7853,-3.7945,-3.7211,-3.7048,-3.7129,-3.7281,-3.7354,-3.7429,-3.754,-3.7291,-3.6964,-3.685,-3.6717,-3.6504,-3.6157,-3.7192,-3.7858,-3.743,-3.8145,-3.8719,-3.884,-3.9007,-3.977,-4.153,-4.1856,-4.264,-4.4318,-4.4578,-4.4632,-4.4685,-4.5557,-4.61,-4.6126,-4.7795,-4.8719,-4.8655,-4.9619,-5.0089,-5.0063,-5.0114,-5.0139,-5.0139,-4.9944,-4.9778,-3.2752,-3.4723,-3.6717,-3.7083,-3.8114,-3.9043,-3.9017,-3.9751,-4.029,-3.9639,-4.1619,-4.3264,-4.2721,-4.4133,-4.5453,-4.5775,-4.5863,0.0,0.0,-4.6215,-4.613,-4.5919,-4.6188,-4.6619,-4.722,-4.661,-4.6502,-4.7136,-4.5848,-4.5167,-4.5417,-4.518,-4.4481,-4.3324,-4.4237,-4.3857,-4.198,-4.2377,-4.2392,-4.1974,-4.1106,-4.0945,-4.1342,-4.0493,-3.9986,-3.9677,-3.9554,-3.9481,-3.9375,-3.9375,-3.9235,-3.9073,-3.9395,-3.9395,-3.9255,-3.9255,-3.9435,-3.9696,-3.9765,-3.9969,-4.022,-4.0368,-4.0514,-4.0439,-3.9859,-4.0181,-4.0366,-3.8374,-3.8312,-3.8607,-3.7316,-3.7048,-3.7091,-3.7091,-3.7279,-3.7392,-3.7429,-3.7649,-3.7682,-3.6958,-3.7558,-3.779,-3.6339,-3.6808,-3.7357,-3.7477,-3.8175,-3.875,-3.8862,-3.9036,-3.977,-4.1614,-4.19,-4.2709,-4.4535,-4.4712,-4.4764,-4.4889,-4.5759,-4.6326,-4.6397,-4.7995,-4.8933,-4.8967,-4.9768,-5.0212,-5.0283,-5.0283,-5.0283,-5.0283,-5.0139,-5.0038,0.0,0.0,-3.5972,-3.6615,0.0,-3.8287,-3.8652,-3.9629,-4.0307,-3.9714,-4.1669,-4.3312,-4.2764,-4.4212,-4.5543,-4.5747,-4.5891,-4.6017,0.0,-4.6253,-4.6218,-4.6114,-4.6035,-4.6066,-4.6298,-4.6009,-4.588,-4.6007,-4.5464,-4.5095,-4.5051,-4.4691,-4.4114,-4.3424,-4.401,-4.3858,-4.2817,-4.3331,-4.3197,-4.2392,-4.1912,-4.1395,-4.091,-4.0474,-4.0037,-3.9677,-3.9554,-3.9448,-3.9288,-3.9288,-3.9342,-3.9309,-3.9448,-3.9554,-3.9573,-3.9625,-4.0031,-4.0639,-4.1268,-4.0985,-4.039,-4.1016,-4.0651,-3.9959,-4.0341,-4.0284,-3.9882,-3.8649,-3.8608,-3.8599,-3.7149,-3.6926,-3.7087,-3.7203,-3.7241,-3.7279,-3.7503,-3.722,-3.7075,-3.7466,-3.7558,-3.7567,-3.763,-3.7942,-3.8071,-3.761,-3.8295,-3.8833,-3.895,-3.9147,-3.9917,-4.1642,-4.1954,-4.2735,-4.4482,-4.5292,-4.5748,-4.587,-4.7224,-4.8009,-4.8033,-4.9172,-4.9854,-4.9877,-5.0214,-5.0412,-5.0435,-5.0435,-5.0435,-5.0435,-5.0987,-5.1162,-3.2275,-3.3743,0.0,-3.6165,-3.6869,0.0,-3.8291,-3.9356,-4.016,-3.9911,-4.1731,-4.3303,-4.2905,-4.4225,-4.5435,-4.5634,-4.5854,-4.6017,0.0,-4.627,-4.6282,-4.6237,-4.604,-4.5948,-4.593,-4.5828,-4.5679,-4.5603,-4.5435,-4.5263,-4.5019,-4.461,-4.4154,-4.3652,-4.4017,-4.3772,-4.2946,-4.3421,-4.3289,-4.2579,-4.202,-4.154,-4.1106,-4.0622,-4.0188,-3.9833,-3.9677,-3.9606,-3.9415,-3.9415,-3.9634,-3.9974,-4.0027,-4.0247,-4.052,-4.0389,-4.0811,-4.1504,-4.1865,-4.1426,-4.083,-4.1169,-4.07,-4.0122,-4.0733,-4.0319,-3.956,-3.8846,-3.8564,-3.8165,-3.7039,-3.6846,-3.697,-3.7126,-3.7164,-3.7241,-3.7466,-3.7256,-3.711,-3.7464,-3.7588,-3.7708,-3.7958,-3.8407,-3.8566,-3.8111,-3.853,-3.9061,-3.9443,-3.948,-4.0173,-4.2108,-4.2194,-4.2838,-4.4638,-4.5721,-4.6335,-4.6428,-4.8029,-4.8982,-4.8982,-4.9839,-5.0344,-5.0344,-5.0478,-5.0521,-5.0521,-5.0563,-5.0717,-5.1024,-5.1907,-5.2379]},{"header":{"parameterUnit":"m.s-1","parameterCategory":1,"la1":30.6,"la2":29.2853,"lo1":-89.7004,"lo2":-87.6739,"dy":0.0162,"dx":0.0183,"nx":112,"ny":82,"refTime":"2024-04-01T00:00:00:Z","depth":0,"parameterNumber":3,"parameterNumberName":"V-component_of_WINDS"},"data":[0.0,0.0,0.0,0.0,0.0,0.0,0.0,0.0,0.0,0.0,0.0,0.0,0.0,0.0,0.0,0.0,0.0,0.0,0.0,0.0,0.0,0.0,0.0,0.0,0.0,0.0,0.0,0.0,0.0,0.0,0.0,0.0,0.0,0.0,0.0,0.0,0.0,0.0,0.0,0.0,0.0,0.0,0.0,0.0,0.0,0.0,0.0,0.0,0.0,0.0,0.0,0.0,0.0,0.0,0.0,0.0,0.0,0.0,0.0,0.0,0.0,0.0,0.0,0.0,0.0,0.0,0.0,0.0,0.0,0.0,0.0,0.0,0.0,0.0,0.0,0.0,0.0,0.0,0.0,0.0,0.0,0.0,0.0,0.0,0.0,0.0,0.0,0.0,0.0,0.0,1.0089,0.8495,0.893,0.9903,1.1449,1.2928,1.4274,1.5588,0.0,0.0,0.0,0.0,0.0,0.0,0.0,0.0,0.0,0.0,0.0,0.0,0.0,0.0,0.0,0.0,0.0,0.0,0.0,0.0,0.0,0.0,0.0,0.0,0.0,0.0,0.0,0.0,0.0,0.0,0.0,0.0,0.0,0.0,0.0,0.0,0.0,0.0,0.0,0.0,0.0,0.0,0.0,0.0,0.0,0.0,0.0,0.0,0.0,0.0,0.0,0.0,0.0,0.0,0.0,0.0,0.0,0.0,0.0,0.0,0.0,0.0,0.0,0.0,0.0,0.0,0.0,0.0,0.0,0.0,0.0,0.0,0.0,0.0,0.0,0.0,0.0,0.0,0.0,0.0,0.0,0.0,0.0,0.0,0.0,0.0,0.0,0.0,0.0,0.0,0.0,0.0,0.0,0.0,0.0,0.0,0.0,0.0,0.0,0.0,0.0,0.0,0.0,0.0,1.4379,1.2906,1.3432,1.4155,1.4668,1.5788,1.6749,1.741,0.0,0.0,0.0,0.0,0.0,0.0,0.0,0.0,0.0,0.0,0.0,0.0,0.0,0.0,0.0,0.0,0.0,0.0,0.0,0.0,0.0,0.0,0.0,0.0,0.0,0.0,0.0,0.0,0.0,0.0,0.0,0.0,0.0,0.0,0.0,0.0,0.0,0.0,0.0,0.0,0.0,0.0,0.0,0.0,0.0,0.0,0.0,0.0,0.0,0.0,0.0,0.0,0.0,0.0,0.0,0.0,0.0,0.0,0.0,0.0,0.0,0.0,0.0,0.0,0.0,0.0,0.0,0.0,0.0,0.0,0.0,0.0,0.0,0.0,0.0,0.0,0.0,0.0,0.0,0.0,0.0,0.0,0.0,0.0,0.0,0.0,0.0,0.0,0.0,0.0,0.0,0.0,0.0,0.0,0.0,0.0,0.0,0.0,0.0,0.0,0.0,0.0,0.0,1.8647,1.7768,1.6553,1.6867,1.7331,1.7617,1.8339,1.8935,1.9317,1.9172,0.0,0.0,0.0,0.0,0.0,0.0,0.0,0.0,0.0,0.0,0.0,0.0,0.0,0.0,0.0,0.0,0.0,0.0,0.0,0.0,0.0,0.0,0.0,0.0,0.0,0.0,0.0,0.0,0.0,0.0,0.0,0.0,0.0,0.0,0.0,0.0,0.0,0.0,0.0,0.0,0.0,0.0,0.0,0.0,0.0,0.0,0.0,0.0,0.0,0.0,0.0,0.0,0.0,0.0,0.0,0.0,0.0,0.0,0.0,0.0,0.0,0.0,0.0,0.0,0.0,0.0,0.0,0.0,0.0,0.0,0.0,0.0,0.0,0.0,0.0,0.0,0.0,0.0,0.0,0.0,0.0,0.0,0.0,0.0,0.0,0.0,0.0,0.0,0.0,0.0,0.0,0.0,0.0,0.0,0.0,0.0,0.0,0.0,0.0,0.0,0.0,0.0,2.1216,2.0777,1.9811,2.0098,2.0421,2.0424,2.0839,2.1172,2.1262,2.1303,0.0,0.0,0.0,0.0,0.0,0.0,0.0,0.0,0.0,0.0,0.0,0.0,0.0,0.0,0.0,0.0,0.0,0.0,0.0,0.0,0.0,0.0,0.0,0.0,0.0,0.0,0.0,0.0,0.0,0.0,0.0,0.0,0.0,0.0,0.0,0.0,0.0,0.0,0.0,0.0,0.0,0.0,0.0,0.0,0.0,0.0,0.0,0.0,0.0,0.0,0.0,0.0,0.0,0.0,0.0,0.0,0.0,0.0,0.0,0.0,0.0,0.0,0.0,0.0,0.0,0.0,0.0,0.0,0.0,0.0,0.0,0.0,0.0,0.0,0.0,0.0,0.0,0.0,0.0,0.0,0.0,0.0,0.0,0.0,0.0,0.0,0.0,0.0,0.0,0.0,0.0,0.0,0.0,0.0,0.0,0.0,0.0,0.0,0.0,0.0,0.0,0.0,2.378,2.3566,2.2724,2.3571,2.3895,2.3266,2.3641,2.3722,2.3248,2.242,0.0,0.0,0.0,0.0,0.0,0.0,0.0,0.0,0.0,0.0,0.0,0.0,0.0,0.0,0.0,0.0,0.0,0.0,0.0,0.0,0.0,0.0,0.0,0.0,0.0,0.0,0.0,0.0,0.0,0.0,0.0,0.0,0.0,0.0,0.0,0.0,0.0,0.0,0.0,0.0,0.0,0.0,0.0,0.0,0.0,0.0,0.0,0.0,0.0,0.0,0.0,0.0,0.0,0.0,0.0,0.0,0.0,0.0,0.0,0.0,0.0,0.0,0.0,0.0,0.0,0.0,0.0,0.0,0.0,0.0,0.0,0.0,0.0,0.0,0.0,0.0,0.0,0.0,0.0,0.0,0.0,0.0,0.0,0.0,0.0,0.0,0.0,0.0,0.0,0.0,0.0,0.0,0.0,0.0,0.0,0.0,0.0,0.0,0.0,0.0,0.0,0.0,2.5385,2.5401,2.4858,2.5346,2.5578,2.5154,2.5143,2.5103,2.4923,0.0,0.0,0.0,0.0,0.0,0.0,0.0,0.0,0.0,0.0,0.0,0.0,0.0,0.0,0.0,0.0,0.0,0.0,0.0,0.0,0.0,0.0,0.0,0.0,0.0,0.0,0.0,0.0,0.0,0.0,0.0,0.0,0.0,0.0,0.0,0.0,0.0,0.0,0.0,0.0,0.0,0.0,0.0,0.0,0.0,0.0,0.0,0.0,0.0,0.0,0.0,0.0,0.0,0.0,0.0,0.0,0.0,0.0,0.0,0.0,0.0,0.0,0.0,0.0,0.0,0.0,0.0,0.0,0.0,0.0,0.0,0.0,0.0,0.0,0.0,0.0,0.0,0.0,0.0,0.0,0.0,0.0,0.0,0.0,0.0,0.0,0.0,0.0,0.0,0.0,0.0,0.0,0.0,0.0,0.0,0.0,0.0,0.0,0.0,0.0,0.0,0.0,2.5959,2.6323,2.6574,2.6402,2.7002,2.7227,2.6909,2.6745,2.6604,2.6392,0.0,0.0,0.0,0.0,0.0,0.0,0.0,0.0,0.0,0.0,0.0,0.0,0.0,0.0,0.0,0.0,0.0,0.0,0.0,0.0,0.0,0.0,0.0,0.0,0.0,0.0,0.0,0.0,0.0,0.0,0.0,0.0,0.0,0.0,0.0,0.0,0.0,0.0,0.0,0.0,0.0,0.0,0.0,0.0,0.0,0.0,0.0,0.0,0.0,0.0,0.0,0.0,0.0,0.0,0.0,0.0,0.0,0.0,0.0,0.0,0.0,0.0,0.0,0.0,0.0,0.0,0.0,0.0,0.0,0.0,0.0,0.0,0.0,0.0,0.0,0.0,0.0,0.0,0.0,0.0,0.0,0.0,0.0,0.0,0.0,0.0,0.0,0.0,0.0,0.0,0.0,0.0,0.0,0.0,0.0,0.0,0.0,0.0,0.0,0.0,0.0,0.0,2.592,2.655,2.7162,2.724,2.8612,2.9267,2.8569,2.8495,2.8271,0.0,0.0,0.0,0.0,0.0,0.0,0.0,0.0,0.0,0.0,0.0,0.0,0.0,0.0,0.0,0.0,0.0,0.0,0.0,0.0,0.0,0.0,0.0,0.0,0.0,0.0,0.0,0.0,0.0,0.0,0.0,0.0,0.0,0.0,0.0,0.0,0.0,0.0,0.0,0.0,0.0,0.0,0.0,0.0,0.0,0.0,0.0,0.0,0.0,0.0,0.0,0.0,0.0,0.0,0.0,0.0,0.0,0.0,0.0,0.0,0.0,0.0,0.0,0.0,0.0,0.0,0.0,0.0,0.0,0.0,0.0,0.0,0.0,0.0,0.0,0.0,0.0,0.0,0.0,0.0,0.0,0.0,0.0,0.0,0.0,0.0,0.0,0.0,0.0,0.0,0.0,0.0,0.0,0.0,0.0,0.0,0.0,0.0,0.0,0.0,0.0,0.0,0.0,2.7575,2.7773,2.8135,2.8785,2.9771,3.0424,3.0443,3.0037,2.9617,2.9341,0.0,0.0,0.0,0.0,0.0,0.0,0.0,0.0,0.0,0.0,0.0,0.0,0.0,0.0,0.0,0.0,0.0,0.0,0.0,0.0,0.0,0.0,0.0,0.0,0.0,0.0,0.0,0.0,0.0,0.0,0.0,0.0,0.0,0.0,0.0,0.0,0.0,0.0,0.0,0.0,0.0,0.0,0.0,0.0,0.0,0.0,0.0,0.0,0.0,0.0,0.0,0.0,0.0,0.0,0.0,0.0,0.0,0.0,0.0,0.0,0.0,0.0,0.0,0.0,0.0,0.0,0.0,0.0,0.0,0.0,0.0,0.0,0.0,0.0,0.0,0.0,0.0,0.0,0.0,0.0,0.0,0.0,0.0,0.0,0.0,0.0,0.0,0.0,0.0,0.0,0.0,0.0,0.0,0.0,0.0,0.0,0.0,0.0,0.0,0.0,0.0,0.0,2.8002,2.8119,2.8543,2.9361,3.0287,3.1008,3.1344,3.0924,3.0413,3.0048,0.0,0.0,0.0,0.0,0.0,0.0,0.0,0.0,0.0,0.0,0.0,0.0,0.0,0.0,0.0,0.0,0.0,0.0,0.0,0.0,0.0,0.0,0.0,0.0,0.0,0.0,0.0,0.0,0.0,0.0,0.0,0.0,0.0,0.0,0.0,0.0,0.0,0.0,0.0,0.0,0.0,0.0,0.0,0.0,0.0,0.0,0.0,0.0,0.0,0.0,0.0,0.0,0.0,0.0,0.0,0.0,0.0,0.0,0.0,0.0,0.0,0.0,0.0,0.0,0.0,0.0,0.0,0.0,0.0,0.0,0.0,0.0,0.0,0.0,0.0,0.0,0.0,0.0,0.0,0.0,0.0,0.0,0.0,0.0,0.0,0.0,0.0,0.0,0.0,0.0,0.0,0.0,0.0,0.0,0.0,0.0,0.0,0.0,0.0,0.0,0.0,0.0,2.7779,2.8187,2.8745,2.947,3.0563,3.136,3.1689,3.1406,3.0869,3.0217,0.0,0.0,0.0,0.0,0.0,0.0,0.0,0.0,0.0,0.0,0.0,0.0,0.0,0.0,0.0,0.0,0.0,0.0,0.0,0.0,0.0,0.0,0.0,0.0,0.0,0.0,0.0,0.0,0.0,0.0,0.0,0.0,0.0,0.0,0.0,0.0,0.0,0.0,0.0,0.0,0.0,0.0,0.0,0.0,0.0,0.0,0.0,0.0,0.0,0.0,0.0,0.0,0.0,0.0,0.0,0.0,0.0,0.0,0.0,0.0,1.974,1.9353,0.0,0.0,0.0,0.0,0.0,0.0,0.0,0.0,0.0,0.0,0.0,0.0,0.0,0.0,0.0,0.0,0.0,0.0,0.0,0.0,0.0,0.0,0.0,0.0,0.0,0.0,0.0,0.0,0.0,0.0,0.0,0.0,0.0,0.0,0.0,0.0,0.0,0.0,0.0,0.0,2.9528,2.9724,3.0269,3.1253,3.224,3.3093,3.3552,3.2976,3.2097,3.0948,2.8288,0.0,0.0,0.0,0.0,0.0,0.0,0.0,0.0,0.0,0.0,0.0,0.0,0.0,0.0,0.0,0.0,0.0,0.0,0.0,0.0,0.0,0.0,0.0,0.0,0.0,0.0,0.0,0.0,0.0,0.0,0.0,0.0,0.0,0.0,0.0,0.0,0.0,0.0,0.0,0.0,0.0,0.0,0.0,0.0,0.0,0.0,0.0,0.0,0.0,0.0,0.0,0.0,0.0,0.0,0.0,0.0,0.0,0.0,0.0,2.2285,2.1819,0.0,0.0,0.0,0.0,0.0,0.0,0.0,0.0,0.0,0.0,0.0,0.0,0.0,0.0,0.0,0.0,0.0,0.0,0.0,0.0,0.0,0.0,0.0,0.0,0.0,0.0,0.0,0.0,0.0,0.0,0.0,0.0,0.0,0.0,0.0,0.0,0.0,0.0,0.0,0.0,3.0481,3.0851,3.1351,3.1838,3.2742,3.3487,3.3855,3.3571,3.2722,3.1224,2.8676,0.0,0.0,0.0,0.0,0.0,0.0,0.0,0.0,0.0,0.0,0.0,0.0,0.0,0.0,0.0,0.0,0.0,0.0,0.0,0.0,0.0,0.0,0.0,0.0,0.0,0.0,0.0,0.0,0.0,0.0,0.0,0.0,0.0,0.0,0.0,0.0,0.0,0.0,0.0,0.0,0.0,0.0,0.0,0.0,0.0,0.0,0.0,0.0,0.0,0.0,0.0,0.0,0.0,1.8759,1.954,2.0634,2.2299,2.3815,2.5009,2.4991,2.4753,2.419,2.421,0.0,0.0,0.0,0.0,0.0,0.0,0.0,0.0,0.0,0.0,0.0,0.0,0.0,0.0,0.0,0.0,0.0,0.0,0.0,0.0,0.0,0.0,4.2784,4.3748,4.4165,4.3846,4.2154,0.0,0.0,0.0,0.0,0.0,0.0,0.0,0.0,0.0,0.0,0.0,3.1429,3.1901,3.2313,3.2445,3.3089,3.3606,3.3944,3.3909,3.3108,3.1356,2.9032,2.6106,0.0,0.0,0.0,0.0,0.0,0.0,0.0,0.0,0.0,0.0,0.0,0.0,0.0,0.0,0.0,0.0,0.0,0.0,0.0,0.0,0.0,0.0,0.0,0.0,0.0,0.0,0.0,0.0,0.0,0.0,0.0,0.0,1.7235,1.8211,0.0,0.0,0.0,0.0,0.0,0.0,0.0,0.0,0.0,0.0,0.0,0.0,0.0,2.5447,2.355,2.3271,2.2399,2.0975,2.1977,2.2631,2.2883,2.4859,2.6136,2.6882,2.8168,0.0,2.5463,2.618,0.0,0.0,0.0,0.0,0.0,0.0,0.0,0.0,0.0,0.0,0.0,0.0,0.0,0.0,0.0,0.0,0.0,0.0,0.0,0.0,0.0,0.0,4.3861,4.4465,4.4555,4.4474,4.423,4.2589,4.0658,3.9176,3.8537,3.7779,0.0,0.0,0.0,0.0,0.0,0.0,3.3598,3.3336,3.3467,3.4507,3.4631,3.4861,3.5303,3.4642,3.3487,3.1869,2.9772,2.747,2.5102,2.1917,0.0,0.0,0.0,0.0,0.0,0.0,0.0,0.0,0.0,0.0,0.0,0.0,0.0,0.0,0.0,0.0,0.0,0.0,0.0,0.0,0.0,0.0,0.0,0.0,0.0,0.0,0.0,0.0,0.0,1.6868,1.8396,1.9383,2.067,2.1793,0.0,0.0,0.0,0.0,0.0,0.0,0.0,0.0,0.0,2.8755,2.8763,2.8077,2.6762,2.5952,2.5061,2.4141,2.4889,2.5289,2.5571,2.7384,2.8576,2.9355,3.0392,3.018,2.8861,2.8057,2.7199,2.6348,0.0,0.0,0.0,0.0,2.0782,1.9285,1.8467,1.7765,1.7117,1.6534,0.0,0.0,0.0,0.0,0.0,0.0,0.0,3.8374,3.9984,4.2011,4.379,4.4544,4.4651,4.464,4.464,4.4067,4.2917,4.1175,4.0412,3.9568,3.8288,3.8024,0.0,0.0,0.0,3.5623,3.4492,3.4534,3.4762,3.4896,3.5136,3.5288,3.5217,3.4713,3.3889,3.2692,3.0991,2.908,2.6936,2.4697,2.2867,0.0,0.0,0.0,0.0,0.0,0.0,0.0,0.0,0.0,0.0,0.0,0.0,0.0,0.0,0.0,0.0,0.0,0.0,0.0,0.0,0.0,0.0,0.0,0.0,0.0,0.0,0.0,0.0,1.8081,1.9479,2.0665,2.1857,2.298,0.0,0.0,0.0,0.0,0.0,0.0,2.9903,3.0581,3.0945,3.0879,3.0528,3.0054,2.9385,2.829,2.7389,2.6979,2.7284,2.7707,2.8184,2.9577,3.0636,3.162,3.2313,3.2371,3.1868,3.0181,2.9095,2.8508,2.7354,2.6259,2.5183,2.4551,2.3203,2.1645,2.079,2.0074,1.9383,1.8425,1.9372,2.1061,2.2577,0.0,0.0,0.0,0.0,3.8688,4.0168,4.1913,4.3406,4.4068,4.4278,4.4256,4.4229,4.4345,4.3986,4.2493,4.1956,4.1321,3.9939,3.9683,0.0,3.7181,3.7262,3.6985,3.5515,3.569,3.5742,3.544,3.5601,3.5629,3.5453,3.5063,3.4488,3.3607,3.228,3.0647,2.8716,2.7203,2.5567,2.3896,0.0,0.0,0.0,0.0,0.0,0.0,0.0,0.0,0.0,0.0,0.0,0.0,0.0,0.0,0.0,0.0,0.0,0.0,0.0,0.0,0.0,0.0,0.0,0.0,0.0,0.0,0.0,0.0,0.0,2.1722,2.2985,0.0,0.0,0.0,0.0,2.936,2.9795,3.0774,3.2494,3.2676,3.2642,3.2815,3.2046,3.1411,3.095,3.0084,2.9443,2.8917,2.9238,2.9786,3.0489,3.1398,3.2411,3.3348,3.3824,3.3879,3.3654,3.258,3.1236,2.9911,2.9557,2.8731,2.7403,2.6001,2.5044,2.4071,2.2171,2.1355,2.1107,2.059,2.2136,2.4711,2.6963,2.9217,0.0,0.0,3.6025,3.8369,3.9406,4.1139,4.2625,4.2961,4.3085,4.3063,4.3075,4.3016,4.3011,4.276,4.3368,4.3231,4.1156,0.0,4.0701,3.9167,3.8504,3.7979,3.7529,3.6626,3.6354,3.7011,3.6365,3.6149,3.6849,3.5983,3.512,3.4558,3.3395,3.2101,3.0678,2.9131,2.8213,2.809,2.6134,0.0,0.0,0.0,0.0,0.0,0.0,0.0,0.0,0.0,0.0,0.0,0.0,0.0,0.0,0.0,0.0,0.0,0.0,0.0,0.0,0.0,0.0,0.0,0.0,0.0,0.0,0.0,0.0,2.32,2.4436,0.0,2.6717,2.7747,2.8923,3.0314,3.0829,3.1837,3.3164,3.3454,3.3638,3.3922,3.3367,3.297,3.2811,3.2195,3.1712,3.162,3.2125,3.255,3.2799,3.3654,3.4412,3.5231,3.5401,3.5596,3.5639,3.4932,3.3706,3.2061,3.108,3.0278,2.9633,2.8174,2.7042,2.5912,2.4465,2.3664,2.3388,2.3315,2.3989,2.5317,2.7922,2.9553,3.1054,3.3719,3.597,3.781,3.9296,4.0804,4.2061,4.2513,4.2811,4.295,4.2716,4.3178,4.3385,4.2738,4.3145,4.3105,4.1736,4.1696,4.1346,3.9787,3.9006,3.8555,3.8309,3.7565,3.7139,3.7258,3.6775,3.6556,3.6773,3.5793,3.5156,3.5301,3.397,3.2795,3.1897,3.0834,2.9889,2.8928,2.8222,2.781,0.0,0.0,0.0,0.0,0.0,0.0,0.0,0.0,0.0,0.0,0.0,0.0,0.0,0.0,0.0,0.0,0.0,0.0,0.0,0.0,0.0,0.0,0.0,0.0,0.0,2.2011,2.3093,2.4705,2.5767,2.6824,2.7976,2.9107,3.0265,3.1304,3.22,3.3046,3.3975,3.4378,3.4612,3.4886,3.4463,3.4285,3.437,3.3878,3.3747,3.3983,3.4286,3.4806,3.5392,3.5725,3.6307,3.7156,3.6981,3.6947,3.6986,3.6655,3.5659,3.4384,3.2768,3.187,3.124,3.0097,2.8768,2.7252,2.5807,2.5037,2.4681,2.4934,2.5273,2.5851,2.8283,2.9503,3.0726,3.3456,3.5359,3.6989,3.8351,3.9866,4.0998,4.1678,4.1903,4.209,4.22,4.2567,4.2892,4.2361,4.2824,4.2971,4.192,4.1925,4.1523,4.0126,3.942,3.896,3.8703,3.815,3.7832,3.7872,3.7588,3.7287,3.7104,3.6307,3.586,3.6012,3.4898,3.3903,3.3084,3.2346,3.1424,3.0207,3.0227,3.0037,2.9611,0.0,0.0,0.0,0.0,0.0,0.0,0.0,0.0,0.0,0.0,0.0,0.0,0.0,0.0,0.0,0.0,0.0,0.0,0.0,0.0,0.0,0.0,0.0,2.3106,2.3714,2.4686,2.5935,2.7035,2.7966,2.8785,3.0075,3.1457,3.2394,3.3538,3.4556,3.525,3.5641,3.5901,3.5901,3.5497,3.5306,3.548,3.5146,3.5202,3.5926,3.5693,3.6524,3.8196,3.7635,3.7963,3.9075,3.8604,3.8111,3.7641,3.7618,3.7266,3.6521,3.4845,3.3365,3.2139,3.1628,3.011,2.8107,2.6267,2.5312,2.4911,2.5459,2.592,2.6641,2.8201,2.9429,3.0581,3.2525,3.4258,3.5856,3.687,3.8222,3.9561,4.0218,4.0355,4.0546,4.1106,4.1275,4.1312,4.1576,4.2404,4.2794,4.1948,4.168,4.128,4.0237,3.9584,0.0,3.8831,3.8428,3.8427,3.9017,3.871,3.8292,3.8098,3.7532,3.7088,3.6785,3.6224,3.5462,3.4415,3.3581,3.2867,3.2206,3.2361,3.2215,3.1694,0.0,0.0,0.0,0.0,0.0,0.0,0.0,0.0,0.0,0.0,0.0,0.0,0.0,0.0,0.0,0.0,0.0,0.0,0.0,0.0,0.0,2.4223,2.4395,2.4481,2.4559,2.5353,2.6784,2.7318,2.8196,2.9405,3.0378,3.1541,3.2898,3.3662,3.4634,3.601,3.6289,3.6804,3.7317,3.7191,3.7192,3.7192,3.7545,3.773,3.7606,3.8363,3.8886,3.9117,3.912,3.9489,3.9959,3.9704,3.9648,3.9702,3.8965,3.8275,3.7607,3.5778,3.4504,3.3614,3.2352,3.0417,2.8351,2.7665,2.6641,2.5606,2.597,2.6013,2.6268,2.8125,2.9021,2.9885,3.242,3.4044,3.5188,3.6428,3.7742,3.8657,3.8883,3.9332,3.9854,3.9756,4.0065,4.044,4.0676,4.0829,4.1104,4.1727,4.168,4.128,4.0459,3.991,3.9571,3.9324,3.8881,3.8797,3.9265,3.8882,3.875,3.9076,3.8534,3.7957,3.7686,3.7062,3.6428,3.5862,3.5221,3.4717,3.4226,3.4864,3.4852,0.0,0.0,0.0,0.0,0.0,0.0,0.0,0.0,0.0,0.0,0.0,0.0,0.0,0.0,0.0,0.0,0.0,0.0,0.0,0.0,0.0,0.0,2.5772,2.5772,2.6043,2.5937,2.631,2.7525,2.821,2.9125,3.0442,3.1271,3.2504,3.3934,3.4916,3.5922,3.6971,3.7494,3.8013,3.8401,3.8401,3.8445,3.8614,3.8995,3.9358,3.9555,3.9891,4.0423,4.0986,4.0626,4.0815,4.1222,4.0959,4.0731,4.0714,4.0106,3.9312,3.8288,0.0,0.0,0.0,0.0,3.0799,2.916,2.8657,2.7777,2.6886,2.6853,2.6709,2.6798,2.7982,2.8752,2.9656,3.1827,3.3138,3.4247,3.5469,3.6634,3.7584,3.7785,3.8342,3.8933,3.9056,3.9526,3.9905,4.002,4.0224,0.0,4.116,4.1202,4.0971,4.0142,3.99,3.9721,3.9325,3.918,3.9265,3.9696,3.9546,3.9558,3.9756,3.9486,0.0,0.0,0.0,3.7594,3.6918,3.6323,0.0,0.0,0.0,3.6254,3.5779,0.0,0.0,0.0,3.5819,3.6152,0.0,0.0,0.0,0.0,0.0,0.0,0.0,0.0,0.0,0.0,0.0,0.0,0.0,0.0,0.0,0.0,2.7526,2.7091,2.7629,2.7557,2.7777,2.8337,2.9328,3.0415,3.1529,3.2564,3.3816,3.5351,3.6509,3.7441,3.8171,3.8835,0.0,0.0,0.0,3.9519,3.973,3.973,4.0334,4.1293,4.0773,4.1422,4.2959,4.1978,4.1976,4.2644,4.208,4.1707,4.1163,4.1046,4.0082,3.8512,3.7326,3.6168,3.4735,3.2613,3.1266,3.0342,2.9415,0.0,0.0,2.7758,2.7681,2.7723,2.7783,2.8472,2.9477,3.0884,3.2168,3.316,3.4031,3.5313,3.6475,3.6695,3.7246,3.784,3.8491,3.9037,3.9448,3.952,4.0123,4.0507,4.0458,4.0618,4.0435,3.9629,3.975,3.9654,3.9121,3.9265,3.9625,4.0191,0.0,0.0,4.0244,4.0285,4.004,3.9371,3.9263,3.8788,3.7775,3.7196,3.6888,3.6842,3.694,3.6992,3.6997,3.7755,3.8011,3.7937,3.6875,3.6821,0.0,0.0,0.0,0.0,0.0,0.0,0.0,0.0,0.0,0.0,0.0,0.0,0.0,0.0,0.0,2.8771,2.8235,2.8089,2.8129,2.881,2.9378,2.958,2.9997,3.0786,3.2308,3.3159,3.4051,3.5332,3.6607,3.7757,3.8528,3.921,3.9866,4.0517,4.0517,4.0603,4.0902,4.1264,4.1332,4.1293,4.1752,0.0,4.2431,4.2534,4.2716,4.3138,4.2867,4.2705,4.2539,4.1709,4.0221,3.8241,3.6781,3.5557,3.4411,3.3294,3.1856,3.0385,3.0019,2.9019,2.7905,2.7824,2.7441,2.7275,2.7835,2.8304,0.0,3.0384,3.1374,3.2166,3.2879,3.412,3.5157,3.4657,3.5626,3.6779,3.7388,3.7804,3.8291,3.9051,3.9423,3.9677,3.9803,4.0371,4.0604,3.9629,4.0068,4.0118,3.9047,3.9307,3.9768,4.0011,4.0331,4.0684,4.1002,4.0666,4.0293,4.0019,3.9495,3.9073,3.8734,3.9082,3.882,3.7911,3.8507,3.8401,3.7564,3.8318,3.8942,3.9444,3.8668,3.8329,0.0,0.0,0.0,0.0,0.0,0.0,0.0,0.0,0.0,0.0,0.0,3.3631,3.2799,0.0,3.096,3.0823,3.0106,2.975,2.9885,3.0693,3.1007,3.0548,3.1265,3.2258,3.3669,3.4432,3.5449,3.6737,3.7666,3.8561,3.9473,3.9997,4.0388,4.0777,4.0906,4.1164,4.1315,4.1806,4.2175,4.2426,4.2708,4.3088,4.3449,4.3318,4.3451,4.3826,4.3664,4.3381,4.3048,4.1701,4.0093,3.8353,3.7068,3.5769,3.453,3.3967,3.2708,3.1157,3.0772,2.9806,2.8654,2.8226,2.7772,2.7552,2.7865,2.8265,2.8953,3.0045,3.0956,3.173,3.2399,3.329,3.4009,3.395,3.4863,3.5887,3.6279,3.6986,3.7717,3.8003,3.8704,3.9162,3.8993,3.9756,4.0152,3.9601,3.9778,3.9841,3.9208,3.9523,3.998,4.0331,4.0608,4.1018,4.1554,4.1087,4.0559,4.0053,3.9578,3.9169,3.904,3.9309,3.9143,3.848,3.8896,3.8821,3.8155,3.9128,3.9654,3.9789,3.9926,3.9902,0.0,0.0,0.0,0.0,0.0,0.0,0.0,3.6539,3.6343,3.6434,3.599,3.5435,3.4854,3.3694,3.2809,3.2923,3.2028,3.1572,3.1837,3.2458,3.2721,3.1993,3.279,3.3891,3.5066,3.5801,3.6829,3.8058,3.8702,3.9341,4.0279,4.0647,4.0906,4.1035,4.1293,4.1421,4.1444,4.2166,4.2754,4.3427,4.3388,4.3663,4.4468,4.4016,4.395,4.4347,4.4251,4.3893,4.3114,4.1485,4.0042,3.8689,3.7675,3.632,3.4785,3.4439,3.3308,3.1913,3.1424,3.0495,2.9597,2.8834,2.8325,2.8009,2.7891,2.8262,2.8867,2.9569,3.0388,3.1168,3.1876,3.2468,3.3134,3.3487,3.4325,3.5015,3.5427,3.6444,3.727,3.7086,3.8161,3.8872,3.8303,3.8891,3.945,3.9344,3.9431,3.9459,3.9324,3.9768,4.0191,4.0677,4.1018,4.1327,4.1597,4.1123,4.0492,3.9795,3.961,3.9433,3.9237,3.9369,3.9314,3.9018,3.9128,3.9007,3.86,3.9742,4.0193,3.9985,4.0935,4.114,3.8194,3.8246,3.8149,3.8254,3.8509,3.9132,0.0,4.03,3.987,3.9369,3.9237,3.8513,3.6555,3.5898,3.5122,3.3848,3.3311,3.301,3.2984,3.361,3.4317,3.4815,3.4739,3.495,3.5763,3.6789,3.7636,3.8191,3.9099,3.9757,4.0279,4.0647,4.1035,4.1678,4.2038,4.2189,4.2212,4.2822,4.3098,4.2915,4.3224,4.3475,4.3897,4.385,4.395,4.4323,4.4086,4.377,4.3065,4.146,4.0154,3.9046,3.8,3.6614,3.5005,3.4051,3.3016,3.1913,3.1424,3.0599,2.9869,2.9177,2.89,2.8621,2.8349,2.8281,2.8486,2.8759,2.9359,3.012,3.0516,3.1721,3.2746,3.2721,3.3447,3.4402,3.5135,3.5813,3.6333,3.6628,3.7784,3.853,3.7709,3.82,3.8667,3.8581,3.9295,3.9638,3.9179,3.9737,4.0301,4.0539,4.1122,4.1277,4.0688,4.0261,3.9762,3.915,3.9918,4.0304,3.9995,4.0734,4.071,3.9771,3.9771,3.9444,3.8766,3.9598,4.0343,4.1025,4.1723,4.1606,3.9756,4.0022,4.0105,3.9545,4.0095,4.0852,4.1113,4.1216,4.109,4.0666,4.0105,3.9188,3.7709,3.7059,3.6324,3.5201,3.4891,3.4833,3.4796,3.5201,3.5838,3.6261,3.629,3.6443,3.6904,3.7502,3.8171,3.8702,3.9625,4.0148,4.0356,4.1008,4.1415,4.1398,4.2155,4.2443,4.2316,4.3177,4.3553,4.3451,4.3701,4.395,4.4075,4.4075,4.4031,4.411,4.4179,4.3733,4.2885,4.159,4.0401,3.9354,3.8084,3.6614,3.5155,3.4716,3.3629,3.224,3.1834,3.1116,3.0391,2.9764,2.9363,2.894,2.8621,2.8584,2.8652,2.8996,2.9459,2.9971,3.062,3.1295,3.1924,3.2431,3.3106,3.397,3.4667,3.5017,3.5519,3.6117,3.6636,3.7033,3.698,3.7401,3.778,3.7955,3.8609,3.9121,3.9265,3.9778,4.0255,4.0493,4.0988,4.0895,3.9936,3.978,3.9715,3.9499,3.9962,4.0325,4.0639,4.0565,4.0311,3.9902,3.9959,3.9851,3.9578,4.0932,4.1773,4.2128,4.2891,4.3115,4.1103,4.1507,4.1673,4.0796,4.1545,4.214,4.1788,4.1913,4.2005,4.161,4.1013,4.004,3.8603,3.8046,3.7554,3.6495,3.644,3.6654,3.6654,3.6924,3.7193,3.7616,3.786,3.8041,3.8109,3.8444,3.8819,3.9473,4.0018,4.0423,4.068,4.1135,4.1239,4.1024,4.2108,4.2613,4.2213,4.3357,4.395,4.3802,4.4099,4.4347,4.4347,4.4202,4.4159,4.4134,4.4017,4.3614,4.2938,4.1681,4.0722,3.9685,3.8407,3.6906,3.5489,3.5362,3.4119,3.2544,3.2218,3.1607,3.0888,3.0391,2.9869,2.9343,2.9046,2.9053,2.9075,2.9311,2.9527,2.9937,3.0662,3.1061,3.1424,3.224,3.3047,3.3645,3.4237,3.4631,3.5075,3.5579,3.5839,3.6123,3.6407,3.677,3.7121,3.7402,3.7976,3.8575,3.9307,4.006,4.0634,4.0926,4.0896,4.0662,4.0151,3.9845,3.983,4.0197,4.0451,4.0779,4.1245,4.1009,4.0803,4.0606,4.0578,4.0403,4.0315,4.1577,4.2278,4.2334,4.316,4.3652,4.1892,4.228,4.2683,4.2567,4.2677,4.2799,4.3177,4.3302,4.3051,4.242,4.2293,4.1497,3.9346,3.939,3.9171,3.755,3.7707,3.7975,3.7975,3.8395,3.8814,3.9078,3.9451,3.9692,3.9583,3.9563,3.9626,4.0236,4.0462,4.068,4.108,4.0604,4.0478,4.0846,4.197,4.2474,4.2079,4.3588,4.4075,4.3802,4.4099,4.4347,4.4323,4.4062,4.4183,4.447,4.3597,4.3358,4.3258,4.1593,4.0706,4.0365,3.8941,3.7557,3.6309,3.5797,3.4426,3.2891,3.2521,3.2015,3.1527,3.0991,3.0599,3.0287,2.9764,2.9574,2.9469,2.9152,2.9363,2.9784,3.0308,3.0827,3.1424,3.224,3.2869,3.3492,3.3965,3.4628,3.5137,3.5164,3.5872,3.6415,3.5982,3.6273,3.6716,3.6985,3.7519,3.8248,3.9307,4.0478,4.1456,4.2013,4.1018,4.0716,4.1634,4.0489,4.0058,4.0893,4.1756,4.2118,4.1999,4.2954,4.3138,4.2411,4.1853,4.1288,4.0782,4.0849,4.0903,4.1062,4.1782,4.2522,4.3903,4.3836,4.3669,4.3631,4.3828,4.3978,4.3647,4.4088,4.438,4.3749,4.302,4.221,4.1361,4.0612,4.0037,3.9491,3.9815,3.9923,3.9656,4.0055,4.0212,4.0279,4.0103,4.0166,4.0755,4.0493,4.0342,4.0257,4.0717,4.0954,4.108,4.0975,4.1045,4.1167,4.2292,4.2796,4.2673,4.3812,4.4223,4.4075,4.4223,4.3986,4.3313,4.3965,4.4007,4.3438,4.3622,4.3475,4.305,4.1529,4.0789,4.034,3.8941,3.7453,3.6105,3.5876,3.4832,3.3392,3.2869,3.2443,3.2139,3.171,3.1403,3.1116,3.0578,3.0287,3.0016,2.9601,2.9829,3.0203,3.0627,3.1287,3.1936,3.2566,3.3269,3.3773,3.3811,3.4125,3.4391,3.428,3.4476,3.4787,3.5073,3.5517,3.6197,3.724,3.8127,3.9017,4.0021,4.0746,4.1264,4.1438,4.1084,4.0884,4.1048,4.0534,4.0626,4.1579,4.1874,4.2261,4.3053,4.2535,4.2266,4.2256,4.1627,4.1283,4.1204,4.1711,4.2238,4.2906,4.3178,4.3688,4.5387,4.5278,4.4952,4.4888,4.484,4.4822,4.4443,4.4712,4.4957,4.4278,4.3525,4.2843,4.2343,4.1614,4.0909,4.0843,4.1109,4.1241,4.0848,4.1265,4.1461,4.1209,4.1002,4.1084,4.1399,4.1264,4.0896,4.0662,4.0851,4.0864,4.0806,4.067,4.0634,4.0755,4.1727,4.2323,4.2512,4.3525,4.4058,4.4034,4.3866,4.3433,4.3022,4.3643,4.3561,4.3128,4.3362,4.3187,4.261,4.138,4.0649,4.012,3.9006,3.7539,3.6146,3.6135,3.5236,3.3866,3.3469,3.3069,3.2745,3.2645,3.2342,3.1891,3.1309,3.096,3.0568,2.9976,3.0061,3.0376,3.093,3.1528,3.2219,3.2823,3.3552,3.3906,3.372,3.3902,3.3991,3.407,3.3983,3.4118,3.4685,3.5192,3.5951,3.7134,3.8127,3.909,4.0161,4.0746,4.1131,4.1246,4.1182,4.1146,4.1197,4.097,4.1063,4.1699,4.1852,4.213,4.2716,4.2109,4.1942,4.2267,4.1628,4.141,4.1528,4.1989,4.2466,4.3082,4.3407,4.3955,4.6426,4.6573,4.6577,4.624,4.5993,4.5622,4.5454,4.5355,4.5208,4.4281,4.4038,4.3747,4.2592,4.2039,4.1742,4.1738,4.1868,4.1851,4.1466,4.2153,4.2525,4.1979,4.2143,4.212,4.1888,4.1708,4.141,4.1137,4.0806,4.0571,4.0112,3.9584,3.9567,3.9848,4.0645,4.1257,4.1798,4.2901,4.3505,4.3457,4.2976,4.2855,4.3138,4.3026,4.2988,4.3258,4.31,4.266,4.2108,4.123,4.0464,3.9594,3.905,3.7857,3.6382,3.642,3.5537,3.4335,3.4162,3.3767,3.3369,3.3545,3.3247,3.2655,3.1959,3.1528,3.1219,3.0395,3.0166,3.0395,3.1174,3.1703,3.2332,3.3155,3.3492,3.3768,3.3911,3.3971,3.404,3.4173,3.4198,3.4285,3.4779,3.5266,3.5951,3.6766,3.7414,3.8323,3.9737,4.0578,4.1189,4.1522,4.1278,4.1374,4.2045,4.1596,4.1303,4.1303,4.1699,4.173,4.1247,4.1744,4.2199,4.2464,4.1903,4.1629,4.1812,4.1679,4.1663,4.1766,4.262,4.3374,4.7658,4.7857,4.7956,4.7109,4.7035,4.7208,4.6502,4.6723,4.6748,4.591,4.5447,4.4799,4.3782,4.3527,4.3238,4.2919,4.3435,4.3659,4.2996,4.3391,4.3555,4.2995,4.2599,4.2366,4.1992,4.1654,4.1091,4.0357,4.0318,4.0364,4.0617,4.0243,4.0176,4.0669,4.1424,4.1994,4.252,4.3144,4.3313,4.2952,4.2832,4.2469,4.1721,4.2568,4.27,4.2421,4.2812,4.266,4.2108,4.1447,4.0464,3.9387,3.9258,3.7959,3.6185,3.6521,3.5737,3.4433,3.4531,3.4261,3.3866,3.3965,3.3767,3.3254,3.2551,3.2097,3.172,3.0746,3.0673,3.1083,3.17,3.231,3.2943,3.365,3.3785,3.3672,3.3455,3.3411,3.3375,3.3132,3.337,3.3785,3.4464,3.4752,3.5277,3.6294,3.7028,3.8052,3.9523,4.0161,4.0615,4.1189,4.1365,4.1595,4.1947,4.1533,4.1365,4.1488,4.1363,4.1354,4.1554,4.146,4.1527,4.1835,4.1317,4.1409,4.1926,4.1926,4.2462,4.3648,4.3855,4.4062,4.8863,4.909,4.9064,4.8421,4.8243,4.7988,4.7339,4.7339,4.7118,4.6217,4.5822,4.5501,4.4483,4.417,4.3909,4.3964,4.4103,4.4266,4.3955,4.4215,4.4318,4.3749,4.3103,4.2673,4.255,4.1747,4.0968,4.0545,4.0283,4.0089,4.0158,3.9962,4.0012,4.0646,4.1141,4.1852,4.2855,4.2903,4.2928,4.276,4.2279,4.1866,4.1655,4.2315,4.2495,4.2538,4.2874,4.2534,4.1538,4.113,4.0103,3.891,3.8951,3.7878,3.6502,3.6719,3.5982,3.4939,3.4798,3.4652,3.4457,3.4457,3.4237,3.3801,3.2955,3.2433,3.2034,3.1043,3.0951,3.1321,3.1809,3.2277,3.2747,3.3553,3.3482,3.3191,3.3339,3.3032,3.2832,3.2686,3.3068,3.3471,3.381,3.423,3.4868,3.5763,3.648,3.7337,3.8694,3.9523,4.0231,4.0783,4.1055,4.1323,4.162,4.1279,4.105,4.0884,4.0684,4.0532,4.0591,4.0673,4.0849,4.1184,4.1016,4.125,4.2009,4.227,4.3012,4.4234,4.4234,4.4458,4.9977,5.0204,5.009,4.9976,4.9281,4.8603,4.7916,4.76,4.7118,4.5878,4.5917,4.5927,4.4832,4.4382,4.4217,4.4817,4.447,4.4208,4.4473,4.4856,4.4953,4.4398,4.3623,4.302,4.2827,4.1708,4.1023,4.0881,4.0429,3.9887,3.9449,3.9426,3.9802,4.0457,4.0527,4.1349,4.2922,4.2543,4.2425,4.2639,4.1653,4.1492,4.1874,4.1948,4.2263,4.2749,4.2749,4.2063,4.0789,4.0498,3.9643,3.8361,3.8411,3.7819,3.702,3.6892,3.6275,3.5545,3.5016,3.4871,3.4919,3.4847,3.4628,3.4243,3.3268,3.2817,3.2394,3.1427,3.1121,3.1192,3.1687,3.2079,3.2404,3.3116,3.2967,3.2738,3.3266,3.2846,3.2389,3.2698,3.3068,3.3326,3.324,3.381,3.4647,3.5304,3.5924,3.6688,3.7644,3.887,3.9737,4.0331,4.0608,4.0851,4.1189,4.0862,4.0482,4.0062,3.9852,3.961,3.9222,3.9799,4.0288,4.0666,4.081,4.1319,4.2181,4.2652,4.3323,4.413,4.413,4.4544,5.0493,5.1204,5.147,5.03,5.0057,4.9774,4.8685,4.8292,4.7754,4.6812,4.6914,4.6579,4.4978,4.5193,4.5437,4.5092,4.5146,4.5291,4.5476,4.5404,4.5013,4.4475,4.3937,4.3187,4.2279,4.1561,4.097,4.0364,4.0247,4.0083,3.9989,4.0363,4.0808,4.1705,4.1448,4.1781,4.276,4.2256,4.211,4.211,4.1485,4.116,4.1086,4.1525,4.1614,4.1533,4.1533,4.1188,4.0572,3.9996,3.9111,3.8079,3.8515,3.7702,3.6208,3.6646,3.6275,3.5545,3.5016,3.5112,3.54,3.4968,3.4726,3.4606,3.3792,3.3196,3.2745,3.2126,3.1741,3.1704,3.2412,3.2828,3.3154,3.3692,3.349,3.2999,3.2621,3.2278,3.2177,3.2882,3.3068,3.324,3.3556,3.4063,3.4647,3.5304,3.6111,3.6822,3.7366,3.8352,3.909,3.9553,4.0191,4.0646,4.0851,4.0291,4.0003,4.0119,3.9422,3.9117,3.9448,3.9884,4.0238,4.0534,4.0631,4.1464,4.2975,4.3012,4.3459,4.4285,4.4285,4.4009,5.1022,5.1679,5.199,5.1521,5.0993,5.0457,4.9447,4.8841,4.8236,4.7499,4.743,4.6948,4.5236,4.5629,4.5872,4.4806,4.5016,4.5258,4.5229,4.5067,4.4848,4.46,4.3844,4.3192,4.2806,4.2086,4.1516,4.0918,4.0918,4.0687,4.0223,4.0739,4.1496,4.2304,4.2162,4.2401,4.2903,4.2256,4.1966,4.1966,4.1437,4.1281,4.1467,4.1598,4.1541,4.1496,4.141,4.0832,4.0045,3.9692,3.9104,3.8368,3.8404,3.7764,3.684,3.6614,3.6174,3.5545,3.5016,3.4992,3.516,3.4895,3.4823,3.463,3.4007,3.3481,3.2978,3.2428,3.2082,3.1922,3.2253,3.2592,3.2843,3.3266,3.3143,3.2871,3.2599,3.2352,3.2339,3.276,3.2896,3.2982,3.33,3.3894,3.4397,3.4977,3.579,3.6508,3.69,3.772,3.8649,3.9307,3.991,4.0247,4.0355,3.9912,3.9624,3.9666,3.9129,3.904,3.9501,3.9833,4.0138,4.0387,4.0534,4.1131,4.2261,4.2261,4.2689,4.346,4.3133,4.3113,5.131,5.1883,5.2225,5.2443,5.182,5.0905,5.0135,4.9378,4.8658,4.7884,4.7751,4.7257,4.5705,4.5954,4.6033,4.4822,4.507,4.5278,4.4915,4.4951,4.4835,4.4583,4.3746,4.3218,4.3323,4.2584,4.1972,4.1606,4.1606,4.1311,4.0621,4.1046,4.1709,4.2631,4.24,4.2544,4.283,4.216,4.1749,4.1629,4.1311,4.1298,4.1766,4.1492,4.1384,4.1519,4.109,4.0463,3.9652,3.9111,3.8819,3.8631,3.8065,3.7597,3.7297,3.6657,3.6074,3.5545,3.4918,3.4798,3.4968,3.4774,3.4726,3.4727,3.4198,3.3787,3.3256,3.2817,3.2374,3.2113,3.2113,3.2376,3.2574,3.2723,3.2537,3.2488,3.2698,3.2364,3.2253,3.2698,3.2723,3.281,3.3154,3.3751,3.4314,3.4729,3.5548,3.6163,3.642,3.7244,3.8015,3.8746,3.9395,3.9703,3.9672,3.9439,3.9277,3.9216,3.8934,3.8985,3.9448,3.9729,3.9986,4.0188,4.0337,4.0762,4.1376,4.1512,4.1835,4.2467,4.2037,4.227,5.0853,5.1529,5.1863,5.1925,5.185,5.1369,5.0135,4.9691,4.9172,4.8218,4.7829,4.7549,4.6818,4.656,4.6355,4.6301,4.631,4.6056,4.5565,4.5885,4.5719,4.4472,4.4181,4.384,4.3112,4.2675,4.2174,4.1606,4.1606,4.171,4.187,4.1136,4.1399,4.2688,4.1494,4.1232,4.211,4.1533,4.1028,4.0547,4.0676,4.0745,4.0635,4.0501,4.0695,4.0947,4.0128,3.975,3.9472,3.8282,3.8032,3.8372,3.7549,3.694,3.6483,3.6435,3.6074,3.5445,3.4722,3.4939,3.5373,3.4674,3.4628,3.4727,3.4484,3.395,3.3509,3.3179,3.2882,3.2636,3.2636,3.281,3.2982,3.2723,3.2179,3.1871,3.2537,3.1982,3.1675,3.2796,3.2896,3.2871,3.3556,3.4063,3.4564,3.5003,3.5817,3.6184,3.5836,3.6664,3.7274,3.7187,3.8153,3.8796,3.8662,3.8529,3.8705,3.9184,3.8934,3.8985,3.9309,3.9677,3.9884,3.9969,4.0087,4.0527,4.1376,4.1273,4.141,4.1681,4.1763,4.1847,5.1244,5.2196,5.2906,5.2854,5.25,5.1957,5.1098,5.0198,4.9494,4.9136,4.8681,4.8195,4.7197,4.7216,4.6998,4.5845,4.5902,4.584,4.4986,4.4969,4.4832,4.4173,4.4122,4.3797,4.3321,4.3073,4.2849,4.2174,4.1972,4.1964,4.2268,4.1866,4.2107,4.2735,4.1921,4.1489,4.1509,4.098,4.0451,3.9922,4.0231,4.033,4.0488,4.0245,4.0267,4.0376,3.9536,3.916,3.903,3.817,3.8121,3.8396,3.7863,3.7052,3.6207,3.6309,3.5681,3.4742,3.4602,3.4772,3.4817,3.47,3.451,3.4318,3.4197,3.3857,3.3509,3.3064,3.2484,3.208,3.2226,3.2147,3.224,3.2832,3.2301,3.1967,3.2599,3.229,3.2105,3.276,3.2896,3.3068,3.3641,3.423,3.4729,3.5223,3.5571,3.582,3.5878,3.6088,3.6143,3.5585,3.7195,3.8196,3.8018,3.8247,3.8451,3.8509,3.8674,3.8985,3.9288,3.9554,3.9659,3.9659,3.9781,3.9967,4.027,4.0373,4.0527,4.073,4.083,4.0929,5.1017,5.224,5.3074,5.3394,5.304,5.25,5.186,5.0842,4.9901,4.9727,4.9277,4.8667,4.7715,4.7897,4.7531,4.5885,4.611,4.5875,4.4666,4.4661,4.4603,4.4119,4.401,4.3874,4.3517,4.3295,4.2961,4.2625,4.2425,4.2258,4.2372,4.2396,4.236,4.2279,4.1774,4.1244,4.0715,4.0355,3.9898,3.9369,3.9673,3.9892,4.0133,3.9829,3.9741,3.9972,3.9184,3.8785,3.8712,3.8146,3.8065,3.8396,3.7911,3.71,3.6105,3.6309,3.5537,3.4335,3.4461,3.4413,3.4268,3.4318,3.4102,3.3883,3.3808,3.3586,3.329,3.2845,3.2127,3.1625,3.162,3.1357,3.1472,3.2336,3.2177,3.1967,3.2513,3.2463,3.2487,3.281,3.2982,3.324,3.381,3.4397,3.4924,3.5171,3.5401,3.5558,3.5574,3.5467,3.516,3.4493,3.5848,3.6831,3.7033,3.7496,3.7852,3.7976,3.8399,3.8766,3.8985,3.9202,3.9309,3.9309,3.9415,3.9468,3.9448,3.9659,3.9781,3.9986,4.0138,4.0424,4.9741,5.1073,5.1986,5.2934,5.3007,5.2778,5.2134,5.1291,5.0423,4.9814,4.9277,4.881,4.8581,4.828,4.7875,4.6977,4.7155,4.6652,4.4909,4.5463,4.5595,4.439,4.4313,4.4203,4.3899,4.3098,4.2625,4.2986,4.2625,4.2538,4.2538,4.2224,4.1883,4.1196,4.0691,4.0162,3.9633,3.9609,3.9345,3.8815,3.9116,3.9223,3.9355,3.9006,3.916,3.9652,3.9087,3.8841,3.8687,3.7941,3.7934,3.8348,3.7501,3.6867,3.6411,3.6411,3.5737,3.4654,3.3958,3.3887,3.3958,3.3335,3.3353,3.3533,3.3293,3.3032,3.2731,3.246,3.2007,3.1466,3.0984,3.0811,3.0876,3.1162,3.1394,3.1736,3.2277,3.24,3.255,3.3215,3.324,3.3411,3.423,3.4812,3.5035,3.4844,3.5438,3.563,3.4638,3.46,3.4501,3.405,3.3933,3.4304,3.546,3.597,3.6663,3.7653,3.8148,3.8408,3.8408,3.8821,3.8898,3.8788,3.8898,3.9094,3.9288,3.9309,3.9415,3.9729,3.9833,4.0442,4.9831,5.0944,5.1757,5.2471,5.2435,5.2103,5.1896,5.1305,5.0795,5.1061,5.073,5.0353,5.0587,4.9925,4.9303,4.9106,4.8204,4.7349,4.6652,4.6463,4.6031,4.5233,4.483,4.4422,4.3899,4.3432,4.3073,4.2986,4.2874,4.2588,4.1991,4.1657,4.1321,4.0959,4.0588,3.997,3.908,3.908,3.8791,3.8238,3.8558,3.8664,3.8664,3.8599,3.8729,3.9087,3.8494,3.8421,3.8502,3.8016,3.7935,3.8031,3.7397,3.6764,3.6057,3.5901,3.4889,3.3573,3.3815,3.3529,3.3007,3.3215,3.3044,3.2889,3.2901,3.3008,3.2739,3.1443,3.0793,3.0433,3.0074,3.0106,3.0433,3.1259,3.1649,3.1882,3.2277,3.2723,3.3154,3.3154,3.3641,3.4063,3.4314,3.4576,3.474,3.492,3.4748,3.4433,3.4044,3.384,3.3521,3.272,3.2703,3.3216,3.4364,3.5363,3.606,3.6487,3.71,3.7608,3.8059,3.7491,3.7536,3.8311,3.7568,3.7448,3.7938,3.7556,3.7768,3.8579,3.9149,3.9587,4.9507,5.0668,5.1502,5.2299,5.2307,5.2121,5.2121,5.1488,5.1095,5.178,5.1414,5.1128,5.1569,5.0962,5.0338,5.0009,4.8875,4.7855,4.7457,4.6706,4.6116,4.5528,4.5072,4.4531,4.4119,4.3628,4.3295,4.3184,4.3073,4.2624,4.1963,4.1496,4.0992,4.044,4.0023,3.9393,3.8503,3.8503,3.8334,3.7974,3.8185,3.8291,3.8291,3.8291,3.8291,3.8526,3.8185,3.808,0.0,3.808,3.7853,3.7637,3.7324,3.6645,3.5848,3.5322,3.4385,3.3313,3.3291,3.2957,3.2554,3.2731,3.2647,3.2471,3.2447,3.2479,3.2103,3.041,2.9885,2.9724,2.9537,2.9618,2.9967,3.1065,3.1589,3.1882,3.2277,3.2896,3.3326,3.3326,3.3725,3.423,3.4564,3.466,3.4681,3.4826,3.4427,3.3987,3.3528,3.3206,3.2751,3.2041,3.187,3.2169,3.3186,3.4363,3.5272,3.576,3.6232,3.6711,3.7123,3.6614,3.6717,3.747,3.695,3.6966,3.7528,3.7329,3.7579,3.8166,3.8592,3.881,0.0,5.0169,5.103,5.2278,5.2576,5.2537,5.2537,5.1867,0.0,5.2067,5.1668,5.1286,5.1728,5.1541,5.1058,5.0388,4.9434,4.8492,4.7725,4.6756,4.5822,4.5287,4.4964,4.4613,4.4313,4.3738,4.3381,4.333,4.3022,4.266,4.2057,4.1508,4.0709,3.9652,3.9091,3.8503,3.7998,3.7974,3.7974,3.7974,3.7974,3.7974,3.7974,3.7974,3.7974,3.7974,3.7974,3.7974,3.7974,3.7974,3.7661,3.718,3.7156,3.6507,3.5545,3.4722,3.427,3.3743,3.2528,3.2261,3.237,3.2107,3.2138,3.2288,3.2001,3.1588,3.0931,2.976,2.9364,2.9316,2.934,2.9388,2.9653,3.0639,3.1272,3.1786,3.2277,3.281,3.324,3.3641,3.3725,3.4037,3.4841,3.4848,3.4621,3.4451,3.436,3.3945,3.2872,3.2544,3.2256,3.1711,3.1307,3.1249,3.1867,3.3156,3.4364,3.5308,3.5608,3.5786,3.5786,3.5985,3.6159,3.6253,3.6884,3.7377,3.7668,3.8051,3.8254,3.8254,3.8116,3.823,4.7555,0.0,5.0511,5.1026,5.1665,5.2152,0.0,5.2001,5.1906,5.2382,5.2636,5.2783,5.3207,5.2749,5.2381,5.2665,5.1575,5.0375,4.9476,4.7873,4.635,4.5609,4.5395,4.5046,4.4422,4.3984,4.3475,4.2823,4.2333,4.1713,4.0953,4.0153,3.9536,3.9062,3.8509,3.8118,3.7974,3.7974,3.7974,3.7974,3.7974,3.7974,3.7974,3.7974,3.7892,3.7702,3.7892,3.7761,3.7358,3.7761,3.758,3.6868,3.6668,3.6194,3.5497,3.4486,3.3696,3.3052,3.2616,3.2022,3.1574,3.1721,3.1937,3.1952,3.1366,3.0858,3.0615,3.0531,2.9917,2.9388,2.9797,3.0206,3.0652,3.104,3.1712,3.2315,3.2612,3.2982,3.3386,3.3641,3.4121,3.4406,3.4419,3.4229,3.3887,3.3193,3.2861,3.2342,3.1395,3.1495,3.1339,3.0736,3.0655,3.0746,3.0921,3.2463,3.3574,3.3969,3.4243,3.4392,3.4482,3.3702,3.3841,3.4778,3.5225,3.5551,3.5754,3.6521,3.6832,3.6864,3.7223,3.7535,4.6936,4.8947,5.085,5.1243,5.188,5.2429,5.2734,5.2215,5.1881,5.2604,5.3044,5.3316,5.3774,5.3524,5.3302,5.3471,5.2243,5.0763,4.9231,4.8011,4.6964,4.5954,4.5715,4.5289,4.4356,4.3924,4.3367,4.248,4.2116,4.1464,4.0364,3.9898,3.9331,3.8656,3.821,3.7974,3.7974,3.7974,3.7974,3.7974,3.7974,3.7998,3.7785,3.7785,3.7679,3.7358,3.7334,3.7252,3.7334,3.7154,3.69,3.6589,3.6165,3.5569,3.4702,3.3696,3.3052,3.2644,3.2027,3.1645,3.1472,3.1673,3.1761,3.1753,3.1134,3.0494,3.0086,3.0134,2.9474,2.897,2.9581,3.0194,3.0737,3.0979,3.1528,3.2007,3.1982,3.2212,3.2458,3.2682,3.3286,3.3671,3.3754,3.3396,3.2962,3.2599,3.1958,3.1316,3.0656,3.0708,3.0608,3.0017,3.0083,3.0258,3.0668,3.1608,3.2299,3.2608,3.2945,3.3126,3.3066,3.267,3.2965,3.403,3.4327,3.4657,3.5056,3.5574,3.5975,3.6135,3.6384,3.6538,4.6667,4.931,5.1628,5.1968,5.2424,5.2942,5.362,5.2608,5.1817,5.2823,5.3235,5.3384,5.3724,5.3934,5.3919,5.3739,5.234,5.0537,4.8475,4.7855,4.7237,4.6087,4.5608,4.5156,4.423,4.3568,4.2883,4.2208,4.1973,4.1414,4.0252,3.9976,3.9455,3.8567,3.8224,3.807,3.7974,3.7998,3.7998,3.7974,3.7998,3.7785,3.7596,3.7596,3.7441,3.7002,3.6579,0.0,3.718,3.6256,3.6057,3.6141,3.5685,3.487,3.3863,3.2889,3.2435,3.2208,3.13,3.1247,3.1673,3.1673,3.1601,3.1456,3.1023,3.03,2.9558,2.9272,2.8817,2.8521,2.9306,2.988,3.0458,3.0906,3.126,3.1441,3.1247,3.1156,3.1248,3.1711,3.214,3.2514,3.3012,3.2562,3.2074,3.2027,3.1282,3.0549,3.0072,3.0053,2.9859,2.9485,2.9491,2.9813,3.0446,3.0567,3.0757,3.1166,3.1775,3.2018,3.1718,3.202,3.2587,3.3457,3.3638,3.4031,3.4848,3.4941,3.5275,3.5721,3.5623,3.5688,4.7046,5.0009,5.2254,5.124,5.2157,5.3388,5.3923,5.34,5.2939,5.3162,5.3553,5.3784,5.3646,5.4171,5.4671,5.4598,5.2719,5.0852,4.9848,4.8298,4.6983,4.5822,4.5129,4.4494,4.3672,4.2912,4.2285,4.1889,4.1214,4.0755,4.0774,4.0087,3.954,3.9102,3.8779,3.8455,3.7998,3.7785,3.7785,3.7974,3.7785,3.7596,3.7596,3.7892,3.744,3.6508,0.0,3.6284,3.5538,3.5662,3.5435,3.5011,3.5241,3.4674,3.3625,3.2787,3.2094,3.1455,3.1017,3.1288,3.1673,3.1673,3.136,3.0999,3.0754,2.9782,2.8834,2.8846,2.8834,2.9141,3.0143,3.0289,3.0374,3.1162,3.1136,3.0984,3.1265,3.1379,3.1468,3.1898,3.222,3.2384,3.2277,3.2097,3.1613,3.0589,3.0038,2.952,2.892,2.8866,2.8811,2.8729,2.9049,2.9176,2.9132,2.9386,2.9449,2.9259,3.0432,3.1017,3.0592,3.0652,3.1125,3.2073,3.2134,3.2786,3.4188,3.4286,3.4614,3.5073,3.5037,3.5103,4.5788,4.8524,5.0892,5.0704,5.2778,5.4804,5.4847,5.42,5.3649,5.365,5.3827,5.3971,5.3977,5.4152,5.4256,5.4097,5.2717,5.127,4.9988,4.8653,4.7334,4.5954,4.5448,4.4838,4.3805,4.32,4.249,4.1569,4.128,4.0893,4.0463,4.0207,3.9777,3.9115,3.896,3.8587,3.7976,3.7715,3.7702,3.7974,3.7892,3.7679,3.7358,3.718,3.6708,3.5922,0.0,3.5235,3.5155,3.4903,3.4792,3.4745,3.4477,3.391,3.3172,3.204,3.128,3.0667,3.0691,3.1129,3.1673,3.1496,3.1416,3.1192,3.0381,2.9603,2.8771,2.821,2.8128,2.8386,2.913,2.9463,2.9808,3.0216,3.0236,3.0147,3.0229,3.0226,3.0269,3.0586,3.0981,3.1267,3.1048,3.0791,3.0317,2.9629,2.896,2.8505,2.8368,2.8145,2.8052,2.8183,2.8314,2.8379,2.8352,2.861,2.8803,2.8958,2.9525,2.9778,2.9747,2.9747,3.0074,3.0729,3.0729,3.1426,3.276,3.2954,3.3383,3.4002,3.4264,3.4332,4.4754,4.7123,4.9421,5.0461,5.3027,5.5265,5.5556,5.4847,5.4326,5.451,5.4257,5.4188,5.4368,5.4212,5.4018,5.3552,5.2758,5.1661,4.9715,4.8686,4.7558,4.6087,4.5475,4.4784,4.3805,4.32,4.2434,4.1555,4.1454,4.1225,4.0501,4.0459,4.0138,3.9253,3.8971,3.8527,3.7949,3.7786,3.7785,3.7892,3.7868,3.7501,3.6955,3.6555,3.5934,3.5235,3.4452,3.4347,3.476,3.4193,3.4129,3.427,3.3764,3.3007,3.2082,3.0787,3.0067,2.9918,3.0123,3.0763,3.1304,3.1128,3.1121,3.0946,2.9782,2.915,2.851,2.7661,2.7452,2.7557,2.816,2.8745,2.9148,2.935,2.9415,2.9399,2.9262,2.9187,2.9209,2.9341,2.9782,3.0085,2.9943,2.9483,2.9092,2.8807,2.7986,2.7446,2.7604,2.734,2.7181,2.738,2.7577,2.7723,2.7855,2.796,2.8249,2.8573,2.8675,2.8803,2.9058,2.9121,2.9247,2.956,2.9498,3.0115,3.1443,3.1641,3.2196,3.3129,3.3507,3.3605,4.4998,4.7387,4.919,5.0385,5.2009,5.3733,5.5391,5.5265,5.4961,5.5721,5.5036,5.4413,5.4795,5.4969,5.4738,5.3537,5.2909,5.1696,4.9333,4.8304,4.724,4.5769,4.4679,4.3805,4.3136,4.1843,4.1322,4.2141,4.1439,4.1285,4.1938,4.1184,4.0338,3.9609,3.9104,3.8575,3.8046,3.7998,3.7892,3.7596,3.7358,3.6885,3.6438,3.6414,3.5642,3.4504,3.4435,3.4179,3.3784,3.3515,3.3215,3.3068,3.2998,3.1879,3.0208,2.8981,2.8607,2.8821,2.9291,2.9871,3.0296,3.0296,2.9989,2.9409,2.8677,2.7998,2.7522,2.7313,2.7231,2.7405,2.8386,2.8583,2.8771,2.9415,2.9229,2.8943,2.9101,2.9209,2.9419,2.9419,2.9327,2.925,2.9274,2.8672,2.8161,2.7996,2.7043,2.6322,2.6308,2.6151,2.6085,2.6308,2.6971,2.7348,2.7348,2.7348,2.7348,2.7146,2.7921,2.8352,2.8352,2.8573,2.8702,2.8867,2.8766,2.9367,3.0705,3.0908,3.1516,3.2489,3.2846,3.3058,4.285,4.5653,4.8292,4.919,5.1385,5.3587,5.4914,5.5642,5.615,5.6401,5.5807,5.5153,5.4819,5.447,5.4209,5.4022,5.2661,5.1276,4.986,4.8221,4.6805,4.5742,4.4862,4.4037,4.3054,4.271,4.2276,4.1913,4.1629,4.1348,4.1321,4.0721,3.9999,3.9364,3.8971,3.8503,3.7939,3.7846,3.7429,3.6909,3.6861,3.6578,3.5874,3.5338,3.4886,3.4388,3.3885,3.3654,3.3446,3.3123,3.2868,3.2591,3.1809,3.0578,2.9253,2.8748,2.8407,2.8263,2.8449,2.8928,2.9495,2.915,2.912,2.9036,2.8188,2.7638,2.7266,2.6971,2.6798,2.6926,2.7766,2.7917,2.7985,2.8441,2.8402,2.8259,2.8363,2.8498,2.8615,2.8378,2.8366,2.83,2.7923,2.7616,2.7183,2.6544,2.6022,2.5618,2.5445,2.5435,2.5503,2.5703,2.6249,2.6645,2.6714,2.6714,2.6714,2.6645,2.7188,2.7523,2.7656,2.7723,2.7855,2.796,2.7921,2.8571,2.9923,3.0131,3.0821,3.1936,3.2273,3.2417,4.1309,4.4195,4.7208,4.8341,5.0658,5.3025,5.4112,5.538,5.6273,5.6309,5.5745,5.5058,5.4382,5.3862,5.3514,5.3727,5.2238,5.0755,4.953,4.8083,4.6672,4.5635,4.4673,4.3764,4.2837,4.2486,4.2082,4.1359,4.1186,4.0942,4.0536,4.005,3.954,3.899,3.8731,3.8335,3.7793,3.7489,3.6861,3.6028,3.6048,3.5789,3.5231,3.4551,3.4116,3.3853,3.3247,3.2941,3.2895,3.2563,3.2172,3.1639,3.0443,2.9404,2.851,2.8254,2.7985,2.7759,2.792,2.828,2.8618,2.8385,2.8385,2.8379,2.7645,2.7295,2.6976,2.664,2.655,2.661,2.7103,2.7348,2.7615,2.78,2.774,2.7542,2.7622,2.764,2.7561,2.7305,2.732,2.7259,2.6747,2.6473,2.6124,2.5599,2.5036,2.4641,2.4508,2.4541,2.4749,2.5227,2.5571,2.5791,2.5861,2.5836,2.5931,2.5931,2.6233,2.6577,2.6985,2.6985,2.7053,2.7255,2.7369,2.798,2.9222,2.9547,3.0224,3.1299,3.1643,3.1716,4.0873,4.3324,4.6002,4.8089,4.9979,5.1677,5.3076,5.4306,5.5159,5.5434,5.473,5.388,5.3622,5.3204,5.2684,5.2487,5.1686,5.044,4.8376,4.7708,4.6813,4.5367,4.3903,4.2812,4.2267,4.0939,4.0195,4.0498,3.9972,3.979,3.9977,3.9515,3.914,3.8815,3.8262,3.7892,3.7596,3.7049,3.6294,3.5155,3.4644,3.4411,3.4388,3.4083,3.3627,3.2846,3.2324,3.2097,3.2052,3.1576,3.0876,3.0101,2.9091,2.8402,2.792,2.7415,2.7231,2.73,2.7805,2.7797,2.7606,2.7882,2.7651,2.7222,2.6979,2.6738,2.655,2.655,2.655,2.655,2.655,2.7044,2.751,2.78,2.7298,2.6823,2.7058,2.6736,2.6358,2.6282,2.6158,2.602,2.5825,2.5252,2.4929,2.5228,2.3977,2.3183,2.3598,2.3561,2.3875,2.4897,2.4779,2.4707,2.4707,2.4707,2.4779,2.5016,2.5016,2.5441,2.6346,2.6414,2.6508,2.6645,2.7037,2.7687,2.8703,2.9266,2.9905,3.0698,3.0898,3.0973,3.9534,4.2438,4.5645,4.6925,4.936,5.155,5.1836,5.3692,5.5423,5.5524,5.436,5.3486,5.4104,5.2919,5.2151,5.3026,5.151,5.0064,4.9294,4.7768,4.6328,4.5314,4.3903,4.2767,4.1954,4.1171,4.055,4.0219,3.9857,3.9643,3.9466,3.8956,3.8558,3.8238,3.7881,3.7702,3.7596,3.665,3.5899,3.5155,3.4439,3.4023,3.3877,3.3009,3.2757,3.2892,3.178,3.1576,3.1819,3.0785,2.9851,2.9083,2.8068,2.7765,2.7645,2.6979,2.682,2.6738,2.6729,2.6998,2.7375,2.7142,2.7142,2.7182,2.6623,2.6168,2.5884,2.5633,2.5633,2.5633,2.5801,2.5788,2.5791,2.6278,2.6245,2.6041,2.5756,2.5552,2.5424,2.5135,2.5154,2.5168,2.4915,2.4754,2.4472,2.419,2.3395,2.2838,2.3001,2.3258,2.3606,2.4181,2.4177,2.4105,2.3959,2.3936,2.4032,2.425,2.425,2.4659,2.5581,2.5652,2.5847,2.6261,2.6527,2.7212,2.84,2.8675,2.9277,3.0037,3.0037,3.0114,3.9385,4.2171,4.5184,4.7095,4.9197,5.0895,5.1598,5.2764,5.3931,5.4095,5.31,5.2577,5.3796,5.2515,5.159,5.2617,5.0944,4.9398,4.889,4.7311,4.582,4.4863,4.3458,4.2144,4.1078,4.0269,3.9783,3.9332,3.912,3.8907,3.88,3.8485,3.8104,3.7892,3.7488,3.718,3.6968,3.5923,3.5178,3.475,3.406,3.3453,3.3047,3.2529,3.2293,3.2345,3.1083,3.0678,3.062,2.9828,2.9105,2.8387,2.7603,2.7262,2.7121,2.6745,2.6633,2.655,2.6407,2.6719,2.7097,2.6727,2.6731,2.6841,2.6301,2.5786,2.538,2.5295,2.5189,2.5147,2.5123,2.4949,2.4919,2.5407,2.5201,2.4824,2.4615,2.4316,2.4171,2.4086,2.4168,2.4158,2.3826,2.383,2.3575,2.3003,2.2524,2.2342,2.2453,2.2603,2.2911,2.3401,2.3298,2.315,2.315,2.3075,2.3238,2.366,2.366,2.3974,2.49,2.4894,2.5228,2.5985,2.6134,2.6764,2.7936,2.8285,2.8786,2.9316,2.9263,2.9263,3.9673,4.1943,4.4433,4.777,4.9018,4.9885,5.1566,5.1474,5.1203,5.1816,5.1417,5.1424,5.2785,5.1896,5.1,5.1527,5.0121,4.8649,4.7921,4.6665,4.5421,4.4044,4.2571,4.116,3.9833,3.8843,3.8291,3.7974,3.7974,3.7974,3.7868,3.7998,3.7868,3.7524,3.7025,3.6449,3.5898,3.4899,3.4208,3.4004,3.3522,3.2818,3.2097,3.2248,3.1984,3.1359,3.0252,2.9493,2.9028,2.8678,2.8277,2.7808,2.7339,2.6954,2.655,2.655,2.655,2.655,2.655,2.6696,2.686,2.6691,2.651,2.6282,2.6018,2.5592,2.5189,2.5126,2.5105,2.4999,2.4532,2.4384,2.4424,2.4811,2.4119,2.347,2.3656,2.3156,2.2777,2.315,2.318,2.3025,2.2628,2.2661,2.2413,2.1669,2.1599,2.1702,2.2093,2.1816,2.1861,2.251,2.2252,2.2101,2.2252,2.2101,2.2366,2.3174,2.3083,2.3374,2.4219,2.4198,2.47,2.5816,2.5893,2.638,2.7309,2.7862,2.8315,2.8633,2.8498,2.8554,3.6862,3.9525,4.2469,4.5047,4.7235,4.8797,4.9277,4.9095,4.9521,5.1395,5.1149,5.0968,5.1965,5.0925,5.0324,5.146,4.9728,4.8378,4.848,4.6723,4.4967,4.3698,4.2131,4.0837,4.0103,3.8819,3.808,3.7974,3.7785,3.7572,3.7334,3.7572,3.7405,3.6685,3.6332,3.5864,3.5341,3.4508,3.3902,3.3697,3.3219,3.2619,3.1802,3.1495,3.06,2.9371,2.8962,2.8561,2.8225,2.7437,2.7019,2.6823,2.6403,2.6245,2.624,2.6157,2.6157,2.624,2.6074,2.6466,2.6948,2.6667,2.6518,2.6497,2.6045,2.5509,2.4871,2.4529,2.4464,2.4255,2.3635,2.3164,2.29,2.2633,2.2862,2.3075,2.2788,2.2542,2.2478,2.2553,2.2401,2.2302,2.2413,2.2155,2.1803,2.1261,2.1502,2.1648,2.1376,2.1574,2.1769,2.1797,2.1665,2.1568,2.1512,2.1436,2.1553,2.1865,2.2117,2.2522,2.2919,2.3794,2.4657,2.5289,2.5654,2.6119,2.6699,2.7383,2.7672,2.7753,2.7938,2.7806,3.5456,3.7993,4.0852,4.4409,4.6589,4.7882,4.8009,4.8183,4.855,4.9524,4.994,5.0455,5.1439,5.0661,5.0385,5.1452,4.9643,4.8236,4.848,4.6272,4.4387,4.3282,4.1533,4.0065,3.881,3.7968,3.7283,3.6939,3.6706,3.672,3.6767,3.6897,3.6779,3.6203,3.5818,3.5341,3.4601,3.366,3.2969,3.2869,3.2293,3.1502,3.0621,3.0356,2.9598,2.8488,2.8043,2.7713,2.7295,2.654,2.626,2.6217,2.5912,2.5717,2.5717,2.5906,2.5906,2.5906,2.5822,2.6127,2.6583,2.628,2.6088,2.6022,2.5636,2.4998,2.4303,2.3965,2.3737,2.3451,2.2756,2.2311,2.193,2.149,2.1859,2.2108,2.1859,2.1721,2.1721,2.1797,2.159,2.152,2.1466,2.102,2.0708,2.0838,2.0863,2.0943,2.1145,2.1108,2.1111,2.133,2.1093,2.0896,2.0876,2.0997,2.1214,2.165,2.1789,2.2169,2.2939,2.3556,2.4172,2.4816,2.5164,2.5628,2.6362,2.6693,2.7021,2.7208,2.729,2.7013,3.3818,3.6499,3.9516,4.4046,4.5832,4.6602,4.6894,4.7387,4.7663,4.7364,4.8528,4.9793,5.0795,5.0423,5.0255,5.109,4.949,4.8089,4.7961,4.5792,4.373,4.263,4.0862,3.9118,3.738,3.6796,3.6247,3.5615,3.5568,3.5676,3.6145,3.6168,3.6016,3.5713,3.5167,3.4601,3.3788,3.2742,3.209,3.1999,3.1121,3.0245,2.9371,2.9124,2.8696,2.7934,2.7393,2.6913,2.6487,2.5998,2.5743,2.5636,2.5507,2.5335,2.5167,2.5608,2.5652,2.5654,2.5654,2.5914,2.6174,2.5784,2.5573,2.5462,2.5232,2.4556,2.3784,2.3533,2.3124,2.2595,2.191,2.161,2.1332,2.082,2.0876,2.0974,2.1051,2.0954,2.0876,2.1051,2.0954,2.0738,2.0377,1.993,1.9746,2.0391,2.0177,2.0139,2.0876,2.0486,2.033,2.0835,2.0407,2.0177,2.0333,2.0483,2.0866,2.1535,2.1409,2.1839,2.3083,2.3063,2.3408,2.4178,2.4655,2.5222,2.5946,2.603,2.6279,2.6633,2.6461,2.6169,2.9434,3.3677,3.8441,4.1852,4.327,4.4134,4.4898,4.5153,4.5495,4.6203,4.7951,4.9221,4.9114,4.9046,4.9152,4.9324,4.8256,4.7383,4.7135,4.5101,4.3179,4.2051,3.9869,3.8074,3.7308,3.6152,3.5352,3.5282,3.5258,3.5201,3.5004,3.519,3.5062,3.4314,3.3937,3.3561,3.3083,3.2622,3.2129,3.1406,3.0013,2.9171,2.8775,2.7776,2.7331,2.7345,2.6689,2.6267,2.5977,2.5487,2.5041,2.4679,2.4884,2.4945,2.4945,2.5027,2.537,2.5822,2.5822,2.5866,2.591,2.5676,2.5423,2.519,2.4956,2.4283,2.3533,2.3281,2.2689,2.1902,2.1247,2.0889,2.0633,2.0115,2.002,2.0177,2.0566,2.0644,2.0644,2.0644,2.0489,2.0198,1.9773,1.9813,1.9887,2.0001,1.9963,1.9904,1.9781,1.9762,1.9664,1.9543,1.9487,1.9469,1.945,1.9506,1.9789,2.0379,2.0417,2.0806,2.1446,2.224,2.265,2.2755,2.4134,2.4808,2.47,2.5274,2.5611,2.5695,2.5448,2.515,2.8682,3.2236,3.5776,3.8827,4.0501,4.1595,4.259,4.3599,4.4372,4.4398,4.5769,4.7435,4.8893,4.8585,4.8496,4.9625,4.7826,4.6469,4.6621,4.4124,4.1879,4.0819,3.8827,3.7067,3.5545,3.4876,3.4314,3.3731,3.3708,3.3845,3.4142,3.4142,3.4028,3.38,3.3492,3.3163,3.2667,3.2074,3.1263,3.0025,2.902,2.8317,2.801,2.7149,2.6802,2.6711,2.5978,2.5305,2.4787,2.4577,2.422,2.3822,2.4341,2.4448,2.4386,2.5078,2.5376,2.5549,2.5654,2.5738,2.5738,2.5464,2.5211,2.4978,2.4577,2.3846,2.3022,2.2431,2.1788,2.1014,2.0343,2.0146,1.993,1.9664,1.9548,1.9627,1.9863,1.9844,1.9784,1.9548,1.9548,1.9492,1.9169,1.9279,1.939,1.925,1.925,1.9316,1.9524,1.9462,1.9326,1.923,1.9135,1.8904,1.8612,1.9064,1.9567,1.9811,2.0129,2.0607,2.1286,2.1749,2.2083,2.2263,2.3567,2.4272,2.4378,2.4345,2.4598,2.4914,2.4638,2.4172,2.7468,2.9934,3.2041,3.5001,3.706,3.862,3.9839,4.1368,4.2539,4.2495,4.3387,4.4996,4.7624,4.7568,4.756,4.908,4.726,4.5695,4.5921,4.3467,4.1052,3.9722,3.7916,3.601,3.4073,3.3571,3.3095,3.2465,3.223,3.2465,3.3288,3.3003,3.29,3.3186,3.29,3.2552,3.1961,3.1042,3.009,2.901,2.8104,2.764,2.7338,2.6496,2.6041,2.5889,2.5378,2.4629,2.37,2.3784,2.3515,2.3144,2.3721,2.4012,2.4158,2.4997,2.5357,2.538,2.5549,2.557,2.5549,2.5083,2.4851,2.4619,2.3992,2.3289,2.2453,2.171,2.0898,2.0177,1.9627,1.9487,1.9329,1.9231,1.9231,1.9231,1.9231,1.9231,1.9152,1.8772,1.8851,1.8851,1.8692,1.8772,1.8772,1.8612,1.8531,1.8661,1.897,1.895,1.8832,1.8684,1.8633,1.8311,1.7876,1.8532,1.9093,1.9368,1.9731,2.0325,2.1105,2.1062,2.1286,2.182,2.2591,2.3229,2.368,2.3402,2.3487,2.3961,2.3617,2.3227,2.4118,2.5684,2.7268,3.0093,3.2666,3.4953,3.6453,3.7652,3.8964,4.0829,4.1216,4.191,4.3844,4.5089,4.5954,4.655,4.6228,4.5533,4.452,4.3126,4.1381,3.9173,3.706,3.5198,3.3697,3.2331,3.1673,3.1993,3.1394,3.145,3.2465,3.1958,3.1753,3.2059,3.1856,3.1331,3.0651,2.9428,2.8839,2.87,2.7598,2.6898,2.6579,2.553,2.4941,2.5009,2.49,2.4283,2.3281,2.3408,2.3247,2.2941,2.3184,2.378,2.4487,2.4509,2.5078,2.5822,2.5654,2.557,2.5484,2.4555,2.4241,2.4075,2.3207,2.2332,2.163,2.1371,2.0343,1.939,1.9292,1.8993,1.8772,1.9011,1.8993,1.8993,1.8993,1.8993,1.8931,1.8772,1.8692,1.8692,1.8692,1.8531,1.8434,1.8434,1.8193,1.7968,1.784,1.8044,1.7963,1.7302,1.7481,1.7592,1.7239,1.7524,1.8087,1.8952,1.895,1.9363,2.0348,1.9835,2.0043,2.1069,2.0995,2.1404,2.2264,2.248,2.2565,2.2585,2.2154,2.2173,2.2396,2.3614,2.4872,2.6571,2.895,3.1143,3.2318,3.4135,3.5691,3.6591,3.7071,3.7772,3.9093,4.1708,4.4065,4.5121,4.4266,4.3359,4.3019,4.1106,3.9088,3.7345,3.5498,3.3845,3.2427,3.128,3.0673,3.0745,3.0013,2.9949,3.1149,3.0665,3.0691,3.1403,3.0917,3.0349,2.9878,2.9116,2.8603,2.8507,2.7483,2.6857,2.6537,2.5378,2.4791,2.4573,2.3921,2.3338,2.2774,2.2837,2.2656,2.2572,2.3289,2.3867,2.4386,2.5016,2.5398,2.5738,2.5738,2.5822,2.5652,2.4658,2.4426,2.4114,2.2816,2.2069,2.1471,2.0642,1.9897,1.9231,1.8834,1.8692,1.8772,1.8931,1.8931,1.8772,1.8674,1.8594,1.8514,1.8112,1.8031,1.8031,1.7887,1.7806,1.7789,1.7789,1.7708,1.7629,1.7614,1.7976,1.7884,1.7328,1.7423,1.7337,1.6862,1.7101,1.7461,1.7938,1.833,1.8669,1.902,1.9183,1.9346,1.9558,2.0018,2.0784,2.1864,2.1671,2.1757,2.202,2.1588,2.1475,2.0669,2.1376,2.2339,2.372,2.5394,2.7085,2.8276,2.9985,3.1519,3.2117,3.2911,3.3828,3.4976,3.7543,4.0214,4.274,4.236,4.1802,4.1591,4.0031,3.8202,3.6176,3.4647,3.3093,3.1251,3.0147,2.9467,2.9366,2.8528,2.8566,2.9748,2.9513,2.9743,3.0572,2.9923,2.9458,2.9189,2.8625,2.8178,2.8082,2.7066,2.6535,2.6238,2.5064,2.4311,2.3954,2.3117,2.27,2.2486,2.2429,2.2452,2.2615,2.3371,2.4033,2.4619,2.5273,2.557,2.5738,2.5633,2.5525,2.5308,2.4341,2.3924,2.3489,2.2265,2.1449,2.084,1.9979,1.9376,1.8813,1.8479,1.8531,1.8612,1.8851,1.8692,1.8451,1.8273,1.8193,1.8031,1.761,1.7529,1.7465,1.7302,1.7302,1.7302,1.7139,1.7139,1.7072,1.7048,1.7493,1.7557,1.6927,1.7018,1.69,1.6428,1.6586,1.6764,1.7064,1.7578,1.7854,1.7854,1.8128,1.8371,1.8462,1.8937,1.9686,2.0744,2.0695,2.0729,2.0998,2.0729,2.0658,0.0,0.0,0.0,2.1364,2.2136,2.2807,2.4385,2.5287,2.6223,2.7568,2.8763,3.0024,3.1687,3.2495,3.4329,3.8987,4.0578,4.0967,4.049,3.9944,3.8542,3.5836,3.4612,3.29,3.0456,2.8998,2.8106,2.7905,2.7182,2.7122,2.8166,2.8431,2.8674,2.927,2.8835,2.8577,2.8582,2.7756,2.7336,2.7505,2.6401,2.5805,2.5513,2.4331,2.3428,2.2859,2.2585,2.25,2.248,2.232,2.2649,2.3281,2.3449,2.422,2.5189,2.5189,2.5549,2.5822,2.538,2.4892,2.4341,2.3491,2.2713,2.2104,2.1423,2.0523,1.9678,1.9612,1.8879,1.8195,1.8346,1.8353,1.8451,1.8612,1.8371,1.8031,1.7951,1.7789,1.7529,1.7139,1.7139,1.7139,1.7057,1.7057,1.6976,1.673,1.6484,1.6319,1.6087,1.6667,1.6783,1.5965,1.6199,1.6286,1.6034,1.602,1.6109,1.6389,1.6682,1.6857,1.6857,1.6565,1.6862,1.7963,1.7751,1.7933,1.8735,1.9396,1.9672,1.9672,1.969,1.9877,1.7893,0.0,0.0,0.0,0.0,0.0,2.0584,2.1252,2.1869,2.3002,2.3906,2.4843,2.5783,2.7807,2.9802,3.1414,3.4939,3.7707,3.8016,3.7213,3.5907,3.4337,3.2716,3.1123,2.9787,2.8124,2.7074,2.6992,2.581,2.558,2.6584,2.734,2.7763,2.7742,2.7699,2.7415,2.7064,2.7037,2.6717,2.6276,2.5911,2.537,2.4755,2.3501,2.2853,2.2839,2.2084,2.2039,2.25,2.2656,2.3076,2.3784,2.4283,2.4935,2.5464,2.5633,2.5738,2.5654,2.5549,2.5059,2.4341,2.3471,2.2853,2.2261,2.1268,2.0585,2.0042,1.9687,1.9158,1.8708,1.8496,1.8273,1.8193,1.8451,1.821,1.7951,1.7789,1.7383,1.6976,1.7057,1.7139,1.6976,1.6632,1.6566,1.6484,1.6335,1.6252,1.6087,1.5824,1.6223,1.6419,1.5994,1.5977,1.5927,1.6063,1.5669,1.5525,1.5882,1.5993,1.5943,1.5746,1.5882,1.6123,1.6359,1.6672,1.7066,1.7542,1.8548,1.905,1.905,1.9325,1.9581,1.7805,1.7334,1.7151,1.7787,0.0,0.0,1.8083,1.8155,1.8223,1.8932,1.9604,2.039,2.1332,2.2991,2.4663,2.5779,2.889,3.2259,3.5349,3.5118,3.4295,3.3254,3.1957,3.0474,2.8655,2.7251,2.6123,2.5477,2.4509,2.4398,2.5409,2.6299,2.6722,2.6884,2.6963,2.6841,2.6496,2.6688,2.637,2.5832,2.5482,2.4947,2.4306,2.324,2.2742,2.2689,2.2337,2.2422,2.2879,2.3228,2.3628,2.4072,2.4681,2.5211,2.557,2.5633,2.5633,2.557,2.538,2.4764,2.4006,2.3408,2.2649,2.1859,2.1208,2.0469,1.9811,1.9668,1.917,1.8692,1.8531,1.829,1.8031,1.8353,1.8112,1.7789,1.7627,1.7221,1.6812,1.673,1.6566,1.6402,1.6139,1.6237,1.6154,1.5824,1.5824,1.5658,1.5325,1.5706,1.5931,1.5768,1.55,1.5521,1.5732,1.5129,1.4919,1.519,1.5232,1.5206,1.5021,1.5191,1.535,1.5578,1.5927,1.6265,1.6689,1.768,1.8241,1.8394,1.8732,1.8885,1.819,1.7331,1.6741,1.8284,1.71,0.0,1.6603,1.5913,1.5228,1.5631,1.5945,1.6556,1.7719,1.8498,1.9494,2.1168,2.2602,2.5762,3.209,3.306,3.2814,3.2185,3.1516,3.0099,2.7341,2.6415,2.5284,2.3745,2.3256,2.358,2.4546,2.5088,2.5591,2.6209,2.6487,2.6605,2.64,2.64,2.6159,2.5658,2.5073,2.4544,2.4068,2.3369,2.2785,2.2539,2.2823,2.3063,2.3297,2.3872,2.4206,2.4378,2.4786,2.5211,2.557,2.538,2.5337,2.54,2.4957,2.4199,2.3343,2.3101,2.2206,2.1128,2.1128,2.0312,1.941,1.9534,1.8993,1.8451,1.8612,1.8371,1.8031,1.8273,1.8031,1.7708,1.7383,1.7221,1.6894,1.6252,1.5906,1.5726,1.5741,1.5906,1.5922,1.5477,1.5394,1.5228,1.4741,1.5259,1.5459,1.5232,1.5053,1.4993,1.5219,1.4617,1.4282,1.4398,1.4562,1.4515,1.4528,1.4515,1.4722,1.5235,1.5274,1.5512,1.6064,1.6756,1.7355,1.7674,1.7992,1.8038,1.7924,1.7334,1.682,1.7113,1.6345,0.0,1.518,1.4434,1.3692,1.3561,1.3608,1.3686,1.4141,1.5008,1.5886,1.6166,1.7638,2.0949,2.7394,2.8885,2.94,2.9415,2.8736,2.7759,2.6487,2.5201,2.3959,2.298,2.2384,2.235,2.3243,2.3745,2.4343,2.4857,2.535,2.5605,2.5528,2.6014,2.5694,2.4624,2.475,2.4295,2.3262,2.2659,2.2427,2.2519,2.2427,2.2793,2.3461,2.3734,2.4358,2.5041,2.5295,2.5654,2.5822,2.557,2.5144,2.4719,2.4409,2.3473,2.2408,2.2249,2.1648,2.0896,2.0741,2.0275,1.969,1.9213,1.8851,1.8612,1.8531,1.8193,1.7951,1.7853,1.787,1.7789,1.7302,1.6976,1.6648,1.617,1.6154,1.6139,1.5741,1.5741,1.5658,1.5423,1.5257,1.5075,1.4741,1.472,1.4696,1.4744,1.4501,1.4526,1.4754,1.4633,1.4384,1.4028,1.4195,1.4232,1.4052,1.3849,1.3968,1.4484,1.4692,1.4924,1.4986,1.5914,1.6522,1.6819,1.7117,1.7456,1.7741,1.7279,1.6876,1.6657,1.5984,0.0,0.0,1.3864,1.2999,1.3028,1.2284,1.1728,1.2286,1.2346,1.2425,1.2565,1.3686,1.5604,1.9026,2.2635,2.5229,2.6172,2.6265,2.5876,2.4859,2.4008,2.2911,2.1267,2.0901,2.0909,2.1505,2.2215,2.3038,2.3737,2.4147,2.4635,2.5137,2.4986,2.475,2.4414,2.3924,2.35,2.3038,2.2582,2.2573,2.3024,2.3153,2.3545,2.4183,2.4425,2.4947,2.553,2.5466,2.5549,2.5695,2.5206,2.4783,2.4323,2.3845,2.308,2.2186,2.2107,2.1509,2.0819,2.0644,2.0177,1.9645,1.9152,1.8851,1.8612,1.8273,1.8031,1.7789,1.7627,1.7627,1.7546,1.7221,1.6894,1.6519,1.5858,1.5731,1.5628,1.5462,1.5492,1.5423,1.5075,1.4992,1.4741,1.4405,1.4335,1.4366,1.4372,1.405,1.4001,1.4447,1.4051,1.3826,1.3703,1.3823,1.3823,1.3738,1.3545,1.3688,1.4107,1.4067,1.415,1.448,1.4784,1.5352,1.6011,1.6393,1.6625,1.7996,1.7642,1.7248,1.6789,1.6108,1.5309,0.0,0.0,0.0,1.2726,1.1412,1.0435,1.0997,1.0135,0.951,0.9633,1.0186,1.0662,1.1005,1.5614,1.9858,2.212,2.3103,2.3397,2.2615,2.2265,2.1425,1.9583,1.9243,1.9302,1.9774,2.0798,2.1677,2.2412,2.3073,2.3754,2.45,2.3919,2.382,2.4205,2.3309,2.2929,2.3057,2.2794,2.2969,2.3513,2.3958,2.4444,2.488,2.4933,2.5392,2.5849,2.5466,2.538,2.5505,2.4847,2.4428,2.4054,2.3453,2.2777,2.2229,2.2229,2.1669,2.0977,2.0644,2.0191,1.9672,1.9127,1.8905,1.8717,1.8129,1.787,1.761,1.7481,1.74,1.7318,1.7057,1.6812,1.6406,1.564,1.5271,1.5057,1.4889,1.5043,1.5087,1.4657,1.4699,1.4573,1.4166,1.4038,1.4038,1.4103,1.3689,1.3632,1.4064,1.353,1.321,1.3329,1.3352,1.3352,1.3352,1.3385,1.3411,1.3513,1.3394,1.3527,1.3814,1.3762,1.4206,1.5153,1.547,1.5672,1.9246,1.9165,1.8716,1.751,1.6956,1.6193,1.4291,0.0,1.2711,1.1705,0.0,1.0039,0.9452,0.0,0.0,0.731,0.7042,0.7042,0.7322,0.9008,1.1875,1.6473,1.8067,1.9119,1.9753,1.8905,1.8348,1.8513,1.7483,1.7392,1.889,1.983,2.0488,2.0962,2.2188,2.2883,2.2881,2.3261,2.3502,2.3486,2.3357,2.3287,2.3144,2.3319,2.3406,2.3513,2.3727,2.423,2.4859,2.4451,2.4927,2.587,2.5658,2.557,2.5549,2.5231,2.4598,2.3846,2.3535,2.2917,2.2207,2.2207,2.184,2.125,2.0523,2.0428,2.0393,1.9129,1.894,1.9035,1.8198,1.787,1.761,1.7481,1.74,1.7318,1.6812,1.6566,1.6386,1.6026,1.5613,1.5039,1.4186,1.4408,1.4579,1.4416,1.4559,1.4573,1.4166,1.377,1.3473,1.3549,1.3326,1.3171,1.3199,1.3414,1.3318,1.2856,1.2856,1.2856,1.2856,1.2854,1.2584,1.2123,1.2729,1.2941,1.2644,1.3173,1.3706,1.4341,1.4374,1.4385,1.899,1.9087,1.8962,1.7355,1.6651,1.5959,1.4419,1.3209,1.2318,1.2023,0.0,0.0,0.0,0.0,0.0,0.0,0.5942,0.5436,0.483,0.5422,0.7746,1.2432,1.4067,1.522,1.6426,1.6201,1.5986,1.6125,1.5605,1.5619,1.6658,1.7967,1.8919,1.9568,2.0666,2.1544,2.2185,2.233,2.2594,2.2957,2.2866,2.2839,2.2969,2.3057,2.3319,2.3687,2.421,2.4696,2.5036,2.4851,2.5134,2.5696,2.5317,2.5295,2.5253,2.464,2.4096,2.3555,2.3061,2.2591,2.2122,2.1875,2.1453,2.0933,2.066,2.0375,2.0099,1.9444,1.9217,1.9088,1.8215,1.787,1.761,1.7302,1.7221,1.7139,1.6812,1.6327,1.5863,1.5701,1.4984,1.4285,1.378,1.4384,1.4735,1.4225,1.4213,1.425,1.3913,1.3392,1.3089,1.3278,1.2962,1.28,1.3102,1.2953,1.2759,1.2565,1.2506,1.248,1.248,1.2414,1.2284,1.2284,1.2259,1.2196,1.2196,1.229,1.2436,1.2762,1.3413,1.3738,1.9163,1.9309,1.931,1.7384,1.6506,1.5732,1.4321,1.3101,1.2238,1.2079,1.084,0.0,0.0,0.0,0.7119,0.6126,0.0,0.4634,0.3229,0.333,0.5044,0.8707,1.0545,1.2064,1.3319,1.3532,1.3656,1.3733,1.3521,1.378,1.4767,1.6169,1.7316,1.8125,1.9319,2.0367,2.1302,2.141,2.1877,2.2592,2.2409,2.2531,2.2967,2.294,2.3232,2.3861,2.4466,2.4784,2.5047,2.5047,2.5201,2.5333,2.4911,2.4871,2.4914,2.4241,2.378,2.3487,2.2996,2.2562,2.231,2.189,2.1427,2.1033,2.0866,2.0642,2.0272,1.9678,1.9495,1.923,1.825,1.787,1.761,1.7286,1.7221,1.7057,1.6812,1.6215,1.569,1.5358,1.4649,1.4013,1.3608,1.4184,1.4627,1.3995,1.3978,1.3997,1.3659,1.3052,1.273,1.2995,1.2597,1.2428,1.2813,1.2467,1.2273,1.2078,1.1994,1.1922,1.1822,1.1917,1.1921,1.2018,1.1684,1.1564,1.1673,1.1455,1.1345,1.1345,1.2337,1.2989,2.0267,2.0556,2.0457,1.7887,1.6771,1.5774,1.3625,1.2916,1.251,1.1554,1.1444,1.1189,0.9961,0.918,0.8117,0.6331,0.5327,0.0,0.0,0.2624,0.3327,0.4826,0.7522,0.9697,1.0793,1.0654,1.095,1.1971,1.1325,1.1786,1.3777,1.4789,1.5751,1.663,1.855,1.9526,1.9687,2.0668,2.16,2.2318,2.2203,2.2579,2.339,2.3144,2.3319,2.3841,2.412,2.4313,2.4485,2.4485,2.4636,2.4892,2.4378,2.4378,2.4529,2.4529,2.4166,2.3734,2.3541,2.3193,2.2755,2.2492,2.2227,2.1957,2.1305,2.1365,2.135,1.9764,1.9626,1.9565,1.8301,1.787,1.7691,1.7691,1.7383,1.7139,1.7057,1.6566,1.5898,1.5403,1.5174,1.4696,1.3677,1.3762,1.3967,1.3641,1.3895,1.3913,1.3476,1.2966,1.273,1.2723,1.2312,1.2045,1.2037,1.198,1.1785,1.1296,1.1197,1.1015,1.0712,1.1081,1.1185,1.0856,1.1033,1.1017,1.0688,1.0688,1.0688,1.0688,1.1345,1.1782,0.0,0.0,2.0664,1.8656,0.0,1.5664,1.4068,1.3163,1.2323,1.1294,1.1263,1.1,0.9775,0.8794,0.7826,0.6531,0.5432,0.4228,0.0,0.1817,0.1715,0.2316,0.4839,0.6782,0.7333,0.8113,0.8814,0.957,0.9871,1.0618,1.2071,1.3344,1.4653,1.5805,1.7558,1.8843,1.9739,2.0668,2.1302,2.16,2.1934,2.2242,2.256,2.2782,2.3232,2.3841,2.412,2.4292,2.455,2.455,2.4464,2.4444,2.4292,2.412,2.4013,2.3927,2.3934,2.4058,2.4067,2.3543,2.2851,2.2853,2.2302,2.1696,2.1563,2.142,2.1094,2.0334,1.9991,1.9667,1.8725,1.821,1.7789,1.7546,1.7465,1.7383,1.6894,1.6377,1.5928,1.5807,1.5174,1.4515,1.4351,1.4186,1.3951,1.3503,1.3561,1.3561,1.3222,1.2625,1.2394,1.2632,1.2129,1.1952,1.2231,1.1924,1.1406,1.0907,1.112,1.1194,1.1089,1.1014,1.0824,1.0716,1.0445,1.0257,1.0147,1.0147,1.0147,1.0147,1.0373,1.0875,2.1161,2.1188,0.0,1.9432,1.7883,0.0,1.4699,1.384,1.3049,1.2012,1.1769,1.1502,1.0697,0.9501,0.8216,0.7024,0.5732,0.4228,0.0,0.1313,0.0808,0.111,0.2917,0.4121,0.4321,0.5627,0.6725,0.7223,0.8216,0.9312,1.06,1.2058,1.3499,1.4924,1.6677,1.8243,1.9458,2.0479,2.1114,2.1229,2.1642,2.1971,2.2203,2.2517,2.2969,2.358,2.3841,2.4034,2.4272,2.4272,2.4288,2.4257,2.4169,2.4183,2.4107,2.3791,2.392,2.4205,2.4049,2.3557,2.2866,2.282,2.2213,2.1558,2.1658,2.1438,2.1034,2.0546,2.0075,1.9656,1.877,1.8371,1.8031,1.7708,1.7627,1.7465,1.6976,1.6393,1.5944,1.571,1.4996,1.4475,1.4476,1.4169,1.3847,1.3496,1.3361,1.3259,1.3102,1.2353,1.2091,1.2573,1.1999,1.1579,1.1648,1.1188,1.0804,1.0399,1.0758,1.0971,1.0971,1.0707,1.0586,1.0586,0.9926,0.9706,0.9706,0.9485,0.9514,0.9572,0.9738,1.0181]}]]